GFSNGP_500_temp_060.txt.gz
Temp
-15 -15 -15 -14 -14 -15 -14 -14 -14 -14 -14 -14 -15 -15 -16 -16 -16 -16 -16 -16 -15 -15 -16 -16 -15 -16 -15 -15 -15 -15 -15 -15 -15 -15 -15 -15 -15 -15 -15 -15 -16 -16 -16 -16
-16 -16 -15 -15 -15 -15 -15 -14 -13 -13 -13 -14 -15 -15 -15 -15 -15 -15 -15 -16 -15 -16 -16 -16 -16 -16 -16 -16 -16 -16 -15 -15 -15 -15 -15 -15 -15 -15 -15 -15 -16 -15 -15 -16
-17 -16 -16 -16 -16 -16 -16 -16 -15 -14 -14 -14 -14 -15 -15 -15 -15 -15 -16 -16 -16 -16 -16 -16 -16 -16 -16 -16 -16 -16 -16 -16 -16 -15 -15 -15 -15 -15 -15 -15 -16 -16 -16 -16
-18 -18 -17 -17 -16 -16 -16 -16 -16 -15 -15 -16 -16 -15 -15 -15 -15 -15 -15 -16 -16 -16 -16 -16 -17 -17 -17 -17 -17 -16 -16 -16 -16 -15 -15 -16 -15 -15 -16 -16 -16 -16 -16 -16
-19 -19 -17 -18 -18 -17 -16 -16 -17 -16 -16 -15 -15 -15 -15 -16 -16 -16 -16 -16 -15 -16 -16 -17 -17 -17 -17 -17 -17 -16 -16 -16 -16 -16 -15 -15 -16 -16 -16 -16 -16 -16 -16 -16
-19 -19 -18 -18 -18 -18 -17 -15 -17 -17 -16 -16 -16 -15 -15 -16 -16 -16 -16 -17 -17 -16 -16 -17 -17 -17 -17 -16 -16 -17 -17 -16 -16 -16 -16 -15 -16 -15 -15 -15 -16 -16 -16 -16
-20 -20 -19 -18 -18 -18 -18 -17 -17 -18 -17 -17 -16 -17 -17 -16 -16 -16 -16 -16 -17 -17 -16 -17 -17 -17 -17 -17 -17 -17 -17 -16 -16 -16 -16 -16 -16 -16 -16 -16 -16 -16 -16 -16
-21 -21 -19 -19 -19 -19 -19 -18 -18 -18 -18 -17 -17 -16 -17 -17 -16 -16 -16 -16 -16 -17 -16 -16 -16 -17 -17 -17 -17 -17 -17 -17 -16 -16 -16 -16 -16 -16 -16 -16 -16 -16 -17 -17
-21 -20 -20 -19 -20 -20 -19 -19 -18 -17 -17 -17 -17 -16 -16 -16 -17 -17 -17 -17 -17 -17 -16 -16 -17 -17 -17 -17 -18 -17 -17 -17 -17 -17 -17 -17 -16 -17 -17 -17 -17 -17 -17 -17
-20 -20 -20 -20 -20 -20 -20 -18 -17 -18 -18 -18 -18 -17 -16 -16 -16 -17 -17 -17 -17 -17 -17 -17 -17 -17 -17 -18 -18 -17 -17 -17 -17 -17 -17 -18 -17 -17 -17 -17 -17 -17 -18 -18
-20 -20 -20 -20 -20 -20 -21 -20 -18 -17 -18 -18 -18 -17 -18 -17 -17 -17 -17 -17 -18 -18 -18 -17 -17 -17 -17 -17 -18 -18 -18 -18 -18 -18 -18 -18 -18 -18 -18 -18 -18 -18 -18 -18
-21 -21 -21 -21 -21 -21 -20 -20 -20 -20 -19 -19 -18 -18 -18 -18 -18 -17 -17 -17 -17 -17 -17 -17 -17 -17 -17 -17 -18 -18 -18 -18 -18 -18 -18 -18 -18 -18 -18 -18 -18 -18 -18 -18
-21 -21 -21 -21 -21 -21 -21 -20 -20 -20 -19 -19 -19 -19 -18 -17 -17 -17 -17 -17 -18 -18 -18 -18 -18 -18 -17 -17 -18 -17 -18 -18 -18 -18 -18 -18 -18 -18 -18 -18 -19 -19 -19 -19
-21 -21 -21 -21 -22 -21 -21 -21 -21 -20 -20 -20 -20 -20 -19 -18 -18 -18 -18 -18 -17 -17 -17 -17 -17 -17 -18 -18 -18 -18 -18 -18 -18 -18 -18 -18 -18 -19 -18 -19 -19 -19 -20 -21
-22 -22 -22 -22 -22 -21 -21 -20 -20 -21 -20 -20 -20 -20 -20 -19 -18 -18 -18 -18 -18 -18 -18 -17 -17 -17 -17 -17 -17 -18 -18 -18 -18 -19 -18 -19 -19 -20 -19 -19 -20 -20 -20 -20
-23 -23 -22 -22 -22 -21 -21 -21 -21 -21 -21 -20 -20 -20 -20 -20 -19 -18 -18 -18 -18 -18 -18 -17 -17 -17 -18 -18 -18 -18 -19 -19 -19 -20 -20 -20 -20 -21 -21 -20 -20 -20 -20 -20
-23 -23 -23 -23 -22 -22 -22 -22 -21 -21 -21 -21 -20 -20 -20 -20 -19 -19 -19 -19 -18 -19 -18 -19 -19 -19 -19 -19 -20 -20 -21 -21 -21 -20 -20 -20 -20 -21 -20 -20 -20 -21 -20 -20
-23 -23 -23 -23 -22 -22 -22 -22 -21 -21 -22 -21 -21 -21 -20 -20 -20 -20 -20 -20 -20 -20 -20 -20 -20 -20 -20 -20 -20 -20 -20 -20 -20 -21 -21 -21 -21 -21 -21 -21 -21 -22 -21 -21
-23 -23 -23 -23 -23 -22 -22 -22 -22 -22 -21 -21 -22 -22 -22 -21 -21 -21 -21 -21 -21 -20 -20 -20 -20 -20 -20 -20 -21 -21 -21 -21 -21 -21 -21 -21 -22 -22 -22 -22 -22 -22 -22 -22
-23 -23 -23 -23 -22 -22 -22 -22 -22 -22 -22 -22 -22 -22 -22 -22 -21 -22 -22 -22 -21 -21 -21 -21 -21 -21 -21 -21 -21 -21 -21 -22 -22 -22 -22 -22 -22 -22 -23 -23 -23 -23 -23 -24
-23 -23 -23 -23 -23 -22 -22 -22 -22 -22 -22 -22 -22 -22 -22 -22 -22 -22 -22 -22 -22 -21 -21 -21 -21 -22 -22 -22 -22 -22 -22 -22 -22 -22 -22 -22 -23 -23 -23 -23 -24 -24 -25 -25
-23 -23 -23 -23 -22 -22 -22 -22 -22 -23 -23 -22 -23 -22 -22 -22 -22 -22 -22 -22 -22 -22 -22 -22 -22 -22 -23 -23 -23 -23 -23 -23 -23 -23 -23 -24 -24 -24 -25 -25 -25 -25 -25 -26
-23 -23 -23 -23 -23 -23 -23 -23 -23 -23 -23 -22 -22 -22 -22 -22 -22 -23 -23 -23 -23 -23 -23 -24 -24 -24 -24 -24 -24 -24 -25 -25 -25 -25 -25 -25 -25 -25 -26 -26 -26 -26 -27 -28
-23 -23 -23 -23 -23 -23 -24 -24 -24 -24 -24 -24 -24 -24 -24 -24 -25 -25 -25 -25 -25 -25 -25 -25 -25 -25 -25 -25 -25 -25 -25 -25 -26 -26 -26 -26 -26 -27 -27 -28 -29 -30 -30 -31
-24 -24 -24 -25 -25 -25 -25 -25 -25 -25 -25 -25 -25 -25 -25 -26 -26 -26 -26 -25 -26 -26 -26 -26 -26 -26 -26 -26 -26 -26 -26 -27 -27 -27 -28 -29 -29 -30 -30 -31 -31 -31 -32 -32
-25 -25 -25 -25 -25 -25 -25 -26 -26 -26 -26 -26 -26 -26 -26 -26 -26 -26 -26 -26 -27 -27 -27 -27 -27 -27 -27 -28 -28 -29 -29 -30 -30 -30 -31 -31 -31 -31 -32 -32 -33 -33 -33 -33
-26 -26 -26 -26 -26 -26 -27 -27 -27 -27 -27 -27 -27 -27 -27 -27 -27 -28 -28 -28 -28 -28 -29 -29 -29 -30 -30 -30 -31 -31 -31 -31 -31 -31 -32 -32 -33 -33 -34 -34 -34 -34 -35 -35

GFSNGP_500_temp_063.txt.gz
Temp
-17 -16 -16 -16 -16 -16 -15 -14 -14 -15 -15 -15 -15 -15 -16 -17 -15 -15 -15 -15 -15 -16 -16 -16 -16 -16 -16 -16 -16 -16 -16 -16 -16 -16 -16 -16 -15 -15 -15 -15 -16 -16 -15 -15
-17 -17 -17 -17 -16 -16 -15 -16 -16 -16 -15 -15 -15 -15 -15 -16 -16 -16 -15 -15 -15 -15 -16 -16 -16 -16 -16 -16 -16 -16 -16 -16 -16 -16 -16 -16 -16 -15 -15 -15 -15 -15 -15 -15
-18 -17 -17 -17 -17 -16 -16 -17 -16 -16 -16 -16 -16 -15 -15 -15 -16 -16 -16 -16 -15 -15 -15 -16 -16 -16 -17 -17 -17 -17 -17 -17 -16 -16 -16 -16 -16 -15 -15 -15 -15 -15 -16 -16
-18 -18 -17 -17 -16 -17 -17 -17 -17 -17 -16 -16 -15 -15 -15 -15 -16 -16 -16 -16 -16 -16 -16 -15 -16 -16 -16 -17 -17 -17 -17 -17 -17 -16 -16 -16 -16 -15 -15 -15 -15 -15 -15 -15
-18 -19 -18 -18 -17 -17 -17 -18 -17 -17 -17 -17 -16 -15 -16 -16 -16 -16 -16 -16 -16 -16 -17 -17 -16 -17 -16 -16 -17 -17 -17 -17 -17 -17 -16 -16 -16 -15 -16 -15 -15 -15 -15 -15
-19 -19 -18 -18 -19 -18 -18 -19 -18 -18 -17 -16 -16 -16 -16 -16 -16 -16 -15 -16 -16 -16 -16 -16 -17 -17 -17 -17 -17 -17 -17 -17 -18 -17 -17 -16 -16 -16 -16 -16 -16 -15 -16 -16
-20 -20 -19 -19 -19 -19 -19 -18 -18 -17 -18 -17 -17 -16 -17 -17 -16 -16 -16 -16 -16 -16 -16 -16 -16 -17 -17 -17 -17 -17 -17 -17 -18 -17 -17 -17 -17 -16 -16 -16 -16 -16 -16 -16
-20 -19 -19 -20 -19 -20 -19 -19 -18 -18 -18 -17 -18 -18 -17 -17 -17 -17 -16 -16 -16 -16 -16 -16 -16 -16 -16 -16 -17 -17 -17 -17 -17 -17 -17 -17 -17 -17 -17 -17 -17 -17 -17 -17
-20 -20 -20 -20 -20 -20 -20 -20 -19 -19 -19 -18 -17 -18 -18 -18 -17 -17 -17 -17 -16 -16 -16 -16 -16 -16 -17 -16 -16 -16 -17 -16 -16 -17 -17 -17 -17 -17 -18 -18 -18 -18 -18 -18
-21 -20 -20 -20 -20 -20 -20 -20 -20 -19 -19 -19 -18 -18 -18 -18 -17 -17 -17 -18 -17 -16 -17 -17 -17 -16 -16 -16 -16 -17 -17 -17 -17 -17 -17 -17 -18 -18 -18 -18 -18 -18 -18 -18
-20 -20 -21 -20 -20 -20 -20 -20 -20 -20 -20 -19 -19 -18 -18 -18 -18 -18 -18 -18 -18 -18 -18 -17 -17 -17 -18 -17 -17 -17 -16 -17 -17 -17 -17 -18 -18 -18 -18 -18 -18 -18 -18 -18
-20 -21 -21 -21 -20 -20 -20 -20 -20 -20 -20 -20 -20 -19 -19 -19 -18 -18 -18 -18 -17 -18 -18 -18 -17 -17 -17 -17 -17 -18 -17 -16 -17 -17 -17 -18 -18 -18 -18 -18 -18 -18 -18 -18
-21 -21 -21 -21 -21 -21 -21 -21 -20 -21 -20 -21 -20 -20 -20 -20 -19 -20 -18 -18 -18 -18 -18 -18 -17 -17 -17 -17 -17 -18 -17 -17 -18 -18 -18 -18 -18 -18 -18 -18 -18 -18 -18 -19
-21 -21 -21 -21 -21 -21 -21 -21 -21 -21 -21 -21 -20 -20 -20 -20 -20 -19 -19 -18 -18 -17 -17 -17 -17 -17 -17 -17 -17 -18 -17 -17 -18 -18 -18 -18 -18 -18 -18 -18 -18 -19 -19 -20
-22 -22 -22 -22 -22 -21 -21 -21 -21 -21 -21 -21 -20 -21 -20 -20 -20 -20 -20 -20 -19 -18 -18 -18 -18 -18 -17 -17 -17 -17 -17 -18 -18 -18 -19 -18 -18 -18 -18 -19 -19 -20 -20 -20
-24 -23 -23 -23 -23 -22 -23 -22 -22 -22 -21 -21 -21 -21 -20 -21 -21 -20 -20 -20 -20 -20 -19 -19 -19 -19 -18 -17 -17 -18 -18 -17 -18 -18 -19 -19 -19 -19 -20 -20 -21 -21 -21 -20
-24 -24 -24 -24 -23 -23 -23 -23 -23 -22 -22 -22 -22 -22 -21 -21 -21 -21 -20 -20 -20 -20 -20 -20 -20 -20 -20 -20 -19 -19 -18 -18 -18 -20 -20 -20 -20 -20 -21 -21 -21 -21 -21 -21
-24 -24 -24 -24 -24 -23 -23 -23 -23 -22 -23 -22 -22 -21 -22 -22 -21 -21 -21 -21 -20 -20 -20 -20 -20 -20 -20 -21 -21 -21 -21 -21 -21 -21 -21 -21 -21 -21 -21 -21 -21 -21 -21 -21
-24 -24 -24 -24 -24 -24 -24 -23 -23 -23 -22 -22 -22 -22 -22 -22 -22 -22 -21 -21 -21 -21 -21 -21 -21 -21 -21 -21 -21 -21 -21 -21 -21 -21 -21 -21 -21 -21 -21 -22 -22 -22 -22 -22
-24 -24 -23 -24 -24 -24 -23 -23 -23 -23 -22 -22 -22 -22 -22 -22 -22 -22 -22 -22 -22 -21 -21 -22 -22 -22 -22 -22 -22 -21 -22 -22 -22 -22 -22 -22 -22 -22 -22 -22 -23 -23 -23 -23
-24 -23 -23 -23 -23 -23 -23 -24 -23 -23 -23 -22 -22 -22 -22 -23 -22 -22 -23 -22 -22 -22 -22 -22 -22 -22 -22 -22 -22 -22 -22 -22 -23 -23 -23 -23 -23 -23 -23 -24 -24 -24 -24 -24
-24 -24 -24 -24 -24 -24 -24 -23 -23 -23 -23 -23 -23 -23 -23 -23 -23 -23 -23 -23 -23 -23 -23 -23 -23 -23 -22 -22 -23 -23 -23 -23 -24 -24 -24 -24 -24 -24 -24 -24 -24 -24 -25 -25
-24 -24 -24 -24 -24 -24 -24 -23 -23 -23 -23 -23 -23 -23 -24 -24 -24 -23 -23 -23 -23 -24 -24 -24 -24 -25 -24 -25 -25 -25 -25 -25 -25 -25 -25 -25 -25 -25 -25 -25 -25 -26 -27 -27
-24 -24 -24 -24 -24 -24 -24 -24 -24 -24 -25 -25 -25 -25 -25 -25 -25 -25 -25 -25 -26 -26 -26 -26 -26 -26 -26 -26 -26 -26 -26 -25 -25 -26 -26 -26 -26 -26 -27 -28 -29 -30 -30 -30
-25 -25 -25 -25 -26 -26 -26 -26 -26 -26 -26 -26 -26 -26 -26 -26 -26 -26 -26 -26 -26 -26 -26 -26 -26 -26 -26 -26 -26 -27 -27 -27 -27 -28 -28 -29 -30 -31 -31 -31 -31 -31 -31 -32
-26 -26 -26 -26 -26 -27 -27 -27 -27 -27 -27 -27 -27 -27 -27 -27 -27 -27 -27 -27 -27 -27 -27 -27 -28 -28 -28 -29 -29 -29 -30 -30 -31 -31 -31 -31 -31 -31 -31 -32 -32 -33 -33 -34
-27 -27 -27 -27 -27 -27 -27 -27 -27 -27 -27 -27 -27 -27 -27 -27 -28 -28 -28 -28 -29 -29 -29 -30 -30 -31 -31 -31 -32 -32 -32 -32 -32 -32 -32 -32 -32 -32 -33 -33 -34 -34 -34 -35

GFSNGP_500_temp_066.txt.gz
Temp
-18 -17 -17 -16 -16 -16 -16 -16 -15 -15 -15 -15 -15 -15 -15 -15 -15 -15 -16 -16 -15 -15 -15 -15 -15 -15 -15 -15 -15 -16 -16 -16 -16 -16 -15 -15 -15 -15 -15 -15 -15 -15 -15 -15
-18 -17 -17 -17 -16 -16 -16 -16 -16 -16 -16 -16 -16 -15 -15 -15 -16 -16 -16 -16 -16 -16 -16 -16 -15 -15 -15 -15 -16 -16 -16 -16 -16 -16 -16 -16 -15 -16 -16 -16 -16 -15 -15 -15
-18 -18 -18 -17 -17 -17 -17 -17 -17 -17 -16 -16 -16 -16 -16 -15 -15 -16 -15 -15 -16 -16 -16 -16 -16 -16 -16 -16 -16 -16 -16 -16 -16 -17 -17 -17 -17 -16 -16 -16 -16 -16 -16 -15
-18 -18 -18 -18 -18 -18 -18 -18 -17 -17 -17 -17 -16 -16 -15 -15 -15 -15 -15 -16 -16 -16 -16 -16 -16 -16 -16 -16 -16 -16 -17 -16 -17 -17 -17 -17 -17 -17 -16 -16 -16 -16 -15 -15
-19 -18 -18 -18 -18 -18 -18 -18 -18 -18 -18 -18 -17 -17 -16 -16 -15 -15 -15 -15 -16 -16 -16 -16 -16 -16 -16 -17 -16 -17 -17 -17 -17 -17 -17 -17 -17 -17 -17 -17 -16 -16 -16 -16
-19 -18 -18 -18 -18 -18 -19 -18 -18 -18 -18 -18 -18 -18 -17 -16 -16 -16 -15 -15 -15 -15 -16 -16 -16 -16 -16 -17 -17 -17 -17 -17 -17 -17 -17 -17 -17 -17 -17 -17 -17 -17 -16 -16
-20 -19 -19 -19 -19 -19 -20 -18 -18 -18 -18 -18 -18 -18 -18 -17 -17 -17 -16 -15 -15 -15 -16 -16 -15 -15 -16 -16 -16 -17 -17 -17 -17 -17 -17 -17 -17 -17 -17 -17 -17 -17 -17 -17
-20 -20 -20 -19 -19 -19 -19 -19 -19 -18 -18 -18 -18 -17 -17 -17 -18 -18 -17 -16 -16 -16 -16 -16 -16 -16 -16 -16 -16 -16 -17 -16 -16 -17 -17 -17 -17 -17 -16 -17 -17 -17 -17 -17
-21 -21 -20 -20 -19 -19 -19 -19 -19 -19 -19 -18 -18 -18 -18 -18 -17 -17 -18 -18 -17 -16 -16 -16 -16 -16 -16 -16 -16 -16 -16 -16 -16 -16 -17 -17 -17 -17 -16 -17 -17 -17 -17 -18
-21 -21 -20 -20 -20 -20 -20 -20 -20 -20 -20 -19 -19 -19 -19 -19 -18 -18 -17 -18 -18 -17 -17 -17 -16 -16 -16 -16 -16 -16 -16 -17 -17 -16 -16 -16 -17 -17 -17 -16 -17 -17 -17 -18
-21 -21 -21 -20 -20 -20 -20 -20 -20 -20 -20 -20 -20 -19 -19 -19 -19 -18 -18 -17 -18 -18 -17 -17 -17 -17 -17 -17 -17 -17 -17 -17 -17 -17 -17 -17 -17 -17 -17 -17 -17 -17 -17 -18
-21 -21 -21 -21 -20 -20 -20 -20 -20 -20 -20 -20 -20 -20 -20 -20 -20 -19 -19 -18 -18 -18 -18 -18 -17 -17 -18 -17 -17 -18 -17 -17 -17 -17 -17 -17 -17 -17 -17 -17 -17 -17 -18 -17
-21 -21 -21 -21 -21 -21 -21 -21 -20 -20 -20 -20 -20 -20 -20 -20 -20 -20 -19 -19 -20 -19 -19 -18 -18 -17 -18 -18 -18 -17 -17 -18 -18 -18 -18 -17 -17 -17 -17 -17 -17 -18 -18 -18
-21 -21 -21 -21 -21 -21 -21 -21 -21 -21 -21 -21 -21 -21 -20 -20 -20 -20 -20 -20 -20 -20 -19 -19 -18 -18 -18 -17 -18 -18 -18 -18 -18 -18 -18 -18 -18 -17 -18 -17 -17 -18 -18 -18
-22 -21 -21 -21 -21 -21 -21 -21 -21 -21 -21 -21 -21 -21 -21 -20 -20 -20 -20 -20 -20 -20 -20 -20 -19 -19 -18 -18 -17 -17 -17 -17 -18 -18 -18 -18 -18 -18 -18 -18 -19 -19 -19 -19
-22 -22 -22 -22 -22 -22 -22 -22 -22 -22 -22 -22 -22 -22 -21 -21 -21 -21 -20 -20 -21 -20 -20 -20 -20 -20 -19 -19 -19 -19 -19 -19 -19 -18 -17 -18 -19 -19 -19 -20 -20 -20 -20 -20
-23 -23 -23 -23 -23 -23 -24 -24 -24 -23 -23 -23 -23 -23 -22 -22 -22 -21 -21 -21 -22 -21 -21 -21 -21 -21 -21 -20 -20 -20 -20 -20 -20 -19 -18 -19 -20 -21 -21 -21 -21 -21 -21 -21
-24 -24 -24 -24 -24 -24 -24 -24 -24 -23 -23 -23 -23 -23 -23 -23 -22 -23 -22 -22 -22 -22 -22 -21 -21 -21 -21 -21 -21 -21 -20 -21 -21 -21 -20 -21 -21 -21 -21 -21 -21 -22 -22 -22
-24 -24 -24 -24 -24 -24 -24 -24 -24 -24 -23 -23 -23 -23 -23 -22 -22 -22 -22 -22 -22 -22 -21 -21 -21 -21 -21 -22 -22 -22 -21 -21 -21 -21 -22 -22 -22 -22 -22 -22 -22 -22 -22 -22
-24 -24 -24 -24 -24 -24 -24 -24 -24 -24 -23 -24 -23 -23 -23 -23 -23 -23 -22 -22 -22 -22 -22 -22 -22 -22 -22 -22 -22 -22 -22 -22 -22 -22 -21 -22 -22 -22 -22 -22 -22 -22 -23 -23
-24 -24 -24 -24 -24 -24 -24 -24 -24 -24 -24 -24 -24 -24 -23 -23 -23 -22 -23 -22 -22 -22 -22 -22 -22 -22 -22 -22 -22 -23 -23 -23 -23 -23 -23 -23 -23 -23 -23 -23 -23 -23 -24 -24
-24 -24 -24 -24 -24 -24 -24 -24 -24 -24 -24 -24 -24 -24 -23 -23 -23 -23 -23 -23 -23 -23 -23 -23 -23 -23 -23 -23 -23 -23 -24 -24 -24 -24 -24 -24 -25 -25 -25 -25 -25 -25 -25 -25
-24 -24 -24 -24 -25 -24 -24 -24 -24 -24 -24 -24 -24 -24 -24 -24 -24 -24 -24 -24 -24 -24 -25 -25 -25 -25 -25 -25 -25 -26 -26 -26 -26 -26 -26 -26 -26 -26 -25 -25 -25 -25 -25 -26
-24 -24 -24 -25 -25 -25 -25 -25 -25 -25 -25 -25 -26 -26 -26 -26 -26 -26 -26 -26 -26 -26 -26 -26 -26 -26 -26 -26 -26 -26 -26 -26 -26 -26 -26 -26 -26 -26 -26 -26 -27 -27 -28 -28
-25 -26 -26 -26 -27 -27 -27 -27 -27 -27 -27 -27 -27 -27 -28 -27 -27 -27 -27 -27 -27 -27 -27 -27 -27 -27 -27 -26 -26 -27 -27 -27 -27 -27 -27 -27 -28 -28 -29 -30 -30 -31 -31 -31
-26 -27 -27 -27 -27 -27 -27 -27 -28 -28 -28 -28 -28 -28 -28 -28 -28 -28 -27 -27 -27 -27 -27 -27 -27 -28 -28 -28 -28 -28 -29 -29 -30 -30 -31 -31 -32 -32 -32 -32 -32 -32 -32 -32
-27 -27 -27 -27 -27 -27 -28 -28 -28 -28 -28 -28 -29 -29 -29 -29 -29 -29 -29 -29 -29 -29 -29 -29 -30 -30 -31 -31 -32 -32 -33 -33 -33 -33 -32 -32 -32 -32 -32 -32 -32 -33 -33 -34

GFSNGP_500_temp_069.txt.gz
Temp
-18 -18 -18 -17 -17 -17 -17 -16 -16 -16 -16 -16 -15 -15 -15 -14 -14 -15 -16 -16 -15 -16 -15 -15 -15 -15 -15 -15 -15 -15 -15 -15 -16 -16 -16 -15 -15 -15 -15 -15 -15 -14 -14 -14
-18 -18 -18 -17 -17 -17 -16 -16 -16 -16 -16 -16 -16 -15 -15 -15 -15 -15 -16 -16 -15 -15 -15 -15 -16 -16 -15 -15 -16 -16 -15 -15 -16 -16 -16 -16 -16 -15 -16 -16 -15 -15 -15 -15
-19 -19 -18 -17 -17 -17 -16 -16 -16 -17 -17 -16 -16 -16 -15 -15 -15 -15 -15 -15 -15 -16 -16 -16 -16 -16 -16 -16 -16 -16 -16 -16 -16 -16 -16 -16 -16 -16 -16 -16 -16 -16 -16 -15
-19 -19 -19 -18 -18 -17 -17 -17 -17 -17 -17 -17 -17 -17 -16 -16 -16 -16 -15 -15 -15 -16 -16 -16 -16 -16 -16 -16 -16 -16 -16 -16 -16 -16 -16 -16 -17 -17 -17 -17 -17 -16 -16 -16
-19 -18 -18 -18 -19 -18 -18 -18 -18 -18 -17 -17 -17 -17 -16 -16 -16 -16 -16 -16 -15 -15 -15 -16 -16 -16 -16 -16 -16 -16 -16 -17 -15 -15 -16 -16 -16 -17 -17 -17 -17 -17 -17 -17
-19 -18 -18 -18 -18 -17 -17 -18 -18 -18 -18 -18 -17 -17 -17 -16 -17 -16 -16 -16 -16 -16 -15 -16 -16 -16 -17 -16 -16 -16 -16 -16 -16 -16 -16 -17 -17 -17 -17 -16 -16 -16 -17 -17
-20 -20 -19 -18 -18 -18 -18 -18 -18 -18 -18 -18 -18 -18 -18 -18 -17 -17 -16 -16 -16 -16 -16 -16 -16 -16 -16 -16 -16 -16 -16 -17 -17 -17 -17 -17 -17 -17 -17 -17 -17 -16 -16 -17
-20 -20 -20 -20 -19 -19 -19 -18 -18 -18 -18 -18 -18 -18 -18 -18 -18 -17 -17 -17 -17 -17 -16 -16 -16 -16 -15 -16 -16 -15 -16 -16 -17 -17 -17 -17 -17 -16 -16 -17 -17 -17 -16 -16
-20 -20 -20 -20 -19 -20 -20 -19 -18 -18 -18 -18 -18 -18 -18 -18 -17 -18 -17 -16 -16 -16 -17 -17 -16 -16 -16 -16 -16 -16 -16 -16 -16 -16 -17 -16 -16 -16 -16 -17 -17 -16 -16 -16
-21 -21 -21 -21 -20 -20 -19 -19 -18 -18 -18 -19 -19 -19 -19 -19 -19 -18 -18 -18 -17 -17 -17 -17 -18 -17 -17 -16 -16 -16 -17 -17 -17 -16 -16 -16 -16 -16 -16 -16 -16 -16 -16 -16
-22 -22 -21 -21 -21 -20 -20 -20 -20 -20 -20 -20 -20 -19 -19 -19 -19 -19 -19 -19 -18 -18 -18 -18 -18 -18 -18 -17 -17 -17 -16 -17 -17 -17 -17 -17 -17 -17 -16 -16 -16 -16 -16 -17
-22 -22 -22 -21 -21 -21 -20 -20 -20 -20 -20 -20 -20 -20 -20 -20 -20 -20 -19 -19 -19 -19 -19 -18 -18 -18 -18 -18 -18 -17 -17 -17 -17 -17 -17 -17 -17 -17 -17 -17 -17 -17 -17 -17
-22 -22 -21 -21 -21 -21 -21 -20 -20 -20 -20 -20 -20 -20 -20 -20 -20 -20 -20 -20 -20 -20 -20 -19 -19 -19 -19 -19 -18 -18 -18 -18 -17 -17 -18 -18 -18 -18 -18 -18 -18 -18 -18 -17
-22 -22 -21 -21 -21 -21 -21 -21 -21 -20 -20 -20 -20 -20 -20 -20 -20 -20 -20 -20 -20 -20 -20 -20 -20 -20 -20 -20 -19 -19 -17 -16 -17 -18 -18 -18 -18 -18 -18 -18 -18 -18 -18 -18
-22 -22 -21 -21 -21 -21 -21 -21 -21 -21 -21 -21 -21 -21 -21 -21 -21 -21 -20 -20 -20 -20 -20 -20 -20 -20 -20 -20 -19 -19 -19 -18 -19 -18 -18 -18 -18 -18 -18 -18 -18 -19 -19 -19
-22 -22 -21 -21 -21 -21 -21 -21 -21 -21 -21 -22 -22 -22 -22 -21 -21 -21 -21 -21 -21 -20 -21 -21 -21 -21 -21 -20 -20 -20 -20 -20 -20 -20 -20 -19 -20 -19 -19 -19 -19 -19 -20 -20
-22 -22 -22 -21 -21 -22 -22 -22 -22 -23 -23 -23 -23 -23 -23 -23 -23 -23 -22 -22 -22 -22 -21 -21 -21 -22 -22 -22 -21 -21 -21 -21 -21 -21 -21 -21 -21 -22 -21 -21 -20 -21 -21 -22
-22 -22 -22 -22 -23 -23 -23 -23 -24 -24 -24 -24 -24 -24 -24 -23 -23 -23 -23 -23 -23 -23 -22 -22 -22 -22 -22 -22 -21 -21 -21 -21 -21 -21 -21 -22 -22 -22 -22 -22 -22 -22 -22 -22
-24 -24 -24 -23 -24 -24 -24 -24 -24 -24 -24 -24 -24 -24 -24 -24 -24 -24 -23 -23 -23 -23 -22 -22 -22 -22 -22 -22 -22 -22 -22 -22 -22 -22 -22 -22 -22 -22 -22 -22 -22 -22 -22 -22
-24 -24 -24 -24 -24 -24 -24 -24 -24 -24 -24 -24 -24 -24 -24 -24 -24 -24 -24 -24 -23 -23 -23 -23 -23 -23 -23 -22 -22 -22 -22 -22 -22 -22 -22 -22 -23 -23 -23 -23 -23 -23 -23 -23
-24 -24 -24 -24 -24 -24 -24 -24 -24 -24 -24 -24 -24 -24 -24 -24 -24 -24 -24 -24 -24 -24 -23 -23 -24 -24 -24 -23 -23 -23 -23 -23 -23 -23 -23 -23 -23 -23 -24 -24 -24 -24 -24 -25
-24 -24 -24 -24 -24 -24 -24 -24 -24 -24 -25 -25 -24 -24 -24 -24 -24 -24 -24 -24 -24 -24 -24 -24 -24 -24 -24 -24 -24 -24 -25 -25 -25 -25 -25 -25 -25 -25 -25 -26 -26 -26 -26 -26
-24 -24 -24 -24 -24 -24 -24 -24 -24 -25 -25 -25 -25 -25 -25 -25 -25 -25 -25 -25 -26 -26 -26 -26 -26 -26 -26 -26 -26 -26 -26 -26 -26 -26 -26 -26 -26 -26 -26 -26 -26 -26 -26 -26
-24 -24 -24 -24 -25 -25 -25 -25 -26 -26 -26 -26 -27 -27 -27 -27 -27 -27 -27 -27 -27 -27 -27 -27 -27 -27 -27 -27 -27 -27 -27 -26 -26 -26 -26 -26 -26 -26 -26 -26 -27 -27 -28 -29
-26 -26 -26 -26 -26 -27 -27 -27 -27 -27 -27 -27 -28 -28 -28 -28 -28 -28 -28 -28 -28 -28 -28 -28 -28 -27 -27 -27 -27 -27 -27 -27 -27 -27 -27 -28 -28 -29 -29 -30 -31 -31 -32 -32
-26 -26 -27 -27 -27 -27 -27 -28 -28 -28 -28 -28 -28 -28 -28 -29 -29 -29 -29 -29 -29 -29 -29 -28 -28 -29 -29 -29 -29 -29 -29 -30 -30 -31 -32 -32 -32 -33 -33 -33 -33 -32 -32 -32
-27 -27 -27 -27 -28 -28 -29 -29 -29 -30 -30 -30 -30 -30 -30 -30 -30 -30 -30 -30 -30 -30 -30 -30 -31 -31 -32 -32 -32 -33 -33 -33 -33 -33 -33 -33 -33 -33 -33 -33 -33 -33 -33 -33

GFSNGP_500_temp_072.txt.gz
Temp
-18 -17 -17 -16 -17 -16 -16 -16 -16 -15 -15 -14 -15 -15 -15 -15 -14 -15 -15 -15 -16 -16 -15 -15 -15 -15 -15 -15 -15 -15 -15 -15 -15 -15 -15 -15 -15 -15 -15 -15 -15 -15 -15 -15
-18 -18 -17 -17 -17 -17 -17 -16 -17 -16 -15 -15 -15 -15 -14 -13 -14 -15 -14 -15 -15 -14 -14 -14 -15 -15 -15 -15 -15 -15 -15 -15 -15 -15 -16 -15 -15 -16 -16 -15 -15 -15 -15 -16
-19 -18 -18 -18 -18 -17 -17 -17 -17 -17 -16 -16 -16 -15 -15 -15 -15 -15 -15 -15 -15 -16 -15 -15 -15 -15 -15 -15 -15 -15 -16 -16 -16 -16 -15 -16 -16 -16 -16 -16 -16 -16 -16 -16
-19 -18 -18 -18 -17 -17 -17 -16 -16 -16 -16 -16 -16 -16 -16 -16 -16 -15 -15 -15 -15 -15 -15 -16 -16 -16 -16 -16 -15 -16 -16 -16 -16 -16 -16 -16 -16 -16 -16 -16 -16 -16 -17 -17
-19 -19 -18 -18 -17 -17 -17 -17 -17 -17 -17 -16 -17 -17 -16 -16 -17 -16 -16 -16 -16 -15 -15 -15 -16 -16 -16 -15 -15 -15 -15 -16 -16 -16 -16 -16 -16 -16 -16 -16 -16 -16 -16 -17
-20 -19 -18 -18 -18 -18 -17 -17 -16 -17 -17 -17 -17 -16 -16 -17 -17 -17 -17 -17 -17 -16 -16 -16 -16 -16 -16 -16 -16 -16 -16 -16 -16 -16 -16 -16 -16 -16 -17 -16 -16 -17 -16 -16
-20 -20 -19 -18 -18 -17 -17 -17 -17 -17 -17 -18 -18 -17 -18 -17 -17 -17 -17 -16 -17 -17 -17 -16 -16 -17 -16 -16 -16 -16 -16 -16 -16 -15 -15 -16 -16 -16 -16 -16 -16 -17 -17 -16
-20 -20 -19 -19 -19 -18 -18 -18 -18 -18 -18 -18 -17 -17 -17 -18 -18 -18 -17 -17 -18 -17 -17 -17 -17 -17 -17 -16 -17 -17 -16 -16 -16 -16 -15 -15 -15 -16 -16 -16 -17 -17 -17 -17
-21 -21 -20 -20 -20 -19 -19 -19 -18 -19 -18 -18 -18 -18 -18 -18 -18 -18 -18 -17 -17 -16 -16 -16 -16 -16 -16 -16 -16 -16 -16 -16 -16 -16 -16 -16 -16 -15 -16 -16 -16 -16 -16 -16
-21 -20 -21 -21 -21 -20 -20 -19 -19 -19 -19 -18 -18 -18 -18 -18 -18 -18 -18 -18 -18 -18 -18 -17 -17 -17 -17 -16 -16 -16 -17 -17 -16 -16 -16 -16 -16 -16 -16 -16 -16 -17 -16 -16
-21 -20 -21 -20 -21 -20 -20 -19 -19 -19 -19 -19 -19 -19 -19 -20 -20 -20 -19 -19 -19 -19 -19 -19 -18 -18 -18 -18 -18 -18 -17 -17 -17 -17 -17 -17 -17 -17 -17 -16 -16 -16 -16 -16
-22 -21 -20 -20 -21 -21 -21 -21 -20 -20 -20 -20 -20 -20 -20 -20 -20 -20 -20 -20 -20 -20 -19 -19 -19 -19 -18 -18 -18 -18 -18 -18 -18 -18 -18 -18 -17 -17 -17 -17 -17 -17 -17 -17
-23 -22 -21 -21 -22 -22 -21 -21 -21 -21 -21 -21 -21 -20 -20 -20 -20 -20 -20 -20 -20 -20 -20 -20 -20 -19 -19 -19 -19 -19 -19 -19 -19 -19 -18 -18 -18 -18 -17 -17 -17 -17 -17 -18
-23 -22 -22 -22 -22 -22 -21 -21 -21 -21 -21 -21 -20 -20 -20 -20 -20 -20 -20 -20 -20 -20 -20 -20 -20 -20 -20 -20 -20 -20 -20 -20 -20 -19 -19 -19 -19 -18 -18 -18 -18 -18 -18 -18
-22 -22 -22 -22 -22 -22 -21 -21 -21 -21 -21 -21 -20 -20 -20 -20 -20 -20 -20 -20 -20 -20 -20 -20 -20 -20 -20 -20 -20 -20 -20 -20 -20 -20 -20 -20 -20 -19 -19 -19 -20 -19 -19 -20
-22 -22 -22 -22 -22 -22 -22 -21 -21 -21 -21 -21 -21 -21 -21 -21 -21 -21 -21 -21 -21 -21 -20 -20 -20 -20 -20 -20 -21 -21 -21 -21 -21 -21 -20 -20 -20 -20 -20 -21 -21 -21 -20 -20
-22 -22 -22 -22 -22 -22 -22 -22 -22 -22 -22 -22 -22 -22 -22 -22 -22 -22 -22 -22 -22 -22 -22 -22 -22 -22 -22 -22 -22 -22 -22 -22 -22 -22 -22 -22 -21 -21 -21 -21 -22 -22 -22 -22
-22 -22 -22 -22 -22 -22 -22 -23 -23 -23 -23 -23 -23 -23 -23 -23 -23 -24 -24 -24 -24 -24 -24 -24 -23 -23 -23 -23 -23 -22 -23 -22 -22 -22 -22 -22 -22 -22 -22 -22 -22 -22 -22 -22
-23 -23 -23 -23 -23 -23 -23 -23 -23 -23 -23 -23 -23 -23 -23 -23 -24 -24 -24 -24 -24 -24 -24 -24 -24 -24 -24 -23 -23 -23 -23 -23 -23 -23 -22 -22 -23 -23 -22 -22 -23 -23 -23 -23
-23 -24 -24 -24 -24 -24 -24 -23 -23 -23 -23 -24 -24 -24 -24 -24 -24 -24 -24 -24 -24 -24 -24 -24 -24 -24 -24 -24 -24 -24 -24 -23 -23 -23 -23 -23 -23 -23 -23 -23 -24 -24 -24 -24
-24 -24 -24 -24 -24 -24 -23 -23 -24 -24 -24 -24 -24 -24 -23 -24 -24 -24 -25 -24 -24 -24 -24 -24 -24 -24 -24 -24 -24 -24 -24 -24 -24 -24 -24 -24 -24 -24 -24 -24 -25 -25 -25 -25
-24 -24 -24 -24 -24 -24 -24 -24 -24 -24 -24 -24 -24 -24 -24 -25 -25 -25 -25 -25 -25 -25 -25 -25 -25 -25 -25 -26 -26 -26 -26 -26 -26 -26 -26 -27 -27 -27 -26 -26 -26 -26 -26 -26
-24 -24 -24 -24 -24 -24 -24 -25 -25 -25 -25 -25 -25 -25 -25 -26 -26 -26 -26 -26 -26 -26 -27 -27 -27 -27 -27 -27 -27 -27 -27 -27 -27 -27 -27 -27 -27 -27 -26 -26 -26 -26 -26 -26
-24 -25 -25 -25 -25 -26 -26 -25 -25 -26 -26 -26 -26 -26 -26 -26 -27 -27 -27 -27 -27 -28 -28 -28 -28 -28 -28 -28 -28 -28 -28 -27 -27 -27 -27 -27 -27 -27 -27 -27 -27 -27 -28 -28
-26 -26 -26 -26 -26 -26 -26 -26 -26 -27 -27 -27 -27 -28 -28 -28 -28 -28 -28 -28 -28 -29 -29 -29 -29 -29 -29 -29 -29 -29 -28 -28 -28 -28 -28 -29 -29 -29 -30 -30 -31 -32 -32 -32
-26 -26 -27 -27 -27 -27 -27 -27 -27 -28 -28 -28 -29 -29 -29 -30 -30 -30 -30 -30 -30 -30 -30 -30 -30 -30 -30 -30 -30 -31 -31 -31 -31 -32 -32 -33 -33 -33 -33 -33 -33 -33 -33 -33
-27 -27 -27 -27 -27 -27 -28 -28 -29 -30 -30 -30 -31 -31 -31 -32 -32 -32 -32 -32 -32 -32 -32 -32 -32 -32 -32 -33 -33 -33 -33 -33 -33 -33 -33 -33 -33 -33 -33 -33 -33 -33 -33 -33

GFSNGP_500_temp_075.txt.gz
Temp
-19 -18 -17 -17 -18 -17 -17 -16 -16 -15 -15 -14 -14 -14 -14 -14 -15 -15 -15 -14 -13 -14 -13 -13 -13 -13 -14 -14 -14 -15 -15 -15 -15 -15 -15 -15 -15 -15 -15 -15 -15 -15 -15 -15
-19 -18 -18 -17 -17 -17 -17 -16 -16 -15 -15 -14 -15 -15 -14 -15 -15 -15 -14 -15 -15 -15 -14 -13 -14 -14 -14 -14 -14 -14 -14 -15 -15 -15 -15 -15 -15 -15 -15 -15 -16 -16 -16 -15
-19 -19 -18 -17 -17 -17 -16 -16 -16 -16 -15 -15 -15 -15 -15 -15 -15 -15 -15 -15 -15 -16 -16 -15 -14 -14 -14 -15 -15 -15 -15 -15 -15 -15 -15 -15 -15 -15 -15 -16 -16 -16 -16 -16
-19 -19 -18 -18 -17 -17 -16 -16 -16 -16 -16 -16 -16 -15 -15 -15 -16 -15 -15 -15 -15 -16 -15 -16 -16 -15 -15 -14 -15 -15 -15 -15 -14 -14 -15 -15 -15 -15 -15 -15 -16 -16 -16 -16
-20 -20 -19 -18 -18 -17 -17 -17 -16 -16 -16 -16 -16 -16 -16 -16 -15 -14 -14 -15 -16 -15 -15 -16 -16 -16 -16 -15 -15 -15 -15 -15 -15 -15 -15 -15 -15 -15 -15 -15 -15 -16 -16 -16
-21 -20 -19 -19 -18 -18 -17 -17 -17 -17 -16 -16 -16 -16 -16 -16 -15 -15 -16 -16 -16 -16 -16 -16 -16 -16 -16 -16 -16 -15 -15 -15 -15 -15 -15 -15 -15 -15 -15 -15 -15 -15 -15 -16
-21 -20 -20 -19 -18 -18 -18 -17 -17 -17 -17 -17 -16 -16 -17 -17 -16 -17 -17 -17 -17 -18 -17 -17 -17 -17 -17 -17 -17 -17 -16 -16 -16 -16 -15 -16 -16 -16 -16 -15 -15 -16 -16 -15
-21 -20 -20 -19 -18 -18 -18 -17 -17 -18 -18 -17 -17 -17 -17 -17 -17 -17 -17 -17 -17 -18 -18 -18 -17 -17 -17 -17 -17 -17 -17 -17 -17 -16 -16 -16 -15 -15 -15 -16 -16 -16 -16 -16
-21 -22 -20 -20 -19 -19 -18 -18 -19 -18 -18 -18 -18 -18 -18 -18 -17 -17 -17 -17 -17 -17 -18 -17 -17 -17 -17 -17 -17 -17 -17 -17 -16 -16 -16 -15 -15 -15 -16 -16 -16 -16 -16 -16
-22 -21 -20 -20 -19 -19 -20 -19 -18 -18 -18 -19 -18 -18 -18 -18 -18 -18 -18 -18 -18 -18 -18 -18 -17 -17 -17 -17 -17 -17 -17 -17 -17 -17 -16 -16 -16 -16 -16 -16 -16 -16 -16 -16
-21 -21 -19 -20 -20 -20 -19 -19 -20 -20 -19 -19 -19 -19 -19 -18 -18 -18 -18 -18 -18 -18 -19 -19 -19 -19 -19 -18 -18 -18 -18 -18 -17 -17 -17 -17 -17 -18 -17 -17 -17 -17 -17 -17
-21 -21 -20 -20 -21 -21 -20 -20 -20 -20 -20 -20 -20 -19 -19 -19 -19 -19 -19 -19 -20 -20 -20 -20 -20 -20 -19 -19 -19 -19 -19 -18 -18 -18 -18 -18 -18 -17 -17 -18 -18 -18 -18 -18
-21 -22 -21 -21 -22 -22 -21 -21 -21 -21 -21 -21 -20 -20 -20 -20 -20 -20 -20 -20 -20 -20 -20 -20 -20 -20 -20 -20 -20 -19 -19 -19 -19 -19 -19 -19 -18 -18 -18 -18 -18 -18 -18 -18
-22 -22 -22 -21 -21 -22 -22 -21 -21 -21 -21 -21 -21 -21 -21 -21 -21 -21 -21 -20 -20 -20 -20 -20 -20 -20 -20 -20 -20 -20 -20 -20 -20 -20 -20 -20 -20 -20 -19 -19 -19 -20 -20 -20
-22 -22 -22 -22 -22 -22 -22 -21 -22 -21 -21 -21 -21 -21 -21 -21 -21 -21 -20 -20 -20 -20 -20 -20 -20 -20 -20 -20 -20 -20 -20 -20 -20 -20 -20 -20 -20 -20 -20 -20 -20 -20 -20 -20
-23 -23 -22 -22 -22 -22 -22 -22 -22 -22 -22 -21 -21 -21 -21 -21 -21 -21 -21 -20 -20 -20 -20 -20 -20 -20 -20 -20 -20 -20 -21 -21 -21 -21 -21 -21 -22 -22 -22 -22 -21 -21 -21 -21
-23 -23 -22 -22 -22 -22 -22 -22 -22 -22 -22 -22 -22 -21 -21 -21 -21 -21 -21 -21 -21 -21 -21 -22 -22 -22 -23 -23 -23 -24 -24 -23 -23 -23 -23 -23 -23 -23 -23 -22 -22 -22 -22 -22
-23 -22 -22 -22 -22 -22 -22 -22 -22 -22 -22 -22 -22 -22 -22 -22 -22 -22 -23 -23 -23 -23 -23 -23 -23 -24 -24 -24 -24 -24 -24 -24 -24 -24 -24 -24 -24 -23 -23 -23 -23 -23 -23 -23
-23 -23 -23 -23 -23 -23 -23 -23 -23 -23 -23 -23 -23 -23 -23 -23 -23 -24 -24 -23 -23 -23 -23 -24 -24 -24 -24 -24 -24 -24 -24 -24 -24 -24 -24 -24 -24 -24 -24 -23 -23 -23 -23 -23
-23 -23 -23 -23 -24 -24 -24 -24 -24 -24 -24 -24 -24 -24 -24 -24 -24 -24 -24 -24 -24 -24 -24 -24 -24 -24 -24 -24 -24 -25 -25 -24 -24 -24 -24 -24 -25 -24 -24 -24 -24 -24 -24 -24
-24 -24 -24 -24 -24 -24 -24 -24 -24 -24 -24 -24 -23 -23 -24 -24 -24 -24 -24 -24 -24 -24 -24 -25 -25 -25 -25 -25 -25 -25 -25 -25 -25 -25 -25 -25 -25 -25 -25 -25 -25 -25 -25 -26
-24 -24 -24 -24 -24 -24 -24 -24 -24 -24 -24 -24 -24 -24 -24 -25 -25 -25 -25 -25 -25 -25 -25 -26 -26 -26 -26 -27 -27 -27 -27 -27 -27 -27 -27 -27 -27 -27 -27 -27 -27 -26 -26 -26
-24 -24 -24 -24 -24 -24 -24 -24 -25 -25 -25 -25 -25 -26 -26 -26 -26 -26 -26 -26 -26 -26 -26 -27 -27 -27 -28 -28 -28 -28 -28 -28 -28 -28 -28 -28 -28 -28 -27 -27 -27 -27 -27 -27
-25 -25 -25 -25 -25 -25 -25 -26 -26 -26 -26 -26 -26 -26 -26 -27 -27 -27 -27 -27 -28 -28 -28 -28 -28 -29 -29 -29 -29 -29 -29 -29 -29 -29 -29 -29 -28 -28 -28 -28 -28 -29 -29 -30
-26 -26 -26 -27 -27 -26 -26 -26 -27 -27 -27 -27 -27 -27 -27 -27 -28 -28 -28 -29 -29 -30 -30 -30 -30 -30 -30 -30 -30 -30 -30 -30 -30 -30 -30 -30 -31 -31 -31 -32 -32 -32 -33 -33
-27 -27 -27 -27 -27 -27 -27 -27 -27 -27 -28 -28 -29 -29 -29 -29 -30 -30 -31 -31 -31 -32 -32 -32 -32 -32 -32 -32 -32 -32 -32 -32 -32 -33 -33 -33 -33 -33 -33 -33 -33 -33 -33 -33
-27 -27 -28 -28 -28 -28 -28 -28 -28 -29 -29 -29 -30 -31 -32 -32 -32 -32 -32 -32 -33 -33 -33 -33 -33 -33 -33 -33 -33 -34 -34 -34 -34 -34 -34 -33 -33 -33 -33 -33 -33 -33 -33 -33

GFSNGP_500_temp_078.txt.gz
Temp
-18 -19 -19 -18 -18 -18 -18 -18 -16 -16 -15 -14 -14 -14 -14 -14 -15 -13 -14 -14 -13 -13 -14 -14 -14 -14 -13 -13 -13 -13 -14 -14 -14 -15 -15 -15 -15 -15 -15 -16 -16 -16 -16 -16
-19 -19 -19 -18 -18 -18 -17 -17 -16 -16 -15 -15 -15 -15 -14 -15 -15 -13 -14 -14 -13 -13 -14 -14 -14 -14 -14 -14 -14 -15 -15 -15 -14 -14 -14 -14 -15 -15 -15 -16 -16 -16 -16 -16
-19 -19 -19 -18 -18 -18 -17 -16 -16 -15 -16 -15 -15 -15 -15 -15 -15 -15 -15 -14 -14 -15 -14 -14 -14 -14 -15 -15 -15 -15 -15 -15 -15 -15 -15 -15 -15 -15 -15 -15 -15 -15 -15 -16
-19 -20 -19 -18 -18 -17 -17 -16 -16 -16 -16 -16 -15 -15 -15 -14 -15 -15 -15 -14 -15 -15 -15 -15 -15 -15 -15 -15 -15 -15 -15 -15 -15 -15 -15 -15 -16 -15 -15 -15 -15 -15 -15 -16
-21 -20 -19 -19 -18 -18 -17 -16 -17 -16 -16 -16 -16 -15 -15 -15 -15 -15 -15 -15 -15 -15 -15 -16 -15 -15 -15 -15 -15 -15 -15 -15 -15 -16 -16 -15 -15 -15 -15 -15 -15 -15 -15 -15
-21 -20 -20 -19 -18 -18 -18 -17 -17 -16 -16 -16 -16 -16 -16 -15 -15 -15 -15 -15 -16 -16 -16 -16 -16 -16 -16 -16 -15 -15 -15 -16 -15 -15 -16 -16 -16 -16 -16 -16 -16 -16 -16 -16
-22 -21 -20 -19 -19 -18 -18 -17 -17 -17 -16 -16 -16 -16 -16 -16 -16 -16 -16 -16 -16 -16 -16 -16 -16 -16 -16 -16 -16 -16 -17 -16 -16 -15 -15 -15 -16 -16 -16 -16 -16 -16 -16 -16
-22 -21 -20 -19 -19 -18 -18 -18 -18 -17 -17 -17 -17 -16 -17 -16 -16 -16 -16 -16 -17 -17 -17 -17 -17 -17 -17 -17 -17 -17 -17 -17 -17 -16 -16 -16 -16 -16 -16 -16 -16 -16 -16 -16
-23 -22 -21 -20 -19 -19 -19 -18 -18 -18 -17 -18 -17 -17 -16 -16 -17 -17 -17 -17 -17 -17 -17 -17 -17 -17 -17 -18 -17 -17 -17 -17 -17 -17 -17 -17 -17 -16 -16 -16 -16 -16 -16 -16
-22 -22 -21 -20 -20 -20 -20 -19 -19 -18 -18 -18 -18 -18 -17 -17 -17 -17 -17 -17 -17 -18 -18 -18 -18 -17 -17 -17 -17 -17 -17 -17 -16 -16 -17 -17 -17 -17 -17 -17 -17 -17 -17 -16
-22 -21 -21 -21 -21 -20 -20 -20 -19 -19 -19 -19 -19 -18 -18 -18 -18 -18 -18 -18 -18 -18 -18 -18 -18 -18 -17 -17 -17 -17 -17 -17 -18 -18 -18 -18 -18 -18 -18 -18 -18 -18 -17 -17
-22 -22 -21 -21 -21 -20 -20 -20 -20 -20 -20 -19 -19 -18 -18 -18 -18 -18 -18 -18 -18 -18 -18 -18 -18 -18 -18 -18 -19 -19 -19 -19 -19 -19 -19 -19 -19 -19 -18 -18 -18 -18 -18 -18
-22 -22 -22 -21 -21 -21 -21 -21 -21 -21 -21 -21 -21 -21 -21 -21 -21 -20 -20 -20 -19 -19 -19 -19 -20 -20 -20 -20 -20 -20 -20 -20 -19 -19 -19 -19 -19 -19 -19 -19 -19 -19 -19 -19
-22 -22 -22 -22 -22 -22 -22 -22 -22 -21 -21 -21 -21 -21 -21 -21 -21 -21 -21 -20 -20 -20 -20 -20 -20 -20 -20 -20 -20 -20 -20 -20 -20 -20 -20 -20 -20 -20 -20 -19 -19 -19 -19 -19
-23 -23 -23 -22 -22 -22 -22 -22 -22 -22 -22 -21 -21 -21 -21 -21 -21 -21 -21 -21 -21 -21 -20 -20 -20 -20 -20 -20 -20 -20 -20 -20 -20 -20 -20 -20 -20 -20 -20 -20 -20 -20 -21 -21
-23 -23 -23 -23 -22 -22 -22 -22 -22 -22 -22 -21 -21 -21 -21 -21 -21 -21 -21 -21 -21 -20 -20 -20 -20 -20 -20 -20 -20 -20 -20 -20 -20 -21 -21 -22 -22 -23 -23 -23 -23 -23 -23 -24
-23 -22 -22 -22 -22 -22 -22 -22 -22 -22 -22 -22 -21 -21 -21 -21 -21 -21 -21 -21 -21 -21 -21 -21 -21 -21 -21 -21 -21 -22 -22 -23 -23 -24 -24 -24 -24 -24 -24 -24 -24 -24 -24 -24
-22 -22 -22 -22 -22 -22 -22 -22 -22 -22 -22 -22 -22 -22 -22 -22 -22 -22 -22 -22 -22 -22 -22 -22 -23 -23 -23 -23 -23 -23 -23 -23 -23 -24 -24 -24 -24 -24 -24 -24 -24 -24 -24 -24
-23 -23 -23 -23 -23 -23 -23 -22 -22 -22 -23 -23 -23 -23 -23 -23 -23 -23 -23 -23 -23 -23 -24 -24 -23 -23 -23 -23 -23 -23 -23 -24 -24 -24 -24 -24 -24 -24 -25 -25 -25 -25 -25 -25
-24 -24 -23 -23 -23 -23 -23 -23 -23 -23 -23 -23 -23 -23 -24 -24 -24 -24 -24 -24 -24 -24 -23 -23 -23 -23 -24 -24 -24 -24 -24 -24 -25 -25 -25 -25 -25 -25 -26 -25 -25 -25 -25 -25
-24 -24 -24 -24 -24 -24 -24 -24 -24 -24 -24 -24 -24 -24 -24 -24 -24 -24 -24 -24 -24 -24 -24 -24 -24 -24 -24 -24 -25 -25 -25 -25 -25 -26 -26 -26 -26 -27 -26 -26 -27 -27 -27 -27
-25 -24 -24 -24 -24 -24 -24 -24 -24 -24 -24 -24 -24 -25 -25 -25 -25 -25 -25 -25 -25 -25 -25 -26 -26 -26 -26 -26 -26 -26 -26 -27 -27 -27 -28 -28 -28 -28 -28 -28 -29 -29 -28 -28
-25 -25 -25 -25 -25 -25 -25 -25 -25 -25 -25 -25 -25 -26 -26 -26 -26 -26 -26 -26 -26 -26 -26 -27 -27 -27 -27 -28 -28 -28 -28 -28 -29 -29 -29 -29 -30 -29 -29 -29 -29 -29 -29 -29
-25 -25 -25 -25 -25 -26 -26 -26 -27 -26 -27 -27 -27 -27 -27 -27 -27 -27 -27 -27 -27 -27 -27 -28 -28 -29 -29 -29 -29 -30 -30 -30 -30 -30 -30 -30 -30 -30 -30 -30 -30 -31 -31 -31
-26 -26 -26 -26 -26 -27 -27 -27 -27 -27 -27 -27 -27 -27 -27 -28 -28 -28 -28 -29 -29 -29 -30 -30 -30 -31 -31 -31 -32 -32 -32 -32 -32 -32 -32 -32 -32 -32 -32 -33 -33 -33 -33 -33
-27 -27 -27 -27 -27 -28 -28 -28 -28 -28 -28 -29 -29 -29 -29 -29 -30 -30 -30 -31 -31 -31 -32 -32 -32 -32 -33 -33 -33 -33 -33 -33 -33 -33 -34 -34 -34 -34 -34 -34 -34 -33 -33 -33
-28 -28 -28 -28 -29 -29 -29 -29 -29 -29 -29 -30 -30 -31 -31 -32 -33 -33 -33 -33 -33 -33 -33 -33 -33 -34 -34 -34 -34 -34 -35 -35 -35 -35 -35 -34 -34 -34 -34 -34 -34 -33 -33 -33

GFSNGP_500_temp_084.txt.gz
Temp
-21 -21 -20 -20 -20 -19 -18 -19 -18 -18 -17 -17 -17 -16 -16 -15 -15 -15 -15 -15 -15 -15 -15 -14 -14 -14 -14 -14 -15 -14 -15 -15 -15 -15 -15 -15 -15 -15 -15 -15 -15 -15 -15 -15
-21 -21 -20 -20 -20 -20 -19 -19 -18 -18 -18 -18 -16 -17 -16 -15 -15 -15 -15 -15 -15 -15 -14 -14 -15 -14 -15 -15 -15 -15 -15 -15 -15 -16 -15 -15 -16 -16 -16 -16 -16 -16 -16 -16
-21 -21 -20 -19 -20 -19 -19 -19 -19 -18 -19 -18 -17 -16 -15 -15 -15 -15 -15 -15 -15 -15 -15 -15 -15 -14 -14 -14 -14 -15 -15 -15 -15 -15 -15 -16 -16 -16 -16 -16 -16 -16 -16 -16
-21 -21 -21 -20 -20 -19 -19 -19 -19 -18 -18 -18 -17 -17 -16 -15 -15 -14 -15 -15 -15 -15 -15 -15 -14 -14 -14 -14 -15 -15 -15 -15 -15 -15 -15 -15 -15 -15 -15 -15 -16 -16 -15 -16
-22 -21 -20 -20 -19 -19 -18 -19 -18 -18 -18 -17 -18 -17 -16 -16 -16 -15 -15 -15 -15 -15 -14 -14 -14 -15 -15 -15 -15 -15 -15 -16 -16 -16 -16 -16 -16 -16 -16 -16 -16 -16 -16 -16
-22 -21 -20 -20 -20 -19 -19 -19 -18 -17 -17 -17 -17 -17 -16 -16 -15 -15 -15 -15 -15 -15 -15 -15 -15 -15 -15 -15 -15 -15 -16 -16 -16 -16 -16 -16 -15 -16 -16 -16 -16 -16 -16 -16
-22 -21 -20 -20 -20 -20 -19 -18 -18 -17 -17 -17 -17 -17 -17 -16 -16 -15 -15 -15 -15 -15 -15 -15 -15 -15 -15 -15 -16 -16 -16 -16 -16 -16 -15 -15 -16 -16 -16 -16 -16 -16 -16 -16
-21 -20 -20 -20 -20 -20 -20 -20 -18 -18 -18 -17 -17 -17 -17 -17 -16 -16 -16 -15 -15 -15 -15 -15 -15 -15 -15 -16 -16 -16 -16 -16 -16 -15 -15 -15 -16 -16 -16 -16 -16 -16 -17 -17
-22 -21 -21 -21 -20 -20 -20 -20 -20 -19 -18 -18 -18 -17 -17 -17 -16 -16 -16 -16 -16 -15 -15 -15 -15 -15 -16 -16 -16 -16 -16 -16 -16 -16 -17 -17 -17 -17 -17 -17 -17 -17 -17 -17
-23 -23 -23 -21 -20 -20 -21 -20 -20 -20 -20 -19 -18 -18 -18 -17 -17 -16 -16 -16 -16 -16 -16 -16 -16 -16 -16 -17 -17 -17 -17 -17 -17 -17 -17 -17 -17 -17 -17 -17 -17 -17 -17 -16
-23 -24 -24 -22 -21 -21 -21 -21 -21 -20 -20 -19 -19 -19 -18 -18 -17 -17 -17 -17 -16 -16 -16 -17 -17 -17 -17 -17 -17 -17 -18 -18 -18 -18 -18 -18 -18 -18 -18 -18 -18 -18 -18 -18
-23 -23 -23 -22 -22 -21 -21 -21 -21 -21 -20 -20 -20 -19 -19 -19 -18 -18 -18 -18 -17 -17 -17 -17 -17 -17 -17 -18 -18 -18 -18 -18 -18 -18 -18 -18 -19 -19 -19 -19 -19 -19 -19 -19
-23 -23 -23 -23 -23 -22 -22 -21 -21 -21 -21 -21 -20 -20 -19 -19 -19 -19 -19 -19 -19 -19 -19 -18 -18 -18 -18 -18 -18 -19 -19 -19 -19 -19 -19 -19 -19 -19 -20 -20 -20 -20 -20 -20
-23 -23 -23 -23 -23 -23 -22 -22 -22 -22 -21 -21 -21 -21 -21 -21 -21 -21 -20 -20 -20 -20 -20 -20 -20 -20 -19 -20 -20 -20 -20 -20 -20 -19 -20 -20 -20 -20 -20 -20 -20 -20 -20 -20
-23 -23 -23 -23 -23 -22 -22 -22 -22 -22 -22 -21 -21 -22 -22 -22 -22 -22 -21 -21 -21 -21 -21 -21 -21 -21 -21 -20 -20 -20 -20 -20 -20 -20 -20 -20 -20 -20 -20 -20 -20 -20 -20 -20
-24 -24 -24 -23 -23 -23 -23 -23 -23 -23 -22 -22 -22 -22 -22 -22 -22 -21 -21 -21 -21 -21 -21 -21 -21 -21 -21 -21 -21 -21 -21 -21 -21 -21 -21 -21 -21 -21 -21 -21 -21 -21 -21 -21
-24 -23 -23 -23 -23 -23 -23 -23 -23 -22 -22 -22 -22 -22 -22 -22 -22 -22 -22 -22 -22 -22 -22 -22 -22 -22 -22 -21 -21 -21 -21 -21 -21 -21 -21 -21 -21 -21 -21 -22 -22 -23 -23 -23
-24 -23 -23 -23 -23 -23 -23 -23 -22 -22 -22 -22 -22 -22 -22 -22 -22 -22 -22 -22 -22 -22 -22 -22 -22 -22 -22 -22 -22 -22 -22 -22 -22 -22 -22 -22 -23 -23 -23 -23 -23 -23 -23 -23
-24 -23 -23 -23 -23 -23 -23 -23 -23 -23 -23 -23 -23 -22 -22 -22 -22 -22 -22 -22 -22 -22 -22 -22 -22 -22 -22 -22 -22 -22 -23 -23 -23 -24 -24 -24 -24 -24 -24 -24 -24 -24 -24 -24
-24 -24 -24 -24 -23 -23 -23 -23 -23 -23 -23 -23 -23 -23 -23 -23 -23 -23 -23 -24 -24 -24 -24 -24 -24 -24 -24 -24 -24 -24 -24 -24 -24 -24 -24 -24 -24 -25 -25 -25 -25 -25 -25 -25
-24 -24 -24 -24 -23 -24 -24 -24 -24 -24 -24 -24 -24 -24 -24 -24 -24 -24 -24 -24 -25 -25 -25 -25 -25 -25 -25 -25 -25 -25 -25 -25 -25 -25 -25 -25 -25 -25 -25 -25 -26 -26 -26 -26
-24 -24 -24 -24 -24 -24 -24 -24 -24 -24 -25 -25 -25 -25 -25 -25 -25 -25 -25 -25 -25 -25 -25 -26 -26 -26 -26 -26 -26 -26 -26 -26 -26 -26 -26 -26 -27 -27 -27 -27 -27 -27 -28 -28
-24 -24 -24 -24 -24 -25 -25 -25 -25 -25 -25 -25 -25 -25 -25 -26 -26 -26 -26 -26 -26 -26 -26 -26 -26 -26 -27 -27 -27 -27 -27 -27 -27 -28 -28 -28 -28 -28 -29 -29 -30 -30 -30 -31
-24 -25 -25 -25 -25 -25 -25 -25 -26 -26 -26 -26 -26 -27 -27 -27 -27 -27 -27 -27 -28 -28 -28 -28 -28 -28 -28 -29 -29 -29 -29 -29 -29 -30 -30 -30 -31 -31 -32 -32 -32 -32 -32 -33
-25 -25 -25 -25 -26 -26 -27 -27 -27 -27 -28 -28 -28 -28 -28 -28 -29 -29 -29 -29 -29 -29 -29 -29 -30 -30 -30 -30 -31 -31 -32 -32 -32 -33 -33 -33 -33 -33 -33 -34 -34 -34 -34 -34
-25 -26 -26 -27 -27 -27 -28 -28 -28 -29 -29 -29 -29 -29 -29 -30 -30 -30 -30 -31 -31 -32 -32 -32 -33 -33 -33 -33 -34 -34 -34 -34 -34 -34 -34 -35 -35 -35 -36 -36 -36 -36 -35 -35
-27 -27 -27 -28 -28 -28 -29 -29 -29 -30 -30 -30 -30 -30 -31 -32 -32 -33 -33 -33 -33 -34 -34 -34 -34 -34 -34 -34 -34 -35 -35 -35 -35 -36 -36 -36 -37 -37 -37 -37 -36 -36 -36 -36

GFSNGP_500_temp_087.txt.gz
Temp
-22 -22 -21 -21 -21 -20 -19 -19 -18 -18 -18 -18 -17 -17 -16 -16 -16 -15 -15 -15 -15 -15 -15 -15 -15 -15 -14 -14 -14 -15 -15 -15 -15 -15 -15 -15 -15 -15 -15 -15 -15 -15 -15 -15
-22 -22 -21 -21 -21 -20 -20 -19 -18 -18 -18 -17 -18 -18 -17 -16 -16 -16 -15 -15 -15 -15 -15 -15 -15 -15 -15 -15 -15 -15 -15 -15 -15 -15 -15 -15 -15 -15 -15 -15 -15 -15 -15 -15
-23 -23 -22 -21 -21 -20 -20 -19 -19 -18 -18 -18 -18 -18 -17 -17 -16 -16 -15 -16 -15 -15 -15 -15 -15 -15 -15 -15 -15 -15 -15 -15 -15 -15 -15 -15 -15 -15 -15 -15 -15 -15 -15 -15
-23 -22 -22 -21 -21 -20 -20 -19 -19 -18 -18 -18 -18 -18 -17 -17 -16 -15 -15 -15 -15 -15 -15 -15 -15 -15 -15 -14 -14 -14 -14 -14 -15 -15 -15 -15 -15 -15 -15 -15 -15 -15 -15 -15
-22 -22 -21 -22 -21 -20 -19 -20 -19 -18 -17 -17 -17 -18 -17 -17 -16 -16 -15 -15 -15 -15 -15 -15 -15 -15 -15 -15 -14 -14 -14 -15 -15 -15 -16 -15 -15 -15 -15 -16 -16 -16 -15 -15
-22 -22 -21 -22 -21 -20 -19 -19 -19 -17 -17 -17 -18 -17 -17 -17 -16 -15 -15 -15 -15 -15 -15 -15 -15 -15 -14 -14 -14 -15 -15 -15 -15 -15 -15 -15 -15 -16 -15 -15 -15 -15 -15 -16
-22 -22 -22 -22 -21 -20 -20 -19 -19 -18 -18 -18 -17 -17 -17 -17 -16 -16 -16 -15 -14 -15 -15 -15 -15 -15 -15 -14 -15 -15 -15 -15 -15 -16 -16 -16 -16 -16 -15 -15 -15 -16 -16 -16
-23 -22 -22 -22 -21 -20 -20 -20 -19 -18 -18 -18 -18 -18 -18 -17 -17 -17 -16 -16 -15 -15 -15 -15 -15 -15 -14 -14 -15 -15 -15 -15 -16 -16 -16 -16 -16 -16 -16 -16 -15 -15 -16 -16
-23 -23 -23 -21 -21 -21 -21 -20 -20 -20 -20 -19 -18 -18 -18 -18 -17 -17 -16 -16 -16 -16 -15 -15 -15 -15 -15 -15 -14 -15 -15 -15 -16 -16 -16 -16 -16 -16 -16 -16 -16 -16 -16 -17
-23 -23 -23 -21 -21 -21 -21 -21 -21 -21 -20 -20 -19 -19 -18 -17 -17 -17 -17 -16 -16 -16 -16 -16 -16 -15 -15 -15 -15 -15 -15 -16 -16 -16 -16 -16 -17 -17 -16 -16 -17 -17 -17 -17
-23 -23 -23 -23 -22 -21 -21 -21 -21 -21 -21 -20 -20 -20 -19 -19 -18 -18 -17 -17 -17 -17 -16 -16 -16 -16 -16 -16 -16 -16 -16 -16 -16 -16 -17 -17 -17 -17 -17 -17 -17 -17 -18 -18
-23 -24 -24 -23 -23 -22 -21 -21 -21 -21 -21 -20 -20 -20 -20 -19 -19 -19 -18 -18 -18 -18 -17 -17 -17 -17 -16 -16 -17 -17 -17 -17 -17 -17 -18 -18 -18 -18 -18 -18 -18 -18 -18 -18
-23 -23 -23 -24 -23 -23 -22 -22 -22 -22 -21 -21 -21 -21 -20 -20 -19 -19 -19 -19 -19 -19 -18 -18 -18 -18 -18 -18 -18 -18 -18 -18 -18 -18 -18 -18 -18 -18 -19 -19 -19 -19 -19 -19
-23 -23 -23 -23 -23 -23 -23 -22 -22 -22 -22 -22 -21 -21 -21 -21 -20 -20 -20 -20 -20 -20 -20 -20 -20 -19 -19 -19 -19 -19 -19 -19 -19 -19 -19 -19 -19 -20 -20 -20 -20 -20 -21 -21
-24 -24 -24 -23 -23 -23 -23 -22 -22 -22 -22 -22 -22 -22 -21 -21 -21 -21 -22 -22 -22 -22 -22 -21 -21 -21 -21 -21 -21 -20 -20 -20 -20 -20 -20 -20 -20 -20 -20 -20 -21 -21 -21 -21
-24 -24 -24 -23 -23 -23 -23 -23 -23 -23 -22 -22 -22 -22 -22 -22 -22 -22 -22 -22 -22 -21 -21 -21 -21 -21 -21 -21 -21 -21 -21 -21 -21 -21 -21 -21 -21 -21 -21 -21 -21 -21 -21 -21
-24 -24 -23 -23 -23 -23 -23 -23 -22 -22 -22 -22 -22 -22 -22 -22 -22 -22 -22 -22 -22 -22 -22 -22 -22 -22 -22 -22 -22 -22 -22 -21 -21 -21 -22 -21 -21 -21 -21 -21 -21 -21 -21 -21
-24 -23 -23 -23 -23 -23 -23 -23 -23 -23 -23 -23 -23 -22 -22 -22 -22 -22 -22 -22 -22 -22 -22 -22 -22 -22 -22 -22 -22 -22 -22 -22 -22 -22 -22 -22 -22 -22 -22 -22 -22 -23 -23 -23
-24 -24 -24 -23 -23 -23 -23 -23 -23 -23 -23 -23 -23 -23 -23 -23 -23 -23 -23 -23 -23 -23 -23 -23 -23 -23 -23 -23 -23 -23 -23 -23 -23 -23 -24 -24 -24 -24 -24 -24 -24 -24 -24 -24
-24 -23 -23 -23 -23 -23 -23 -23 -23 -23 -23 -24 -24 -24 -24 -24 -24 -24 -24 -24 -24 -24 -24 -24 -24 -24 -24 -24 -24 -24 -24 -24 -24 -24 -24 -24 -25 -25 -25 -25 -25 -25 -25 -25
-24 -25 -25 -24 -24 -24 -24 -24 -24 -24 -24 -24 -24 -24 -25 -25 -25 -25 -25 -25 -25 -25 -25 -25 -26 -26 -26 -26 -26 -26 -26 -26 -26 -26 -25 -25 -25 -26 -26 -26 -26 -26 -26 -26
-25 -24 -24 -24 -24 -25 -25 -25 -25 -25 -25 -25 -25 -25 -25 -25 -25 -25 -25 -25 -25 -26 -26 -26 -26 -26 -26 -26 -26 -26 -26 -26 -26 -27 -27 -27 -27 -27 -27 -27 -27 -28 -28 -28
-25 -25 -25 -25 -25 -25 -25 -25 -25 -25 -25 -25 -25 -25 -26 -26 -26 -26 -27 -27 -27 -27 -27 -27 -27 -27 -27 -27 -27 -28 -28 -28 -28 -28 -28 -29 -29 -29 -29 -29 -29 -30 -30 -30
-24 -25 -25 -25 -25 -25 -25 -25 -25 -25 -25 -26 -26 -26 -27 -27 -28 -28 -28 -28 -28 -28 -28 -28 -28 -29 -29 -29 -29 -29 -29 -29 -29 -30 -30 -30 -31 -31 -32 -32 -32 -32 -33 -33
-25 -25 -25 -25 -25 -26 -26 -26 -27 -27 -28 -28 -28 -28 -29 -29 -29 -29 -29 -29 -29 -30 -30 -30 -30 -30 -30 -31 -31 -31 -32 -32 -32 -33 -33 -33 -33 -34 -34 -34 -34 -34 -35 -35
-25 -26 -26 -26 -27 -27 -28 -28 -29 -29 -29 -29 -30 -30 -30 -30 -30 -30 -31 -31 -31 -32 -32 -32 -33 -33 -33 -33 -33 -34 -34 -34 -34 -34 -34 -34 -35 -35 -35 -35 -36 -36 -36 -36
-27 -27 -27 -28 -28 -29 -29 -29 -30 -30 -30 -30 -30 -31 -31 -32 -33 -33 -33 -33 -33 -34 -34 -34 -34 -34 -34 -35 -35 -35 -35 -35 -35 -35 -35 -35 -35 -35 -36 -36 -36 -37 -37 -37

GFSNGP_500_temp_093.txt.gz
Temp
-21 -20 -21 -21 -21 -21 -21 -21 -20 -20 -19 -19 -18 -18 -17 -17 -16 -16 -16 -16 -16 -16 -16 -16 -16 -16 -15 -15 -15 -16 -15 -15 -15 -15 -15 -15 -15 -15 -15 -14 -14 -14 -14 -14
-21 -22 -22 -22 -22 -21 -21 -20 -20 -20 -20 -18 -18 -18 -17 -17 -17 -17 -17 -16 -16 -16 -16 -16 -16 -15 -15 -15 -15 -15 -16 -15 -15 -15 -15 -15 -15 -15 -15 -15 -14 -14 -14 -14
-22 -22 -22 -22 -22 -22 -21 -21 -20 -20 -19 -19 -18 -18 -17 -17 -17 -17 -16 -16 -16 -16 -16 -16 -16 -16 -15 -15 -15 -16 -16 -16 -15 -15 -15 -15 -15 -15 -15 -15 -15 -15 -15 -15
-22 -22 -22 -22 -22 -22 -21 -21 -21 -20 -19 -19 -18 -18 -17 -17 -17 -17 -17 -17 -16 -16 -16 -16 -15 -15 -15 -15 -15 -16 -16 -16 -15 -15 -15 -15 -15 -15 -15 -15 -15 -15 -15 -15
-22 -23 -23 -23 -22 -22 -21 -21 -20 -20 -20 -19 -18 -18 -18 -17 -17 -17 -17 -17 -16 -15 -16 -15 -15 -15 -15 -15 -15 -15 -15 -15 -15 -15 -15 -15 -15 -15 -15 -15 -15 -15 -15 -15
-23 -23 -23 -22 -22 -21 -21 -21 -20 -20 -19 -19 -19 -18 -18 -17 -17 -17 -17 -17 -16 -15 -15 -15 -15 -15 -14 -14 -14 -15 -14 -15 -15 -14 -14 -14 -14 -15 -15 -15 -15 -15 -15 -15
-22 -22 -22 -22 -21 -21 -21 -21 -20 -20 -19 -19 -19 -18 -18 -17 -17 -17 -17 -17 -16 -15 -15 -15 -14 -14 -14 -14 -14 -15 -15 -15 -15 -15 -14 -14 -14 -15 -15 -15 -15 -15 -15 -15
-22 -22 -22 -21 -21 -21 -21 -20 -20 -20 -20 -19 -19 -18 -18 -18 -17 -17 -17 -17 -17 -16 -15 -15 -15 -14 -14 -14 -14 -13 -15 -15 -15 -15 -15 -15 -15 -14 -15 -15 -15 -15 -15 -15
-22 -22 -22 -22 -22 -21 -21 -21 -21 -21 -20 -20 -19 -19 -18 -17 -18 -18 -17 -18 -17 -17 -17 -16 -15 -15 -13 -14 -14 -14 -14 -14 -14 -15 -15 -14 -14 -14 -15 -14 -15 -16 -15 -16
-23 -22 -22 -22 -22 -22 -21 -22 -22 -21 -20 -20 -19 -19 -19 -19 -19 -18 -18 -18 -18 -18 -17 -17 -17 -15 -15 -15 -15 -14 -14 -14 -14 -15 -15 -15 -15 -15 -15 -15 -15 -16 -16 -16
-23 -22 -22 -22 -23 -22 -22 -22 -22 -21 -21 -21 -21 -21 -20 -20 -20 -20 -19 -19 -19 -18 -18 -18 -18 -17 -16 -17 -14 -15 -15 -14 -14 -14 -14 -15 -14 -15 -15 -15 -15 -15 -16 -16
-23 -23 -23 -23 -22 -22 -22 -22 -22 -22 -22 -22 -21 -21 -21 -21 -20 -20 -20 -20 -19 -19 -19 -19 -18 -18 -18 -17 -17 -16 -17 -17 -17 -16 -15 -15 -15 -15 -15 -15 -15 -15 -15 -16
-23 -24 -24 -24 -23 -23 -23 -22 -22 -22 -22 -22 -22 -22 -21 -21 -21 -21 -21 -21 -20 -20 -19 -19 -19 -19 -18 -18 -18 -18 -18 -17 -17 -17 -17 -17 -17 -17 -17 -17 -17 -16 -15 -16
-24 -24 -24 -24 -23 -23 -23 -23 -22 -22 -22 -22 -22 -22 -22 -22 -21 -21 -21 -21 -21 -21 -21 -21 -20 -20 -20 -19 -19 -19 -19 -18 -18 -18 -18 -17 -17 -17 -17 -17 -17 -17 -18 -18
-24 -24 -23 -23 -23 -23 -23 -23 -23 -22 -22 -22 -22 -22 -22 -22 -22 -22 -22 -21 -21 -21 -21 -21 -21 -21 -21 -21 -21 -20 -20 -20 -20 -20 -20 -19 -19 -19 -19 -20 -20 -20 -20 -20
-24 -23 -23 -23 -23 -23 -23 -23 -23 -23 -22 -22 -22 -22 -22 -22 -22 -22 -22 -22 -22 -21 -21 -21 -21 -21 -21 -21 -21 -21 -21 -21 -21 -21 -21 -21 -21 -21 -21 -21 -21 -21 -21 -21
-24 -23 -23 -23 -23 -23 -23 -23 -23 -23 -23 -23 -23 -22 -22 -22 -22 -22 -22 -22 -22 -22 -22 -22 -22 -22 -22 -22 -21 -21 -21 -21 -21 -21 -21 -21 -21 -21 -21 -21 -21 -21 -21 -21
-24 -24 -23 -23 -23 -23 -23 -23 -23 -23 -23 -23 -23 -23 -23 -23 -23 -23 -23 -23 -23 -23 -22 -22 -22 -22 -22 -22 -22 -22 -22 -22 -22 -22 -22 -22 -22 -22 -22 -22 -22 -22 -22 -22
-24 -24 -23 -23 -23 -23 -23 -23 -23 -23 -23 -23 -23 -23 -24 -24 -24 -23 -23 -23 -23 -23 -23 -23 -23 -24 -24 -24 -23 -23 -23 -23 -23 -23 -23 -23 -23 -23 -23 -23 -23 -23 -23 -23
-24 -24 -24 -24 -24 -24 -24 -24 -24 -24 -24 -24 -24 -24 -24 -24 -24 -24 -24 -24 -24 -24 -24 -24 -24 -24 -24 -24 -24 -24 -24 -24 -24 -24 -24 -24 -24 -24 -24 -24 -24 -24 -24 -24
-24 -24 -24 -24 -24 -24 -24 -24 -24 -24 -24 -24 -24 -24 -24 -24 -24 -24 -24 -24 -24 -24 -24 -24 -24 -24 -25 -25 -25 -25 -25 -25 -25 -25 -25 -25 -25 -25 -25 -25 -25 -25 -25 -25
-24 -24 -25 -24 -24 -24 -24 -24 -24 -24 -25 -25 -25 -25 -25 -25 -25 -25 -25 -25 -26 -26 -26 -26 -26 -26 -26 -26 -26 -26 -26 -27 -27 -27 -27 -27 -27 -27 -27 -27 -27 -27 -27 -27
-25 -25 -25 -25 -24 -24 -24 -25 -25 -25 -25 -26 -26 -26 -26 -27 -27 -27 -27 -28 -28 -28 -28 -28 -28 -28 -28 -28 -28 -29 -29 -29 -29 -29 -29 -29 -29 -29 -29 -29 -29 -29 -29 -29
-25 -25 -25 -24 -24 -25 -25 -25 -25 -26 -26 -26 -26 -26 -27 -27 -28 -29 -29 -29 -29 -29 -29 -30 -30 -30 -30 -30 -30 -30 -30 -30 -30 -30 -30 -30 -30 -30 -31 -31 -31 -31 -32 -32
-25 -25 -24 -25 -25 -26 -26 -26 -26 -26 -26 -26 -26 -27 -28 -29 -29 -30 -30 -30 -30 -30 -31 -31 -32 -32 -32 -32 -32 -33 -32 -32 -32 -32 -33 -33 -33 -33 -33 -33 -33 -33 -33 -33
-25 -25 -25 -25 -25 -25 -25 -26 -26 -26 -27 -27 -28 -29 -30 -30 -30 -30 -31 -32 -32 -33 -33 -34 -34 -34 -34 -34 -34 -34 -34 -34 -34 -34 -34 -34 -35 -35 -35 -35 -35 -35 -35 -35
-25 -25 -26 -25 -25 -25 -26 -27 -27 -28 -28 -29 -30 -30 -31 -31 -32 -32 -33 -34 -34 -35 -35 -35 -35 -36 -36 -36 -36 -36 -35 -35 -35 -35 -35 -35 -35 -35 -35 -35 -35 -35 -36 -36

GFSNGP_500_temp_096.txt.gz
Temp
-20 -20 -20 -20 -20 -19 -19 -19 -20 -20 -20 -19 -18 -18 -18 -17 -17 -17 -16 -15 -15 -15 -15 -15 -16 -16 -16 -16 -16 -15 -15 -15 -16 -16 -16 -15 -15 -15 -15 -15 -14 -14 -15 -14
-20 -20 -21 -20 -20 -21 -20 -21 -20 -20 -20 -18 -18 -18 -18 -17 -17 -17 -16 -16 -16 -15 -16 -16 -16 -16 -17 -16 -15 -15 -15 -15 -16 -16 -16 -15 -15 -15 -15 -15 -15 -14 -14 -14
-21 -22 -22 -21 -22 -22 -20 -21 -21 -20 -20 -20 -19 -19 -18 -17 -17 -17 -17 -16 -16 -16 -16 -16 -16 -16 -16 -16 -15 -15 -15 -15 -16 -16 -16 -16 -16 -15 -15 -15 -15 -15 -15 -15
-22 -22 -22 -21 -21 -21 -21 -21 -21 -21 -20 -20 -19 -19 -18 -18 -17 -17 -17 -16 -16 -16 -16 -16 -16 -16 -16 -16 -16 -15 -15 -16 -16 -16 -16 -16 -16 -15 -15 -15 -15 -15 -15 -15
-22 -22 -22 -21 -21 -21 -22 -21 -21 -21 -20 -20 -19 -19 -18 -18 -17 -17 -17 -17 -17 -16 -16 -16 -16 -16 -16 -16 -16 -16 -15 -16 -16 -16 -16 -16 -16 -15 -15 -15 -15 -15 -15 -15
-22 -22 -22 -22 -22 -22 -21 -21 -21 -20 -20 -20 -19 -19 -18 -18 -18 -17 -17 -17 -17 -17 -17 -16 -16 -16 -16 -16 -16 -15 -16 -16 -16 -16 -16 -16 -15 -15 -15 -15 -15 -15 -15 -15
-22 -22 -22 -22 -22 -22 -21 -21 -21 -20 -20 -20 -19 -19 -18 -18 -18 -17 -17 -17 -17 -17 -17 -17 -16 -16 -16 -15 -15 -15 -15 -15 -15 -15 -15 -15 -15 -15 -15 -15 -15 -15 -15 -15
-23 -22 -22 -22 -22 -21 -21 -21 -21 -21 -21 -20 -20 -19 -19 -18 -18 -18 -18 -17 -17 -17 -17 -17 -16 -16 -15 -15 -15 -14 -13 -15 -15 -15 -15 -15 -15 -15 -15 -15 -15 -15 -15 -15
-22 -22 -22 -22 -22 -22 -21 -22 -21 -21 -21 -21 -20 -20 -19 -19 -19 -18 -18 -19 -18 -18 -17 -17 -17 -16 -16 -15 -14 -14 -15 -14 -15 -15 -14 -15 -15 -15 -15 -15 -15 -15 -15 -15
-23 -22 -22 -22 -22 -22 -22 -22 -22 -22 -21 -21 -21 -20 -20 -19 -19 -19 -19 -19 -19 -18 -18 -18 -18 -18 -18 -17 -16 -15 -15 -15 -15 -15 -15 -15 -16 -15 -15 -15 -15 -14 -15 -15
-23 -22 -22 -22 -22 -22 -22 -22 -22 -22 -21 -21 -21 -21 -21 -21 -21 -21 -20 -20 -20 -20 -19 -19 -18 -18 -18 -18 -18 -17 -16 -16 -15 -15 -14 -14 -15 -15 -15 -15 -15 -15 -15 -15
-23 -23 -23 -23 -23 -22 -22 -22 -23 -22 -22 -22 -22 -22 -22 -22 -21 -21 -21 -21 -21 -20 -20 -20 -19 -19 -19 -19 -18 -18 -18 -17 -18 -17 -17 -17 -16 -16 -16 -15 -15 -15 -15 -15
-23 -23 -23 -23 -23 -23 -23 -23 -23 -22 -22 -22 -22 -22 -22 -22 -22 -21 -21 -21 -21 -21 -21 -21 -20 -20 -20 -20 -19 -19 -19 -18 -18 -18 -18 -17 -17 -17 -18 -18 -18 -17 -16 -16
-24 -24 -23 -23 -23 -24 -23 -23 -23 -23 -22 -22 -22 -22 -22 -22 -22 -22 -22 -22 -22 -22 -22 -21 -21 -21 -21 -21 -21 -21 -20 -20 -20 -20 -19 -19 -19 -18 -18 -18 -17 -17 -18 -18
-24 -24 -23 -23 -23 -23 -23 -23 -23 -23 -23 -23 -23 -23 -22 -22 -22 -22 -22 -22 -22 -22 -22 -22 -22 -22 -22 -21 -21 -21 -21 -21 -21 -21 -21 -21 -20 -20 -20 -20 -19 -19 -19 -19
-24 -24 -24 -23 -23 -23 -23 -23 -23 -23 -23 -23 -23 -23 -23 -23 -23 -23 -22 -22 -22 -22 -22 -22 -22 -22 -22 -22 -22 -22 -22 -22 -22 -22 -22 -22 -22 -22 -22 -22 -22 -22 -21 -21
-24 -24 -24 -24 -24 -24 -23 -23 -23 -23 -23 -23 -23 -23 -23 -23 -23 -23 -23 -23 -23 -23 -23 -23 -22 -22 -22 -22 -22 -22 -22 -22 -22 -22 -22 -22 -22 -22 -21 -21 -21 -21 -21 -21
-24 -24 -24 -24 -23 -23 -23 -23 -23 -23 -23 -23 -23 -23 -23 -23 -23 -23 -23 -23 -23 -23 -23 -23 -23 -23 -23 -23 -23 -23 -23 -22 -22 -22 -22 -22 -22 -22 -22 -22 -22 -22 -22 -22
-24 -24 -24 -23 -23 -23 -23 -23 -24 -24 -24 -24 -24 -24 -24 -24 -24 -24 -24 -24 -24 -24 -24 -24 -24 -24 -24 -24 -24 -23 -23 -23 -23 -23 -23 -23 -23 -23 -23 -23 -23 -23 -23 -23
-24 -24 -23 -24 -24 -24 -24 -24 -24 -24 -24 -24 -24 -24 -24 -24 -24 -24 -24 -24 -24 -25 -24 -24 -24 -24 -24 -24 -24 -24 -24 -24 -24 -24 -24 -24 -23 -23 -23 -23 -23 -24 -24 -23
-24 -24 -24 -24 -24 -24 -24 -24 -24 -24 -24 -24 -24 -24 -24 -24 -24 -24 -24 -25 -25 -25 -25 -26 -26 -26 -26 -26 -26 -26 -26 -26 -26 -26 -25 -25 -25 -25 -25 -24 -24 -24 -24 -24
-24 -24 -24 -24 -24 -24 -24 -24 -24 -24 -24 -24 -24 -25 -25 -25 -25 -25 -25 -25 -25 -26 -26 -26 -27 -27 -28 -28 -28 -28 -28 -28 -28 -28 -28 -28 -28 -28 -28 -28 -27 -27 -27 -27
-24 -24 -24 -24 -25 -24 -24 -24 -24 -25 -25 -25 -25 -25 -25 -25 -26 -26 -26 -26 -27 -27 -28 -28 -28 -29 -29 -29 -29 -30 -30 -30 -30 -30 -30 -30 -30 -29 -29 -29 -29 -29 -29 -29
-25 -25 -25 -25 -24 -24 -24 -25 -25 -25 -25 -25 -25 -25 -26 -26 -26 -27 -27 -28 -29 -29 -29 -30 -30 -30 -30 -31 -31 -31 -31 -31 -31 -32 -32 -32 -32 -32 -32 -32 -32 -32 -32 -32
-25 -25 -25 -24 -24 -25 -25 -25 -25 -26 -26 -26 -26 -27 -27 -27 -28 -28 -29 -29 -30 -30 -30 -31 -32 -33 -33 -33 -33 -33 -34 -34 -34 -34 -34 -34 -34 -34 -34 -34 -34 -34 -34 -34
-25 -25 -24 -25 -25 -25 -25 -25 -25 -25 -26 -26 -26 -27 -28 -28 -29 -30 -30 -30 -31 -32 -33 -33 -34 -34 -34 -35 -35 -35 -35 -35 -36 -35 -35 -35 -35 -35 -35 -35 -35 -35 -35 -35
-25 -25 -25 -25 -25 -25 -26 -26 -25 -25 -26 -27 -28 -28 -29 -29 -30 -31 -31 -32 -33 -33 -34 -34 -35 -35 -35 -35 -36 -36 -36 -36 -36 -36 -36 -36 -35 -35 -35 -35 -35 -35 -35 -35

GFSNGP_500_temp_099.txt.gz
Temp
-22 -22 -21 -22 -21 -21 -20 -20 -20 -19 -19 -19 -19 -19 -19 -19 -18 -18 -17 -17 -16 -16 -16 -15 -15 -15 -15 -16 -16 -16 -15 -15 -15 -15 -15 -16 -16 -16 -16 -16 -15 -15 -15 -14
-21 -21 -21 -22 -21 -21 -21 -20 -20 -19 -19 -19 -19 -19 -19 -18 -18 -17 -17 -17 -16 -16 -16 -16 -16 -16 -16 -16 -16 -16 -16 -16 -15 -15 -15 -16 -16 -16 -16 -16 -16 -15 -15 -15
-22 -21 -21 -20 -20 -20 -21 -20 -20 -20 -20 -20 -20 -19 -19 -19 -18 -18 -17 -17 -17 -16 -16 -16 -17 -16 -16 -16 -16 -16 -16 -16 -16 -16 -15 -16 -17 -17 -16 -16 -16 -15 -15 -15
-22 -23 -21 -21 -21 -21 -21 -21 -21 -21 -20 -20 -20 -20 -19 -19 -18 -18 -17 -17 -17 -17 -16 -16 -16 -16 -16 -16 -16 -16 -16 -16 -16 -16 -15 -16 -17 -17 -16 -16 -16 -16 -15 -15
-22 -22 -22 -22 -22 -22 -22 -21 -21 -21 -20 -20 -20 -20 -19 -18 -18 -18 -18 -17 -17 -17 -17 -16 -16 -16 -16 -16 -16 -16 -16 -16 -16 -16 -16 -16 -16 -17 -16 -16 -16 -16 -15 -16
-22 -22 -22 -22 -21 -22 -21 -21 -21 -21 -21 -20 -20 -19 -19 -19 -19 -18 -18 -18 -17 -17 -17 -17 -17 -16 -16 -16 -16 -16 -16 -16 -16 -16 -16 -16 -16 -16 -16 -16 -16 -16 -15 -15
-22 -22 -22 -22 -22 -22 -21 -21 -21 -21 -20 -20 -20 -19 -19 -19 -19 -18 -18 -18 -18 -17 -17 -18 -17 -17 -17 -16 -16 -15 -16 -16 -15 -16 -15 -16 -16 -15 -16 -16 -16 -15 -16 -16
-23 -22 -22 -22 -21 -21 -21 -21 -21 -21 -21 -21 -20 -19 -19 -19 -19 -19 -18 -18 -18 -18 -18 -18 -17 -18 -17 -16 -16 -16 -16 -15 -16 -15 -15 -16 -16 -15 -16 -16 -16 -16 -16 -16
-23 -22 -22 -22 -21 -21 -21 -21 -21 -21 -21 -21 -21 -21 -20 -20 -19 -19 -19 -19 -18 -18 -18 -18 -18 -18 -17 -16 -16 -16 -16 -15 -16 -16 -16 -16 -16 -15 -15 -16 -16 -16 -15 -15
-23 -22 -22 -22 -22 -21 -22 -21 -22 -22 -22 -22 -21 -21 -21 -21 -21 -20 -20 -20 -20 -19 -19 -19 -19 -18 -18 -18 -18 -18 -17 -16 -16 -16 -15 -16 -15 -15 -15 -16 -15 -16 -15 -15
-23 -22 -22 -22 -22 -22 -22 -22 -22 -22 -22 -22 -22 -22 -22 -22 -21 -21 -21 -21 -21 -21 -20 -20 -19 -19 -19 -18 -18 -18 -19 -19 -18 -18 -16 -16 -16 -16 -16 -15 -16 -15 -16 -15
-23 -22 -22 -22 -23 -23 -23 -23 -23 -23 -23 -22 -22 -22 -22 -22 -22 -22 -22 -22 -22 -22 -21 -21 -21 -21 -20 -20 -19 -19 -19 -19 -19 -18 -19 -18 -18 -18 -18 -17 -16 -16 -16 -16
-23 -23 -23 -23 -23 -23 -24 -24 -24 -23 -23 -23 -22 -22 -23 -23 -22 -23 -22 -22 -22 -22 -22 -22 -22 -22 -22 -22 -22 -21 -20 -19 -19 -19 -19 -19 -19 -18 -18 -18 -18 -18 -19 -19
-24 -24 -24 -24 -24 -24 -24 -24 -23 -23 -23 -23 -23 -23 -23 -23 -23 -23 -22 -22 -22 -22 -22 -22 -22 -22 -22 -22 -22 -22 -22 -21 -21 -21 -21 -21 -20 -20 -19 -19 -18 -18 -18 -18
-24 -25 -24 -24 -24 -24 -24 -24 -24 -24 -24 -23 -23 -23 -23 -23 -23 -23 -23 -22 -22 -22 -22 -22 -22 -22 -22 -22 -22 -22 -22 -22 -22 -22 -21 -21 -21 -21 -21 -20 -20 -20 -20 -20
-25 -24 -24 -24 -24 -24 -24 -24 -24 -24 -23 -23 -23 -23 -23 -23 -23 -23 -23 -23 -23 -23 -22 -22 -22 -22 -22 -22 -22 -22 -22 -22 -22 -22 -22 -22 -22 -22 -22 -22 -21 -21 -21 -21
-24 -24 -24 -24 -24 -24 -24 -24 -24 -24 -24 -24 -24 -23 -23 -23 -23 -23 -23 -23 -23 -23 -23 -23 -23 -23 -23 -23 -23 -23 -23 -22 -22 -22 -22 -22 -22 -22 -22 -22 -22 -22 -22 -22
-24 -24 -24 -24 -24 -24 -24 -24 -24 -24 -24 -24 -24 -24 -24 -24 -23 -23 -24 -24 -24 -24 -24 -24 -24 -24 -24 -24 -24 -24 -23 -23 -23 -23 -23 -23 -23 -23 -23 -23 -23 -22 -22 -22
-25 -25 -24 -24 -24 -24 -24 -24 -24 -24 -24 -24 -24 -24 -24 -24 -24 -24 -24 -24 -24 -24 -24 -24 -24 -24 -24 -24 -24 -24 -24 -24 -24 -24 -24 -23 -23 -23 -23 -23 -23 -23 -23 -23
-24 -24 -24 -24 -24 -24 -24 -24 -24 -24 -24 -24 -24 -24 -24 -24 -24 -24 -24 -24 -24 -24 -25 -25 -25 -25 -25 -25 -25 -25 -25 -25 -25 -25 -25 -24 -24 -24 -24 -24 -24 -24 -24 -24
-24 -24 -24 -24 -24 -24 -24 -24 -24 -24 -24 -24 -24 -24 -24 -24 -24 -24 -25 -25 -25 -25 -25 -26 -26 -26 -26 -26 -26 -27 -27 -27 -28 -28 -28 -27 -27 -27 -26 -26 -26 -25 -25 -25
-24 -24 -24 -24 -24 -24 -24 -24 -24 -24 -24 -24 -24 -25 -25 -25 -25 -25 -25 -25 -25 -26 -26 -27 -27 -27 -27 -28 -28 -29 -29 -29 -29 -29 -29 -29 -29 -29 -29 -29 -28 -28 -28 -27
-24 -24 -24 -24 -24 -25 -24 -24 -24 -24 -24 -25 -25 -25 -25 -25 -25 -25 -26 -26 -26 -27 -27 -28 -28 -29 -29 -30 -30 -30 -30 -31 -31 -32 -32 -32 -32 -32 -32 -31 -30 -30 -29 -29
-24 -24 -25 -25 -25 -24 -24 -24 -25 -25 -25 -25 -25 -25 -25 -25 -25 -26 -27 -27 -28 -28 -29 -29 -30 -30 -31 -31 -32 -32 -33 -33 -33 -34 -34 -34 -34 -34 -34 -34 -34 -34 -33 -33
-24 -25 -25 -25 -25 -25 -24 -25 -25 -25 -25 -25 -26 -26 -26 -26 -27 -27 -28 -28 -29 -29 -30 -30 -31 -32 -32 -33 -33 -34 -34 -34 -35 -35 -35 -35 -36 -36 -36 -36 -36 -35 -35 -35
-25 -25 -25 -25 -25 -25 -25 -25 -25 -25 -25 -25 -25 -25 -26 -27 -27 -28 -29 -30 -30 -31 -31 -32 -32 -33 -34 -35 -35 -35 -35 -35 -35 -36 -36 -36 -36 -36 -36 -36 -36 -36 -36 -36
-25 -25 -25 -25 -25 -25 -25 -26 -25 -26 -26 -26 -26 -26 -27 -28 -29 -29 -30 -30 -31 -31 -32 -33 -34 -35 -35 -35 -36 -36 -36 -36 -36 -36 -36 -36 -36 -36 -36 -36 -36 -36 -36 -36

GFSNGP_500_temp_102.txt.gz
Temp
-22 -22 -22 -22 -22 -21 -21 -21 -20 -20 -19 -20 -19 -19 -19 -20 -19 -18 -18 -18 -17 -18 -17 -17 -16 -16 -15 -15 -15 -15 -15 -15 -15 -15 -15 -15 -15 -15 -16 -16 -15 -15 -15 -15
-21 -22 -22 -22 -22 -21 -21 -21 -21 -20 -20 -19 -20 -19 -19 -19 -18 -18 -18 -17 -17 -17 -16 -16 -15 -16 -15 -15 -15 -15 -15 -15 -15 -16 -16 -15 -15 -15 -16 -16 -15 -15 -15 -16
-21 -21 -22 -22 -22 -20 -21 -21 -21 -20 -20 -20 -19 -19 -19 -18 -18 -18 -17 -17 -17 -17 -17 -17 -16 -16 -16 -16 -16 -16 -16 -16 -16 -16 -16 -15 -15 -16 -16 -16 -15 -15 -15 -16
-22 -21 -21 -22 -22 -21 -21 -21 -21 -21 -21 -21 -20 -19 -19 -19 -18 -19 -18 -18 -17 -17 -16 -17 -16 -16 -16 -16 -16 -16 -16 -16 -16 -17 -16 -16 -16 -16 -16 -16 -16 -16 -15 -16
-22 -22 -22 -22 -22 -22 -21 -21 -21 -21 -21 -21 -21 -20 -20 -19 -19 -19 -18 -18 -18 -17 -17 -17 -17 -17 -17 -17 -17 -16 -17 -17 -17 -17 -16 -17 -16 -16 -16 -17 -16 -16 -15 -16
-22 -22 -22 -22 -22 -22 -22 -21 -21 -21 -20 -20 -20 -20 -20 -19 -19 -19 -18 -18 -18 -18 -17 -17 -17 -17 -17 -16 -17 -17 -17 -17 -17 -17 -17 -16 -16 -16 -16 -17 -16 -16 -16 -16
-23 -22 -22 -22 -22 -22 -21 -21 -21 -21 -20 -20 -20 -20 -19 -19 -19 -19 -19 -19 -18 -18 -18 -18 -17 -17 -17 -17 -17 -17 -17 -17 -17 -17 -17 -15 -16 -17 -16 -17 -17 -16 -16 -16
-23 -23 -23 -22 -22 -22 -21 -21 -21 -20 -20 -20 -20 -20 -19 -19 -19 -19 -19 -18 -18 -18 -18 -18 -18 -18 -17 -17 -17 -17 -17 -17 -17 -16 -16 -15 -16 -17 -16 -16 -16 -16 -16 -16
-23 -22 -22 -22 -22 -22 -21 -21 -21 -21 -21 -21 -21 -20 -20 -20 -20 -19 -19 -19 -19 -19 -18 -18 -18 -18 -19 -18 -18 -17 -17 -17 -17 -17 -16 -17 -16 -15 -16 -16 -16 -16 -16 -16
-23 -22 -22 -22 -22 -21 -21 -21 -21 -21 -21 -22 -22 -22 -21 -21 -21 -21 -20 -20 -20 -20 -19 -19 -19 -19 -19 -19 -18 -18 -18 -18 -17 -17 -17 -16 -16 -16 -16 -16 -16 -17 -16 -16
-23 -22 -22 -22 -21 -21 -21 -21 -22 -22 -22 -22 -22 -22 -22 -22 -22 -22 -22 -21 -21 -21 -21 -21 -20 -20 -20 -20 -19 -19 -19 -18 -18 -18 -19 -18 -17 -17 -16 -16 -16 -17 -17 -16
-23 -22 -22 -22 -22 -22 -22 -22 -22 -22 -23 -23 -23 -22 -22 -22 -22 -22 -22 -22 -22 -22 -22 -22 -22 -21 -21 -21 -21 -20 -20 -20 -19 -19 -19 -19 -19 -19 -18 -17 -17 -17 -17 -17
-23 -23 -22 -22 -22 -22 -22 -23 -23 -23 -23 -23 -23 -23 -23 -23 -23 -23 -23 -23 -23 -23 -23 -23 -22 -23 -23 -22 -22 -22 -22 -22 -22 -21 -21 -20 -20 -19 -19 -19 -19 -19 -19 -19
-23 -23 -23 -23 -23 -24 -24 -24 -24 -24 -24 -23 -23 -23 -24 -24 -23 -23 -23 -23 -23 -23 -23 -22 -22 -22 -22 -22 -22 -22 -22 -22 -22 -22 -21 -21 -21 -21 -21 -21 -20 -20 -20 -19
-23 -23 -24 -24 -24 -24 -24 -24 -24 -24 -24 -24 -24 -23 -23 -23 -23 -23 -23 -23 -23 -23 -23 -23 -23 -23 -22 -22 -22 -22 -22 -22 -22 -22 -22 -22 -22 -21 -21 -21 -21 -21 -21 -21
-24 -24 -24 -24 -24 -24 -24 -24 -24 -24 -24 -24 -24 -23 -23 -23 -23 -23 -23 -23 -23 -23 -23 -23 -23 -23 -23 -23 -23 -23 -23 -22 -22 -22 -22 -22 -22 -22 -22 -22 -22 -22 -22 -22
-25 -25 -24 -24 -24 -24 -24 -24 -24 -24 -24 -24 -24 -24 -24 -24 -23 -23 -24 -24 -24 -24 -24 -24 -24 -24 -24 -24 -24 -24 -23 -23 -23 -23 -23 -23 -23 -22 -22 -23 -23 -23 -22 -22
-25 -24 -24 -24 -25 -24 -24 -24 -24 -24 -24 -24 -24 -24 -24 -24 -24 -24 -24 -24 -24 -24 -24 -24 -24 -24 -24 -24 -24 -24 -24 -24 -24 -24 -24 -24 -24 -23 -23 -23 -23 -23 -23 -23
-25 -25 -25 -24 -24 -24 -24 -24 -24 -24 -24 -24 -24 -24 -24 -24 -24 -24 -24 -24 -24 -24 -24 -24 -24 -24 -25 -25 -25 -24 -25 -25 -25 -25 -25 -25 -25 -24 -24 -24 -24 -24 -24 -24
-25 -25 -24 -24 -24 -24 -24 -24 -24 -24 -24 -24 -24 -24 -24 -24 -24 -24 -24 -24 -25 -25 -25 -25 -25 -25 -25 -25 -25 -26 -26 -26 -26 -26 -26 -26 -27 -27 -27 -26 -26 -26 -26 -26
-25 -24 -24 -24 -24 -24 -24 -24 -24 -24 -24 -24 -24 -24 -24 -24 -24 -25 -25 -25 -25 -25 -25 -25 -25 -26 -26 -26 -26 -26 -27 -27 -28 -28 -28 -28 -29 -29 -29 -29 -29 -28 -28 -28
-24 -24 -24 -24 -24 -25 -25 -25 -25 -25 -24 -24 -24 -24 -25 -25 -25 -25 -25 -25 -25 -25 -25 -26 -26 -27 -27 -28 -28 -28 -29 -29 -30 -30 -30 -30 -30 -30 -31 -31 -31 -31 -30 -30
-25 -25 -24 -24 -25 -25 -25 -25 -25 -25 -24 -24 -24 -24 -25 -25 -25 -25 -25 -25 -26 -26 -26 -27 -27 -28 -28 -29 -30 -30 -30 -31 -31 -32 -32 -32 -33 -33 -33 -33 -33 -33 -33 -32
-25 -25 -25 -25 -25 -25 -25 -25 -25 -25 -24 -24 -25 -25 -25 -25 -25 -26 -26 -26 -26 -27 -28 -28 -29 -30 -30 -31 -31 -31 -32 -32 -33 -34 -34 -34 -34 -34 -34 -35 -35 -35 -35 -35
-25 -25 -25 -25 -25 -25 -25 -25 -25 -25 -25 -25 -26 -26 -26 -26 -26 -26 -26 -27 -27 -28 -29 -30 -30 -31 -31 -32 -32 -33 -34 -34 -35 -35 -35 -35 -35 -36 -36 -36 -36 -36 -36 -36
-25 -25 -25 -25 -25 -25 -25 -25 -25 -25 -26 -26 -26 -26 -26 -26 -26 -26 -27 -28 -28 -29 -30 -31 -32 -32 -33 -33 -34 -35 -35 -36 -36 -36 -36 -36 -36 -36 -36 -36 -36 -36 -36 -36
-25 -25 -26 -25 -26 -26 -26 -26 -26 -26 -26 -26 -26 -26 -27 -27 -27 -27 -28 -29 -30 -31 -31 -32 -33 -33 -34 -35 -36 -36 -36 -37 -37 -37 -37 -37 -37 -37 -37 -37 -37 -37 -37 -37

GFSNGP_500_temp_105.txt.gz
Temp
-23 -23 -23 -22 -21 -21 -21 -21 -21 -21 -20 -20 -19 -19 -20 -19 -19 -18 -19 -18 -18 -18 -18 -18 -18 -18 -17 -17 -17 -16 -16 -15 -15 -15 -15 -14 -15 -15 -15 -16 -16 -15 -16 -16
-22 -22 -22 -22 -22 -21 -21 -21 -21 -20 -20 -20 -20 -20 -20 -20 -19 -19 -19 -18 -18 -18 -18 -18 -18 -18 -17 -17 -17 -16 -16 -14 -15 -15 -15 -15 -15 -15 -15 -15 -15 -15 -16 -15
-22 -22 -22 -22 -22 -22 -21 -21 -21 -21 -21 -20 -20 -20 -20 -20 -20 -19 -18 -18 -17 -17 -18 -17 -18 -17 -17 -17 -16 -16 -15 -15 -15 -15 -15 -15 -15 -16 -16 -15 -16 -15 -15 -15
-22 -22 -22 -22 -22 -22 -21 -21 -21 -21 -20 -20 -20 -20 -20 -19 -19 -18 -18 -18 -17 -17 -17 -17 -17 -17 -17 -16 -17 -16 -16 -16 -15 -15 -15 -16 -16 -16 -16 -16 -16 -16 -16 -16
-23 -22 -22 -22 -22 -22 -21 -21 -21 -21 -20 -21 -20 -20 -20 -20 -19 -19 -18 -18 -18 -18 -17 -17 -17 -17 -17 -17 -17 -17 -16 -16 -16 -16 -15 -16 -16 -16 -16 -16 -16 -16 -16 -16
-22 -22 -22 -22 -22 -22 -22 -22 -21 -21 -21 -20 -20 -20 -20 -20 -19 -19 -19 -19 -18 -18 -18 -17 -17 -17 -17 -17 -17 -17 -16 -16 -16 -16 -16 -16 -16 -16 -16 -16 -16 -16 -17 -16
-22 -22 -23 -22 -22 -22 -21 -21 -21 -21 -20 -20 -20 -20 -20 -19 -19 -19 -19 -19 -19 -18 -18 -18 -18 -18 -17 -17 -17 -17 -16 -16 -16 -17 -17 -17 -16 -16 -16 -16 -17 -17 -16 -16
-23 -22 -22 -22 -22 -22 -21 -21 -21 -21 -20 -20 -20 -20 -20 -20 -19 -19 -19 -19 -19 -19 -18 -18 -18 -18 -17 -17 -17 -17 -17 -16 -16 -17 -17 -17 -17 -17 -17 -17 -16 -16 -16 -16
-22 -22 -22 -22 -22 -22 -21 -21 -21 -21 -21 -21 -21 -21 -21 -20 -20 -20 -20 -19 -19 -19 -19 -19 -18 -18 -18 -18 -18 -18 -18 -17 -17 -17 -17 -17 -17 -17 -16 -17 -16 -17 -16 -16
-23 -22 -22 -22 -22 -22 -21 -21 -21 -21 -21 -21 -22 -22 -22 -22 -22 -21 -21 -21 -20 -20 -20 -20 -20 -19 -19 -19 -19 -19 -19 -19 -18 -18 -18 -17 -17 -17 -17 -17 -17 -17 -16 -16
-23 -22 -22 -22 -22 -21 -21 -21 -21 -22 -22 -22 -22 -22 -22 -22 -22 -22 -22 -22 -21 -21 -21 -21 -21 -21 -20 -20 -20 -20 -19 -19 -19 -19 -19 -18 -18 -18 -17 -17 -17 -17 -17 -16
-23 -22 -22 -22 -22 -22 -22 -22 -22 -22 -22 -22 -23 -23 -22 -22 -22 -22 -22 -22 -22 -22 -22 -22 -22 -22 -22 -21 -22 -21 -21 -21 -21 -20 -20 -20 -20 -19 -19 -19 -19 -19 -18 -18
-23 -23 -23 -22 -22 -22 -22 -22 -22 -22 -23 -23 -23 -23 -23 -23 -23 -23 -23 -23 -22 -22 -22 -22 -22 -22 -22 -22 -22 -22 -22 -22 -22 -22 -22 -22 -22 -22 -21 -21 -21 -20 -19 -19
-23 -23 -23 -23 -22 -22 -23 -23 -23 -23 -23 -23 -24 -23 -23 -23 -23 -23 -23 -23 -23 -23 -22 -22 -22 -22 -22 -22 -22 -22 -22 -22 -22 -22 -22 -22 -21 -21 -21 -21 -21 -21 -21 -21
-23 -23 -23 -23 -23 -24 -24 -24 -24 -24 -24 -24 -24 -24 -23 -23 -23 -23 -23 -23 -23 -23 -23 -23 -23 -23 -23 -23 -23 -23 -23 -23 -22 -22 -22 -22 -22 -22 -22 -22 -22 -22 -22 -21
-24 -23 -23 -24 -24 -24 -24 -24 -24 -24 -24 -24 -24 -24 -24 -24 -23 -23 -23 -23 -23 -24 -23 -23 -23 -24 -24 -24 -24 -24 -23 -23 -23 -23 -23 -23 -23 -23 -22 -22 -22 -22 -22 -22
-24 -24 -24 -24 -24 -24 -24 -24 -24 -24 -24 -24 -24 -24 -24 -24 -24 -24 -24 -24 -24 -24 -24 -24 -24 -24 -24 -24 -24 -24 -24 -24 -24 -24 -24 -24 -24 -24 -24 -23 -23 -23 -23 -22
-25 -24 -24 -25 -24 -24 -24 -24 -24 -24 -24 -24 -24 -24 -24 -24 -24 -24 -24 -24 -24 -24 -24 -24 -24 -24 -24 -24 -24 -24 -24 -24 -24 -24 -24 -25 -25 -25 -25 -25 -25 -25 -24 -24
-25 -25 -25 -25 -25 -24 -24 -24 -24 -24 -24 -24 -24 -24 -24 -24 -24 -24 -24 -24 -24 -24 -24 -24 -25 -25 -25 -25 -25 -25 -25 -25 -25 -25 -25 -26 -26 -25 -25 -25 -25 -25 -25 -25
-25 -25 -25 -24 -25 -25 -25 -25 -25 -25 -25 -24 -24 -24 -24 -24 -24 -24 -24 -24 -24 -24 -24 -25 -25 -25 -25 -25 -25 -25 -25 -26 -26 -26 -26 -26 -27 -27 -27 -28 -28 -28 -28 -28
-25 -25 -25 -25 -24 -25 -25 -25 -25 -25 -25 -24 -24 -25 -24 -24 -24 -24 -24 -25 -25 -25 -25 -25 -25 -25 -26 -26 -26 -26 -27 -27 -28 -28 -29 -29 -29 -30 -30 -30 -30 -30 -30 -30
-25 -25 -25 -24 -24 -25 -25 -25 -25 -25 -25 -25 -25 -24 -24 -24 -24 -24 -25 -25 -25 -25 -25 -26 -26 -26 -26 -27 -27 -28 -28 -29 -30 -31 -31 -31 -32 -32 -32 -32 -32 -32 -32 -33
-25 -25 -25 -25 -25 -25 -25 -25 -25 -25 -25 -25 -25 -25 -25 -25 -25 -25 -25 -25 -26 -26 -26 -26 -26 -27 -27 -28 -29 -30 -30 -31 -32 -33 -33 -33 -34 -34 -34 -34 -34 -34 -34 -34
-25 -25 -25 -25 -25 -25 -25 -25 -25 -25 -25 -25 -25 -25 -25 -25 -25 -26 -26 -26 -27 -27 -27 -27 -27 -28 -29 -30 -31 -32 -32 -33 -34 -34 -35 -35 -35 -36 -36 -36 -36 -36 -36 -36
-25 -25 -25 -25 -26 -26 -26 -26 -25 -25 -25 -26 -26 -26 -26 -26 -27 -27 -27 -27 -27 -27 -27 -28 -29 -30 -30 -31 -32 -34 -34 -35 -36 -36 -36 -36 -36 -36 -37 -37 -37 -37 -37 -36
-25 -25 -25 -25 -26 -26 -26 -26 -26 -26 -26 -26 -26 -26 -27 -27 -27 -27 -27 -27 -27 -28 -28 -29 -30 -31 -32 -33 -35 -35 -36 -36 -37 -37 -37 -37 -37 -37 -37 -37 -37 -37 -37 -37
-25 -25 -25 -26 -26 -26 -26 -26 -26 -26 -26 -26 -27 -27 -27 -27 -27 -28 -28 -28 -28 -29 -29 -31 -32 -33 -34 -35 -36 -36 -37 -37 -37 -38 -38 -38 -38 -38 -38 -38 -38 -38 -38 -38

GFSNGP_500_temp_111.txt.gz
Temp
-24 -24 -23 -23 -23 -23 -22 -22 -21 -21 -21 -21 -21 -21 -20 -20 -20 -20 -20 -19 -18 -18 -18 -18 -18 -18 -18 -18 -17 -16 -17 -16 -17 -16 -16 -16 -16 -16 -16 -16 -15 -15 -15 -15
-23 -22 -23 -23 -23 -22 -21 -21 -21 -21 -21 -21 -20 -20 -20 -20 -20 -21 -20 -20 -20 -20 -19 -19 -19 -19 -18 -18 -17 -17 -16 -17 -17 -16 -16 -16 -16 -16 -16 -16 -15 -15 -15 -15
-23 -23 -23 -23 -22 -22 -21 -22 -21 -21 -21 -21 -20 -21 -20 -20 -20 -20 -20 -19 -20 -19 -18 -18 -18 -18 -18 -18 -18 -18 -18 -17 -16 -16 -15 -16 -15 -15 -15 -15 -15 -15 -15 -15
-23 -22 -23 -23 -22 -22 -22 -22 -21 -21 -21 -21 -21 -21 -20 -20 -20 -20 -19 -19 -19 -18 -18 -18 -18 -18 -18 -18 -18 -18 -18 -17 -16 -16 -15 -16 -14 -15 -15 -15 -15 -15 -15 -15
-22 -23 -23 -23 -23 -22 -22 -22 -22 -22 -21 -21 -21 -20 -20 -20 -20 -20 -19 -19 -19 -19 -19 -18 -18 -18 -19 -19 -19 -19 -18 -18 -18 -16 -16 -16 -16 -15 -15 -15 -16 -16 -16 -16
-23 -23 -23 -23 -23 -22 -22 -21 -22 -22 -21 -21 -20 -20 -20 -20 -20 -19 -19 -19 -19 -19 -18 -19 -18 -18 -18 -19 -18 -19 -18 -19 -19 -18 -18 -18 -16 -16 -16 -16 -16 -17 -16 -16
-23 -23 -23 -23 -23 -22 -22 -22 -22 -21 -21 -21 -20 -20 -20 -20 -20 -19 -19 -19 -19 -19 -19 -19 -19 -19 -18 -18 -18 -18 -18 -18 -19 -19 -19 -18 -18 -17 -18 -17 -17 -17 -17 -17
-23 -23 -23 -23 -23 -23 -23 -22 -21 -21 -21 -21 -20 -20 -20 -20 -20 -20 -20 -20 -19 -19 -19 -19 -19 -19 -19 -19 -19 -18 -18 -18 -18 -18 -18 -18 -17 -17 -17 -17 -17 -17 -17 -17
-23 -23 -23 -23 -23 -23 -22 -22 -21 -21 -21 -20 -21 -21 -21 -22 -22 -21 -21 -21 -21 -20 -20 -20 -20 -20 -20 -20 -19 -19 -19 -19 -19 -19 -19 -19 -18 -18 -18 -18 -18 -18 -18 -18
-23 -23 -23 -23 -22 -22 -22 -21 -21 -21 -21 -21 -21 -22 -22 -22 -22 -22 -22 -22 -22 -22 -22 -21 -21 -21 -22 -22 -21 -21 -21 -21 -21 -21 -21 -21 -20 -20 -20 -19 -19 -19 -19 -19
-23 -23 -23 -22 -22 -22 -22 -22 -22 -21 -21 -22 -22 -22 -23 -23 -22 -22 -22 -22 -22 -23 -22 -22 -22 -22 -22 -22 -22 -22 -22 -22 -21 -21 -21 -21 -21 -21 -21 -21 -21 -20 -20 -20
-24 -23 -22 -22 -22 -22 -22 -22 -22 -22 -22 -22 -22 -23 -23 -23 -23 -23 -23 -23 -23 -23 -23 -23 -22 -22 -22 -22 -22 -22 -22 -22 -22 -22 -22 -22 -22 -22 -21 -21 -21 -21 -21 -21
-24 -24 -23 -22 -22 -22 -22 -22 -22 -22 -22 -23 -23 -23 -23 -23 -23 -24 -23 -23 -23 -23 -23 -23 -23 -23 -23 -23 -23 -23 -23 -23 -23 -22 -22 -22 -22 -22 -22 -22 -22 -22 -22 -22
-24 -24 -23 -23 -22 -23 -22 -22 -22 -22 -23 -23 -24 -24 -24 -24 -24 -24 -24 -24 -24 -24 -24 -24 -24 -24 -24 -24 -23 -23 -23 -23 -23 -23 -23 -23 -23 -23 -23 -23 -22 -22 -22 -22
-25 -24 -23 -23 -23 -23 -22 -22 -23 -24 -24 -24 -24 -24 -24 -24 -24 -24 -24 -24 -24 -24 -24 -24 -24 -24 -24 -23 -23 -23 -23 -23 -23 -23 -23 -23 -23 -23 -23 -23 -23 -23 -23 -23
-24 -24 -24 -24 -23 -23 -23 -23 -24 -24 -24 -25 -25 -25 -24 -24 -24 -24 -24 -24 -24 -24 -24 -24 -24 -24 -24 -24 -24 -23 -23 -23 -23 -23 -23 -23 -23 -23 -23 -23 -24 -24 -24 -24
-25 -24 -24 -24 -24 -23 -23 -24 -24 -24 -24 -24 -24 -24 -24 -24 -24 -24 -24 -24 -24 -24 -24 -24 -24 -24 -24 -24 -24 -24 -24 -23 -24 -24 -24 -24 -24 -24 -24 -24 -24 -24 -24 -24
-25 -25 -24 -24 -24 -24 -24 -24 -24 -24 -24 -24 -24 -24 -24 -24 -24 -24 -24 -24 -24 -24 -24 -24 -24 -24 -24 -24 -24 -24 -24 -24 -24 -24 -24 -24 -24 -25 -25 -25 -25 -25 -25 -25
-25 -24 -24 -24 -24 -24 -24 -24 -24 -24 -25 -25 -25 -25 -25 -25 -24 -24 -24 -24 -24 -24 -24 -24 -24 -24 -24 -24 -24 -25 -25 -25 -25 -25 -25 -25 -25 -25 -26 -26 -26 -26 -26 -26
-25 -25 -25 -25 -25 -25 -25 -25 -25 -25 -25 -25 -25 -25 -25 -25 -25 -25 -25 -25 -25 -25 -25 -25 -24 -25 -25 -25 -25 -25 -25 -25 -25 -25 -25 -26 -26 -26 -26 -27 -27 -28 -28 -29
-26 -26 -26 -26 -25 -25 -25 -25 -25 -25 -25 -25 -25 -25 -25 -25 -25 -25 -25 -25 -25 -25 -25 -25 -25 -25 -25 -25 -25 -25 -26 -26 -26 -26 -27 -27 -27 -28 -29 -30 -32 -32 -33 -33
-26 -26 -26 -25 -25 -25 -25 -25 -25 -25 -25 -25 -25 -25 -25 -25 -25 -25 -25 -25 -26 -26 -26 -26 -26 -25 -25 -26 -26 -26 -26 -27 -27 -27 -28 -29 -30 -32 -33 -34 -34 -34 -34 -34
-26 -26 -26 -26 -25 -25 -25 -25 -25 -25 -25 -25 -26 -26 -25 -25 -25 -26 -26 -26 -26 -26 -26 -26 -26 -26 -26 -26 -27 -27 -27 -28 -28 -29 -30 -32 -33 -34 -34 -34 -34 -34 -35 -35
-26 -26 -26 -26 -26 -26 -26 -25 -25 -25 -26 -26 -26 -26 -26 -26 -26 -26 -26 -26 -26 -26 -26 -26 -26 -27 -27 -27 -27 -28 -28 -29 -29 -31 -33 -34 -34 -34 -34 -35 -35 -35 -36 -36
-26 -26 -26 -26 -26 -26 -25 -25 -26 -26 -26 -26 -26 -26 -26 -26 -26 -26 -26 -26 -26 -26 -26 -27 -27 -27 -27 -28 -28 -28 -29 -30 -32 -34 -34 -34 -34 -35 -35 -35 -35 -36 -36 -36
-26 -26 -26 -26 -25 -25 -26 -26 -26 -26 -26 -26 -27 -27 -27 -27 -27 -26 -26 -26 -26 -27 -27 -27 -27 -28 -28 -28 -29 -29 -31 -33 -34 -34 -34 -35 -35 -35 -35 -36 -36 -36 -36 -37
-26 -26 -26 -26 -26 -26 -26 -26 -26 -26 -26 -26 -26 -27 -27 -27 -27 -26 -26 -27 -27 -27 -27 -28 -28 -28 -28 -29 -30 -32 -33 -34 -34 -35 -35 -35 -36 -36 -36 -36 -36 -37 -37 -37

GFSNGP_500_temp_114.txt.gz
Temp
-24 -24 -24 -24 -24 -24 -23 -23 -22 -22 -21 -21 -22 -22 -21 -21 -21 -21 -20 -19 -18 -18 -18 -19 -19 -18 -18 -19 -17 -17 -17 -17 -17 -17 -17 -17 -17 -17 -17 -17 -16 -16 -16 -16
-23 -23 -23 -23 -24 -23 -23 -22 -21 -21 -21 -21 -21 -21 -21 -22 -21 -21 -21 -20 -20 -19 -18 -18 -18 -18 -18 -18 -18 -18 -17 -16 -16 -16 -16 -16 -16 -16 -16 -16 -16 -16 -16 -16
-23 -23 -23 -23 -23 -23 -22 -22 -22 -21 -21 -21 -21 -21 -21 -21 -21 -21 -21 -21 -20 -19 -19 -18 -18 -18 -18 -19 -18 -18 -17 -17 -16 -16 -15 -16 -16 -15 -15 -16 -15 -15 -16 -16
-23 -23 -23 -23 -22 -22 -22 -21 -22 -22 -21 -21 -21 -21 -21 -20 -20 -20 -20 -19 -19 -19 -19 -18 -18 -18 -19 -19 -18 -18 -18 -17 -17 -16 -16 -16 -16 -15 -15 -14 -15 -15 -15 -15
-22 -23 -22 -22 -22 -22 -22 -22 -21 -21 -21 -21 -21 -21 -20 -20 -20 -20 -20 -19 -19 -19 -19 -19 -18 -18 -18 -19 -19 -19 -19 -18 -17 -17 -17 -16 -16 -16 -16 -15 -15 -16 -16 -15
-23 -23 -22 -22 -23 -23 -22 -22 -22 -22 -21 -21 -21 -21 -20 -20 -20 -20 -20 -19 -19 -19 -19 -19 -19 -19 -18 -19 -19 -19 -19 -18 -18 -18 -17 -17 -17 -16 -16 -15 -16 -15 -16 -16
-23 -23 -23 -23 -23 -22 -22 -22 -22 -21 -21 -21 -21 -21 -20 -20 -20 -20 -20 -19 -19 -19 -19 -19 -19 -19 -19 -19 -19 -19 -19 -19 -19 -19 -18 -18 -18 -18 -18 -17 -17 -16 -16 -16
-23 -23 -23 -23 -23 -22 -22 -22 -22 -21 -21 -21 -21 -21 -21 -21 -21 -20 -20 -20 -19 -19 -19 -19 -19 -19 -20 -19 -19 -19 -19 -19 -19 -19 -19 -19 -20 -19 -19 -19 -18 -18 -18 -17
-23 -23 -23 -23 -23 -23 -23 -22 -22 -22 -22 -21 -21 -21 -21 -21 -21 -21 -21 -21 -20 -20 -20 -20 -20 -20 -21 -21 -21 -21 -20 -20 -20 -20 -20 -19 -19 -19 -18 -19 -19 -19 -18 -18
-23 -23 -23 -23 -23 -23 -22 -22 -22 -22 -22 -22 -22 -21 -22 -22 -22 -22 -22 -22 -21 -22 -22 -22 -22 -22 -22 -22 -22 -22 -22 -21 -21 -21 -21 -21 -21 -21 -20 -20 -20 -19 -19 -19
-23 -23 -23 -23 -23 -23 -22 -22 -22 -21 -21 -21 -22 -22 -22 -22 -22 -22 -22 -22 -22 -23 -23 -23 -22 -22 -22 -22 -22 -22 -22 -22 -22 -22 -22 -21 -21 -21 -21 -21 -21 -21 -21 -20
-23 -23 -23 -23 -23 -23 -22 -22 -22 -21 -21 -21 -22 -22 -22 -23 -23 -23 -23 -23 -23 -23 -23 -23 -23 -23 -23 -23 -23 -23 -23 -22 -22 -22 -22 -22 -22 -22 -22 -22 -22 -22 -22 -21
-24 -24 -24 -23 -22 -22 -22 -22 -22 -22 -22 -22 -22 -22 -23 -23 -23 -23 -23 -24 -23 -23 -24 -24 -23 -23 -23 -23 -23 -23 -23 -23 -23 -23 -23 -22 -22 -22 -22 -22 -22 -22 -22 -22
-24 -24 -24 -23 -23 -22 -22 -22 -22 -22 -22 -22 -23 -23 -23 -23 -24 -24 -24 -24 -24 -24 -24 -24 -24 -24 -24 -23 -23 -23 -23 -23 -23 -23 -23 -23 -23 -23 -23 -23 -23 -22 -22 -22
-24 -24 -24 -23 -23 -23 -23 -22 -22 -22 -22 -23 -24 -24 -24 -24 -24 -24 -24 -24 -24 -24 -24 -24 -24 -24 -24 -23 -23 -23 -23 -23 -23 -23 -23 -23 -23 -23 -23 -23 -23 -23 -23 -23
-24 -25 -24 -24 -24 -23 -23 -23 -23 -23 -23 -24 -24 -24 -25 -25 -25 -24 -24 -24 -24 -24 -24 -24 -24 -24 -24 -24 -24 -24 -24 -24 -24 -24 -23 -23 -23 -23 -23 -23 -23 -23 -23 -24
-26 -25 -24 -24 -24 -23 -24 -24 -24 -24 -24 -24 -24 -25 -25 -25 -25 -25 -24 -24 -24 -24 -24 -24 -24 -24 -24 -24 -24 -24 -24 -24 -24 -24 -24 -23 -23 -23 -23 -24 -24 -24 -24 -24
-26 -25 -25 -24 -24 -24 -24 -24 -24 -24 -24 -24 -24 -25 -25 -25 -25 -25 -25 -25 -24 -24 -24 -24 -24 -24 -24 -24 -24 -24 -24 -24 -24 -24 -24 -24 -24 -24 -24 -24 -24 -24 -25 -25
-25 -25 -25 -24 -24 -24 -25 -25 -25 -25 -25 -25 -25 -25 -25 -25 -25 -25 -25 -25 -25 -25 -24 -24 -24 -24 -24 -24 -24 -24 -24 -24 -24 -24 -24 -24 -24 -24 -25 -25 -25 -26 -26 -26
-26 -25 -25 -25 -25 -25 -25 -25 -25 -25 -25 -25 -25 -25 -25 -25 -25 -25 -25 -25 -25 -25 -25 -25 -25 -25 -25 -25 -25 -25 -25 -25 -25 -25 -25 -25 -25 -25 -26 -26 -27 -27 -28 -29
-26 -25 -25 -25 -25 -25 -25 -25 -25 -25 -25 -25 -25 -25 -25 -25 -25 -25 -25 -25 -25 -25 -25 -25 -25 -25 -25 -25 -25 -25 -25 -25 -26 -26 -26 -26 -26 -27 -27 -28 -29 -31 -32 -33
-26 -26 -26 -26 -26 -26 -25 -26 -26 -25 -25 -25 -25 -25 -26 -26 -26 -26 -25 -25 -25 -25 -25 -25 -26 -25 -25 -25 -26 -26 -26 -26 -26 -26 -27 -27 -28 -28 -30 -32 -33 -33 -34 -34
-26 -26 -26 -26 -26 -26 -26 -26 -26 -25 -25 -25 -26 -26 -26 -26 -26 -26 -26 -26 -26 -26 -26 -26 -26 -26 -26 -26 -26 -26 -26 -27 -27 -27 -28 -28 -29 -31 -33 -33 -34 -34 -34 -34
-27 -26 -26 -26 -26 -26 -26 -26 -26 -26 -26 -26 -26 -26 -26 -26 -26 -26 -26 -26 -26 -26 -26 -26 -26 -26 -26 -26 -26 -27 -27 -27 -28 -28 -29 -30 -32 -33 -34 -34 -34 -35 -35 -35
-26 -27 -27 -26 -26 -26 -26 -26 -26 -26 -26 -26 -26 -26 -26 -26 -26 -26 -26 -26 -26 -26 -26 -26 -26 -26 -26 -27 -27 -27 -28 -28 -29 -29 -31 -33 -33 -34 -34 -35 -35 -36 -36 -36
-26 -27 -27 -26 -26 -26 -26 -26 -26 -26 -26 -26 -26 -26 -26 -26 -26 -26 -26 -26 -26 -26 -26 -26 -26 -27 -27 -27 -28 -28 -28 -29 -30 -32 -33 -33 -34 -34 -35 -36 -36 -36 -36 -36
-27 -26 -26 -26 -26 -26 -26 -26 -26 -26 -26 -26 -26 -26 -26 -26 -26 -26 -26 -26 -26 -27 -27 -27 -27 -27 -27 -28 -28 -29 -29 -30 -32 -33 -33 -34 -34 -35 -36 -36 -36 -36 -37 -37

GFSNGP_500_temp_117.txt.gz
Temp
-22 -23 -23 -24 -24 -24 -24 -24 -23 -23 -23 -22 -22 -22 -22 -22 -21 -21 -21 -20 -19 -18 -19 -19 -19 -18 -18 -17 -17 -17 -16 -16 -17 -17 -17 -18 -18 -18 -18 -18 -17 -17 -16 -16
-23 -23 -23 -24 -24 -24 -23 -23 -23 -23 -22 -22 -22 -22 -22 -22 -22 -21 -22 -22 -20 -20 -19 -19 -18 -19 -19 -18 -18 -17 -17 -16 -16 -16 -17 -17 -17 -18 -17 -17 -17 -16 -16 -16
-23 -23 -23 -23 -23 -23 -23 -23 -22 -22 -22 -22 -22 -22 -22 -22 -21 -21 -22 -21 -21 -20 -19 -19 -18 -18 -18 -19 -18 -18 -17 -16 -16 -16 -16 -16 -17 -17 -17 -17 -17 -17 -17 -16
-24 -23 -23 -22 -23 -23 -22 -22 -22 -22 -22 -22 -22 -22 -22 -22 -22 -22 -22 -21 -21 -19 -19 -19 -19 -18 -19 -19 -19 -19 -19 -18 -17 -17 -17 -16 -15 -17 -17 -17 -16 -17 -16 -16
-23 -23 -23 -22 -22 -22 -22 -22 -21 -22 -22 -22 -22 -22 -22 -22 -21 -22 -21 -21 -20 -19 -19 -19 -19 -19 -19 -18 -19 -19 -19 -18 -17 -17 -17 -17 -17 -16 -16 -15 -16 -15 -16 -15
-24 -23 -23 -23 -23 -22 -22 -22 -22 -21 -22 -21 -21 -21 -21 -21 -21 -21 -20 -20 -20 -20 -19 -19 -19 -19 -19 -19 -18 -18 -18 -18 -19 -18 -18 -17 -17 -16 -17 -16 -15 -16 -16 -15
-24 -24 -23 -23 -23 -23 -22 -22 -22 -22 -22 -21 -21 -21 -21 -21 -21 -21 -21 -20 -20 -20 -20 -19 -19 -19 -19 -19 -19 -19 -19 -19 -19 -19 -20 -19 -18 -17 -18 -17 -17 -17 -17 -16
-23 -23 -23 -23 -23 -23 -22 -22 -22 -22 -21 -21 -21 -22 -21 -21 -21 -21 -21 -21 -21 -21 -20 -21 -21 -20 -20 -20 -21 -20 -20 -20 -20 -20 -19 -19 -20 -20 -19 -19 -19 -18 -17 -17
-23 -23 -23 -23 -23 -22 -22 -22 -22 -22 -22 -21 -22 -22 -21 -21 -21 -22 -22 -21 -21 -21 -22 -22 -21 -22 -22 -22 -21 -21 -21 -21 -21 -21 -21 -20 -20 -20 -20 -20 -20 -20 -20 -19
-23 -22 -23 -23 -23 -23 -23 -23 -22 -22 -22 -22 -22 -22 -22 -22 -22 -22 -22 -22 -22 -22 -22 -22 -22 -22 -22 -22 -22 -22 -22 -22 -22 -22 -21 -21 -21 -21 -21 -21 -21 -21 -21 -21
-23 -23 -23 -22 -23 -23 -23 -22 -22 -22 -22 -22 -22 -22 -22 -22 -22 -22 -22 -22 -22 -22 -23 -23 -23 -23 -23 -23 -23 -23 -23 -23 -22 -22 -22 -22 -22 -22 -22 -21 -21 -21 -21 -21
-23 -23 -23 -23 -23 -23 -23 -23 -22 -22 -22 -22 -22 -22 -22 -22 -22 -23 -23 -23 -23 -23 -23 -23 -23 -23 -23 -23 -23 -23 -23 -23 -23 -23 -23 -23 -22 -22 -22 -22 -22 -22 -22 -22
-24 -23 -23 -23 -23 -23 -23 -23 -23 -22 -22 -22 -22 -22 -22 -23 -23 -23 -23 -23 -23 -23 -23 -23 -23 -23 -23 -23 -23 -23 -23 -23 -23 -23 -23 -23 -23 -23 -23 -23 -23 -22 -22 -22
-24 -23 -23 -23 -23 -23 -23 -23 -22 -22 -22 -22 -22 -22 -22 -23 -23 -23 -23 -24 -24 -24 -24 -24 -24 -24 -24 -24 -23 -23 -23 -23 -23 -23 -23 -23 -23 -23 -23 -23 -23 -23 -23 -22
-24 -24 -24 -24 -23 -23 -23 -23 -23 -22 -22 -22 -22 -23 -23 -24 -24 -24 -24 -24 -24 -24 -24 -24 -24 -24 -24 -24 -23 -23 -23 -23 -23 -23 -23 -23 -23 -23 -23 -23 -23 -23 -23 -23
-25 -24 -24 -24 -23 -23 -23 -23 -23 -23 -23 -22 -22 -23 -24 -24 -24 -24 -24 -24 -24 -24 -24 -24 -24 -24 -24 -24 -24 -23 -23 -23 -23 -23 -23 -23 -23 -23 -23 -23 -23 -23 -23 -23
-25 -25 -24 -24 -24 -24 -23 -23 -23 -23 -23 -23 -23 -24 -24 -24 -24 -24 -24 -24 -24 -24 -24 -24 -24 -24 -24 -24 -24 -24 -24 -24 -24 -23 -23 -23 -23 -23 -23 -23 -23 -23 -23 -23
-26 -25 -25 -25 -24 -24 -24 -24 -24 -24 -24 -24 -24 -24 -24 -24 -24 -24 -25 -25 -25 -25 -25 -25 -24 -24 -24 -24 -24 -24 -24 -24 -24 -24 -24 -24 -24 -23 -23 -23 -23 -23 -23 -24
-26 -26 -26 -25 -25 -25 -25 -24 -24 -24 -24 -24 -24 -24 -24 -25 -25 -25 -25 -25 -25 -25 -25 -25 -25 -25 -25 -24 -24 -24 -24 -24 -24 -24 -24 -24 -24 -24 -24 -24 -24 -24 -24 -25
-26 -26 -26 -26 -25 -25 -25 -25 -25 -25 -25 -25 -25 -25 -25 -25 -25 -25 -25 -25 -25 -25 -25 -25 -25 -25 -25 -25 -24 -24 -25 -25 -24 -24 -24 -24 -25 -25 -25 -25 -25 -26 -26 -27
-26 -26 -26 -26 -25 -25 -25 -25 -25 -25 -25 -25 -25 -25 -25 -25 -25 -25 -25 -25 -26 -26 -26 -26 -25 -25 -25 -25 -25 -25 -25 -25 -25 -25 -25 -25 -25 -25 -26 -26 -27 -27 -28 -30
-26 -26 -26 -25 -26 -25 -25 -25 -25 -25 -25 -25 -25 -25 -25 -26 -26 -26 -26 -26 -26 -26 -26 -25 -25 -25 -25 -25 -25 -25 -25 -25 -25 -25 -26 -26 -26 -26 -27 -28 -28 -30 -31 -31
-26 -26 -26 -26 -26 -26 -26 -26 -26 -26 -26 -26 -26 -26 -26 -26 -26 -26 -26 -26 -26 -26 -26 -26 -26 -26 -26 -25 -25 -25 -25 -25 -26 -26 -26 -27 -27 -28 -28 -29 -31 -32 -32 -32
-26 -26 -26 -26 -26 -26 -26 -26 -26 -26 -26 -26 -26 -26 -26 -26 -26 -26 -26 -26 -26 -26 -26 -26 -26 -26 -26 -26 -26 -26 -26 -26 -26 -27 -27 -28 -28 -29 -30 -32 -32 -33 -33 -33
-26 -26 -26 -26 -26 -26 -26 -26 -27 -27 -27 -26 -26 -26 -26 -26 -26 -26 -26 -26 -26 -26 -26 -26 -26 -26 -26 -26 -26 -26 -26 -27 -27 -28 -28 -28 -29 -31 -32 -33 -33 -33 -34 -34
-27 -27 -26 -26 -27 -27 -27 -27 -27 -27 -26 -26 -26 -26 -26 -26 -26 -26 -26 -26 -26 -26 -26 -26 -26 -26 -26 -26 -26 -27 -27 -27 -28 -28 -29 -30 -31 -33 -33 -34 -34 -34 -35 -35
-27 -27 -27 -27 -27 -27 -27 -27 -27 -26 -26 -26 -26 -26 -26 -26 -26 -27 -27 -27 -27 -27 -27 -27 -27 -27 -27 -27 -27 -27 -28 -28 -29 -29 -30 -32 -33 -34 -34 -34 -35 -35 -36 -36

GFSNGP_500_temp_120.txt.gz
Temp
-22 -22 -22 -22 -23 -24 -24 -24 -24 -24 -24 -23 -23 -22 -22 -22 -22 -21 -22 -21 -21 -20 -19 -19 -19 -19 -18 -18 -18 -17 -17 -17 -16 -16 -17 -17 -18 -18 -18 -19 -18 -17 -17 -16
-23 -22 -23 -23 -24 -24 -24 -24 -24 -23 -23 -23 -22 -22 -22 -22 -22 -21 -21 -21 -21 -21 -21 -20 -19 -19 -19 -19 -18 -18 -18 -17 -17 -16 -16 -17 -17 -18 -18 -18 -17 -16 -18 -17
-23 -23 -23 -23 -23 -23 -23 -23 -23 -23 -23 -22 -22 -22 -22 -22 -22 -21 -22 -22 -21 -22 -21 -20 -19 -19 -19 -19 -19 -19 -18 -17 -17 -17 -17 -17 -17 -17 -18 -18 -18 -18 -18 -17
-23 -23 -23 -23 -23 -23 -23 -23 -22 -22 -22 -22 -22 -22 -22 -22 -22 -22 -21 -21 -22 -21 -21 -20 -20 -19 -19 -19 -19 -19 -19 -18 -17 -17 -17 -17 -17 -17 -17 -17 -17 -18 -18 -17
-23 -24 -23 -23 -23 -23 -22 -22 -22 -22 -22 -22 -22 -22 -22 -22 -22 -22 -22 -22 -21 -21 -21 -20 -20 -19 -19 -19 -19 -19 -19 -19 -19 -18 -17 -18 -18 -17 -17 -17 -17 -17 -17 -17
-24 -24 -23 -22 -23 -23 -22 -22 -22 -22 -21 -22 -22 -22 -22 -22 -22 -22 -22 -22 -21 -21 -21 -20 -20 -20 -20 -20 -20 -20 -20 -19 -19 -19 -19 -18 -18 -18 -18 -18 -17 -17 -17 -17
-24 -24 -23 -23 -23 -23 -23 -22 -22 -22 -22 -22 -22 -22 -22 -22 -22 -22 -22 -22 -22 -21 -21 -21 -21 -21 -21 -21 -21 -21 -20 -20 -20 -20 -20 -19 -19 -19 -19 -19 -18 -17 -17 -18
-24 -24 -23 -23 -23 -23 -22 -22 -22 -22 -22 -22 -22 -22 -22 -22 -22 -22 -22 -22 -22 -22 -22 -22 -22 -22 -22 -22 -22 -22 -21 -21 -21 -21 -21 -21 -21 -21 -20 -20 -20 -19 -19 -18
-24 -23 -23 -23 -23 -23 -23 -22 -22 -22 -22 -22 -22 -22 -22 -22 -22 -22 -23 -23 -22 -22 -23 -23 -22 -22 -22 -22 -22 -22 -22 -22 -22 -22 -21 -21 -21 -21 -21 -21 -22 -22 -21 -20
-24 -23 -23 -23 -23 -23 -23 -23 -23 -22 -22 -22 -22 -22 -23 -22 -22 -23 -23 -23 -23 -23 -23 -23 -23 -22 -22 -22 -22 -22 -22 -22 -22 -22 -21 -22 -21 -21 -21 -21 -21 -21 -21 -21
-24 -24 -23 -23 -22 -23 -23 -23 -23 -22 -22 -22 -22 -23 -22 -23 -23 -23 -22 -22 -22 -22 -23 -23 -23 -23 -23 -23 -23 -23 -23 -23 -23 -23 -23 -23 -22 -22 -22 -22 -22 -22 -22 -22
-24 -23 -24 -23 -23 -23 -22 -23 -23 -22 -22 -22 -22 -22 -22 -22 -22 -22 -23 -23 -23 -23 -23 -23 -23 -23 -23 -23 -23 -23 -23 -23 -23 -23 -23 -23 -23 -22 -22 -22 -22 -22 -22 -22
-24 -24 -23 -23 -23 -23 -23 -23 -23 -23 -23 -22 -23 -23 -22 -23 -23 -22 -23 -23 -23 -23 -23 -23 -23 -23 -24 -23 -23 -23 -23 -23 -23 -23 -23 -23 -23 -23 -23 -23 -22 -22 -22 -22
-25 -24 -24 -24 -23 -23 -24 -23 -23 -23 -23 -23 -22 -22 -22 -22 -23 -23 -23 -23 -23 -23 -24 -24 -24 -24 -24 -24 -24 -24 -24 -23 -23 -23 -23 -23 -23 -23 -23 -23 -23 -23 -22 -22
-25 -25 -24 -24 -24 -24 -24 -23 -23 -23 -23 -23 -23 -23 -23 -23 -23 -23 -23 -24 -24 -24 -24 -24 -24 -24 -24 -24 -24 -24 -24 -24 -23 -23 -23 -23 -23 -23 -23 -23 -23 -22 -22 -22
-25 -25 -24 -24 -24 -24 -24 -23 -23 -23 -23 -23 -23 -23 -23 -23 -23 -24 -24 -24 -24 -24 -24 -24 -24 -24 -24 -24 -24 -24 -24 -24 -24 -24 -23 -23 -23 -23 -23 -23 -23 -22 -22 -22
-26 -25 -25 -24 -24 -24 -24 -24 -23 -23 -23 -23 -23 -23 -23 -24 -24 -24 -24 -24 -24 -24 -24 -24 -24 -24 -24 -24 -24 -24 -24 -24 -24 -24 -24 -23 -23 -23 -23 -23 -23 -23 -23 -23
-26 -25 -25 -25 -25 -24 -24 -24 -24 -24 -23 -24 -24 -24 -24 -24 -24 -24 -24 -24 -24 -25 -25 -25 -25 -25 -24 -24 -24 -24 -24 -24 -24 -24 -24 -24 -24 -23 -23 -23 -23 -23 -23 -23
-26 -26 -26 -26 -25 -25 -25 -24 -24 -24 -24 -24 -24 -24 -24 -24 -24 -24 -24 -24 -25 -25 -25 -25 -25 -25 -25 -25 -25 -25 -25 -24 -24 -24 -24 -24 -24 -24 -24 -24 -24 -24 -24 -24
-26 -26 -26 -25 -25 -26 -26 -25 -25 -24 -24 -24 -25 -25 -25 -25 -25 -25 -25 -25 -25 -25 -25 -25 -25 -25 -25 -25 -25 -25 -25 -25 -25 -25 -24 -24 -24 -24 -24 -24 -24 -24 -25 -25
-26 -26 -26 -26 -26 -26 -26 -25 -25 -25 -25 -25 -25 -25 -25 -25 -25 -25 -25 -25 -25 -25 -26 -26 -25 -25 -25 -25 -25 -25 -25 -25 -25 -25 -25 -25 -25 -25 -25 -25 -25 -25 -26 -26
-27 -26 -26 -26 -26 -26 -26 -26 -25 -25 -25 -25 -25 -25 -25 -25 -25 -25 -26 -26 -26 -26 -26 -26 -25 -25 -25 -25 -25 -25 -25 -25 -25 -25 -25 -25 -25 -25 -26 -26 -26 -26 -27 -27
-26 -27 -26 -26 -26 -26 -26 -26 -26 -26 -26 -25 -25 -26 -26 -26 -26 -26 -26 -26 -26 -26 -26 -26 -26 -26 -26 -26 -26 -26 -26 -25 -25 -25 -26 -26 -26 -26 -26 -27 -27 -28 -28 -30
-26 -26 -26 -26 -26 -26 -26 -26 -26 -26 -26 -26 -26 -26 -26 -26 -26 -26 -26 -26 -26 -26 -26 -26 -26 -26 -26 -26 -26 -26 -26 -26 -26 -26 -26 -26 -27 -27 -27 -28 -28 -29 -31 -32
-27 -27 -26 -26 -26 -26 -26 -26 -26 -26 -26 -26 -26 -27 -27 -27 -27 -27 -26 -26 -26 -26 -26 -27 -27 -26 -26 -26 -26 -26 -26 -26 -26 -27 -27 -27 -27 -28 -28 -29 -30 -32 -33 -33
-27 -27 -27 -27 -26 -26 -26 -26 -26 -27 -27 -27 -27 -27 -27 -27 -26 -26 -26 -26 -26 -27 -27 -27 -27 -27 -27 -27 -27 -27 -27 -27 -27 -27 -27 -28 -28 -29 -30 -31 -33 -34 -34 -34
-27 -27 -27 -27 -27 -27 -27 -27 -27 -27 -27 -27 -27 -27 -27 -27 -27 -27 -27 -27 -27 -27 -27 -27 -27 -27 -27 -27 -27 -27 -27 -27 -28 -28 -28 -29 -29 -31 -32 -33 -34 -34 -35 -35

GFSNGP_500_temp_123.txt.gz
Temp
-21 -21 -22 -21 -22 -22 -24 -24 -24 -24 -24 -24 -24 -23 -23 -23 -22 -22 -22 -22 -21 -21 -21 -21 -20 -20 -20 -20 -19 -18 -18 -16 -15 -15 -16 -17 -17 -17 -17 -18 -19 -19 -19 -19
-22 -22 -22 -22 -22 -23 -23 -24 -24 -24 -23 -24 -23 -23 -23 -23 -22 -22 -22 -22 -21 -22 -21 -21 -21 -21 -20 -20 -19 -19 -18 -18 -17 -17 -17 -16 -17 -17 -18 -18 -18 -17 -18 -17
-22 -22 -22 -23 -23 -24 -24 -24 -23 -23 -23 -23 -23 -23 -22 -22 -22 -22 -22 -22 -21 -21 -22 -22 -21 -21 -20 -20 -20 -20 -19 -18 -18 -17 -17 -17 -18 -17 -17 -17 -17 -17 -17 -17
-22 -22 -23 -23 -23 -23 -23 -23 -23 -22 -22 -22 -22 -22 -22 -22 -22 -22 -22 -22 -21 -21 -21 -21 -21 -21 -20 -20 -20 -19 -19 -19 -19 -18 -18 -18 -18 -18 -17 -17 -17 -18 -16 -18
-23 -23 -23 -23 -23 -23 -23 -23 -23 -22 -22 -22 -22 -22 -22 -22 -22 -22 -22 -22 -21 -21 -21 -21 -21 -21 -20 -20 -21 -21 -21 -20 -19 -19 -19 -19 -19 -18 -17 -18 -18 -17 -17 -18
-23 -23 -23 -23 -23 -23 -23 -23 -23 -22 -22 -22 -22 -22 -22 -22 -22 -22 -22 -22 -22 -22 -22 -22 -22 -22 -21 -22 -22 -22 -21 -21 -21 -20 -20 -19 -19 -19 -19 -19 -18 -17 -17 -17
-24 -24 -23 -23 -23 -23 -23 -23 -23 -22 -22 -22 -22 -22 -22 -22 -22 -22 -22 -22 -22 -22 -22 -22 -22 -22 -22 -22 -22 -22 -22 -22 -22 -21 -21 -21 -21 -21 -20 -19 -19 -19 -18 -18
-24 -24 -23 -23 -23 -23 -23 -23 -23 -22 -22 -22 -22 -22 -22 -22 -22 -22 -22 -22 -23 -23 -23 -23 -22 -22 -22 -22 -22 -22 -22 -22 -22 -21 -21 -21 -21 -21 -21 -21 -21 -21 -21 -20
-24 -24 -24 -23 -24 -23 -23 -23 -23 -23 -23 -23 -22 -22 -22 -22 -23 -23 -23 -23 -23 -23 -23 -23 -23 -23 -23 -23 -22 -22 -22 -22 -22 -22 -22 -21 -21 -21 -21 -21 -21 -21 -21 -21
-24 -24 -24 -24 -23 -23 -23 -23 -23 -23 -23 -23 -23 -23 -23 -23 -23 -23 -23 -23 -23 -23 -23 -23 -23 -23 -23 -23 -23 -22 -23 -23 -23 -23 -23 -22 -22 -22 -22 -22 -22 -22 -22 -22
-25 -25 -24 -24 -23 -23 -23 -23 -23 -23 -23 -23 -23 -23 -23 -23 -23 -23 -23 -23 -23 -23 -23 -23 -23 -23 -23 -23 -23 -23 -23 -23 -23 -23 -23 -23 -23 -23 -23 -23 -22 -22 -22 -22
-25 -25 -25 -24 -24 -23 -23 -23 -23 -23 -23 -23 -23 -23 -23 -23 -23 -23 -23 -23 -23 -23 -23 -23 -23 -23 -23 -23 -23 -23 -23 -23 -23 -23 -23 -23 -23 -23 -23 -23 -23 -23 -22 -22
-25 -25 -25 -24 -24 -23 -23 -23 -23 -23 -23 -23 -23 -23 -23 -23 -23 -23 -23 -23 -24 -24 -24 -24 -24 -24 -24 -24 -24 -24 -24 -24 -24 -24 -24 -24 -23 -23 -23 -23 -23 -23 -23 -22
-26 -26 -25 -25 -24 -24 -24 -24 -23 -24 -23 -23 -23 -23 -23 -23 -23 -24 -24 -24 -24 -24 -24 -24 -24 -24 -24 -24 -24 -24 -24 -24 -24 -24 -24 -24 -24 -23 -23 -23 -23 -23 -23 -23
-26 -26 -26 -25 -24 -24 -24 -24 -24 -24 -24 -23 -23 -23 -23 -23 -24 -24 -24 -24 -24 -24 -24 -24 -24 -24 -24 -24 -24 -24 -24 -24 -24 -24 -24 -24 -24 -24 -23 -23 -23 -23 -23 -23
-27 -27 -26 -26 -25 -24 -24 -24 -24 -24 -24 -24 -23 -23 -23 -24 -24 -24 -24 -24 -24 -25 -25 -25 -25 -25 -25 -24 -24 -24 -24 -24 -24 -24 -24 -24 -24 -24 -24 -24 -24 -23 -23 -23
-27 -27 -26 -26 -25 -25 -25 -24 -25 -24 -24 -24 -24 -24 -24 -23 -24 -24 -24 -25 -25 -25 -25 -25 -25 -25 -25 -25 -25 -25 -24 -24 -24 -24 -24 -24 -24 -24 -24 -24 -24 -23 -23 -23
-27 -27 -27 -26 -26 -25 -25 -25 -25 -25 -25 -24 -24 -24 -24 -24 -25 -25 -25 -25 -25 -25 -25 -25 -25 -25 -25 -25 -25 -25 -25 -25 -25 -25 -24 -24 -24 -24 -24 -24 -24 -24 -23 -23
-27 -27 -26 -26 -26 -26 -25 -25 -26 -25 -25 -25 -25 -24 -24 -25 -25 -25 -25 -25 -25 -25 -25 -25 -25 -25 -25 -25 -25 -25 -25 -25 -25 -25 -25 -25 -25 -24 -24 -24 -24 -24 -24 -23
-28 -27 -27 -26 -26 -26 -26 -26 -25 -25 -25 -25 -25 -25 -25 -25 -25 -25 -25 -25 -25 -25 -25 -25 -25 -25 -25 -25 -25 -25 -25 -25 -25 -25 -25 -25 -25 -25 -25 -25 -25 -24 -24 -24
-27 -27 -27 -26 -26 -26 -26 -26 -26 -26 -26 -26 -26 -25 -25 -25 -25 -25 -26 -25 -25 -25 -26 -26 -26 -26 -26 -25 -25 -25 -25 -25 -25 -25 -25 -25 -25 -25 -25 -25 -25 -25 -25 -26
-27 -27 -27 -26 -26 -26 -26 -26 -26 -26 -26 -26 -26 -26 -26 -25 -25 -26 -26 -26 -26 -26 -26 -26 -26 -26 -26 -26 -26 -26 -26 -26 -26 -26 -26 -26 -26 -26 -26 -26 -26 -26 -26 -26
-27 -27 -27 -27 -27 -26 -26 -26 -26 -26 -26 -26 -26 -26 -25 -26 -26 -26 -27 -26 -26 -27 -26 -26 -26 -26 -26 -26 -26 -26 -26 -26 -26 -26 -27 -27 -27 -27 -27 -27 -27 -27 -27 -27
-27 -27 -27 -27 -27 -26 -26 -26 -26 -26 -26 -26 -26 -26 -26 -26 -27 -27 -27 -27 -27 -27 -27 -27 -26 -26 -26 -26 -26 -26 -27 -27 -27 -27 -27 -27 -27 -27 -27 -27 -27 -28 -28 -29
-27 -27 -27 -27 -27 -27 -26 -26 -26 -26 -26 -26 -26 -26 -26 -26 -27 -27 -27 -27 -27 -27 -27 -26 -26 -26 -26 -26 -27 -27 -27 -28 -28 -28 -28 -28 -28 -28 -28 -28 -29 -29 -30 -31
-27 -27 -27 -27 -27 -27 -27 -27 -27 -27 -27 -27 -27 -27 -27 -27 -27 -27 -27 -27 -27 -27 -27 -27 -27 -27 -27 -27 -28 -28 -28 -28 -28 -28 -28 -28 -28 -29 -29 -29 -30 -31 -32 -34
-27 -27 -27 -27 -27 -27 -27 -27 -27 -27 -27 -27 -27 -27 -27 -27 -27 -27 -27 -27 -27 -27 -27 -27 -28 -28 -28 -28 -29 -29 -29 -28 -29 -29 -29 -29 -29 -29 -30 -31 -32 -33 -34 -35

GFSNGP_500_temp_126.txt.gz
Temp
-22 -22 -22 -21 -21 -22 -22 -22 -22 -23 -23 -24 -24 -24 -24 -24 -23 -23 -22 -22 -22 -22 -22 -21 -20 -21 -20 -20 -20 -19 -19 -18 -17 -16 -17 -17 -17 -17 -17 -17 -17 -18 -18 -18
-22 -22 -21 -21 -22 -22 -22 -22 -22 -23 -23 -24 -24 -24 -23 -23 -23 -23 -22 -22 -22 -22 -22 -21 -21 -21 -21 -21 -21 -21 -20 -19 -18 -18 -17 -17 -17 -17 -17 -18 -18 -17 -18 -18
-21 -22 -22 -22 -23 -23 -23 -23 -23 -23 -23 -23 -23 -23 -23 -23 -23 -23 -22 -22 -22 -22 -22 -22 -21 -21 -21 -21 -20 -21 -21 -20 -20 -19 -19 -18 -18 -18 -18 -18 -18 -17 -17 -17
-22 -22 -22 -22 -23 -23 -23 -23 -23 -23 -23 -23 -22 -22 -22 -23 -23 -22 -22 -22 -22 -22 -21 -21 -21 -21 -21 -21 -21 -21 -21 -20 -20 -20 -20 -19 -19 -19 -19 -18 -18 -18 -18 -18
-22 -23 -22 -23 -23 -23 -23 -23 -23 -23 -22 -22 -22 -22 -23 -23 -22 -22 -22 -22 -22 -22 -22 -22 -22 -22 -22 -22 -22 -22 -22 -21 -21 -21 -21 -20 -20 -19 -19 -19 -19 -18 -18 -18
-23 -23 -23 -23 -24 -23 -23 -23 -23 -23 -23 -22 -22 -23 -23 -23 -22 -22 -22 -22 -22 -22 -22 -23 -23 -23 -22 -22 -22 -22 -22 -22 -22 -21 -21 -21 -21 -21 -21 -21 -20 -19 -19 -19
-23 -23 -23 -23 -24 -24 -23 -23 -23 -23 -23 -22 -23 -23 -23 -23 -22 -22 -22 -22 -22 -22 -23 -23 -23 -23 -23 -23 -23 -23 -22 -22 -22 -22 -21 -21 -21 -21 -21 -21 -21 -21 -21 -21
-24 -23 -23 -24 -24 -24 -23 -23 -23 -23 -23 -23 -23 -23 -23 -23 -23 -23 -22 -22 -23 -23 -23 -23 -23 -23 -23 -22 -23 -22 -22 -22 -22 -22 -22 -22 -21 -21 -21 -21 -21 -21 -21 -21
-24 -24 -24 -24 -24 -24 -24 -23 -23 -23 -23 -23 -23 -23 -22 -22 -22 -23 -23 -23 -23 -23 -23 -23 -23 -23 -23 -23 -23 -23 -23 -22 -23 -23 -22 -23 -22 -22 -22 -22 -22 -22 -22 -22
-24 -24 -24 -24 -24 -24 -24 -23 -24 -23 -23 -23 -23 -23 -23 -23 -23 -23 -23 -23 -23 -23 -23 -23 -23 -23 -23 -23 -23 -23 -23 -23 -23 -23 -23 -23 -23 -23 -23 -23 -23 -23 -23 -23
-24 -24 -24 -24 -24 -24 -24 -23 -24 -24 -23 -23 -23 -23 -23 -23 -23 -23 -23 -23 -23 -24 -24 -24 -24 -24 -23 -23 -23 -23 -23 -23 -23 -23 -23 -24 -23 -23 -23 -23 -23 -23 -23 -23
-24 -24 -24 -25 -25 -24 -24 -24 -23 -23 -23 -24 -24 -24 -23 -24 -24 -23 -23 -24 -24 -24 -24 -24 -24 -24 -24 -24 -24 -24 -24 -24 -23 -23 -23 -23 -23 -23 -23 -23 -23 -23 -23 -23
-24 -24 -25 -25 -25 -25 -24 -24 -23 -23 -23 -24 -24 -24 -24 -24 -24 -24 -24 -24 -24 -24 -24 -24 -24 -24 -24 -24 -24 -24 -24 -24 -24 -24 -24 -24 -24 -24 -24 -24 -23 -23 -23 -23
-25 -25 -25 -26 -26 -25 -25 -24 -24 -24 -24 -24 -24 -24 -24 -24 -24 -24 -24 -24 -24 -24 -24 -24 -24 -25 -25 -24 -24 -24 -24 -24 -24 -24 -24 -24 -24 -24 -24 -24 -24 -23 -23 -23
-25 -26 -26 -26 -26 -26 -25 -25 -24 -24 -24 -24 -25 -24 -24 -24 -24 -24 -24 -25 -25 -25 -24 -24 -25 -25 -25 -25 -25 -25 -24 -24 -24 -24 -24 -24 -24 -24 -24 -24 -24 -24 -24 -23
-26 -27 -27 -27 -27 -26 -25 -25 -24 -24 -24 -25 -25 -25 -25 -25 -24 -25 -25 -25 -25 -25 -25 -25 -25 -25 -25 -25 -25 -25 -25 -25 -25 -25 -25 -25 -25 -25 -25 -25 -24 -24 -24 -24
-28 -28 -28 -28 -27 -26 -26 -25 -25 -25 -25 -25 -25 -25 -25 -25 -25 -25 -25 -25 -25 -25 -25 -25 -25 -25 -25 -25 -25 -25 -25 -25 -25 -25 -25 -25 -25 -25 -25 -25 -24 -24 -24 -24
-27 -27 -27 -28 -27 -26 -26 -25 -25 -25 -26 -26 -26 -26 -26 -25 -25 -25 -25 -25 -25 -25 -25 -25 -25 -25 -25 -25 -26 -25 -25 -25 -25 -25 -25 -25 -25 -25 -25 -25 -25 -24 -24 -24
-27 -28 -28 -27 -27 -26 -26 -26 -26 -26 -26 -26 -26 -26 -26 -26 -26 -25 -25 -25 -26 -26 -26 -25 -25 -26 -26 -26 -26 -26 -26 -26 -25 -25 -25 -25 -25 -25 -25 -25 -25 -25 -25 -25
-27 -27 -28 -27 -27 -26 -26 -26 -26 -26 -26 -26 -26 -26 -26 -26 -26 -26 -26 -26 -26 -26 -26 -26 -26 -26 -26 -26 -26 -26 -26 -26 -26 -25 -25 -25 -25 -25 -25 -25 -25 -25 -26 -26
-27 -27 -27 -27 -27 -27 -26 -26 -26 -26 -26 -26 -26 -26 -26 -26 -26 -26 -26 -26 -26 -26 -26 -26 -27 -27 -27 -27 -27 -26 -26 -26 -26 -25 -25 -25 -25 -26 -26 -26 -27 -27 -27 -27
-27 -27 -28 -27 -27 -27 -26 -26 -26 -26 -26 -26 -26 -26 -26 -26 -26 -26 -26 -26 -26 -27 -26 -27 -27 -27 -27 -27 -27 -26 -26 -26 -26 -26 -26 -26 -26 -26 -27 -28 -28 -28 -28 -28
-27 -27 -27 -27 -27 -27 -27 -26 -26 -26 -26 -26 -26 -26 -26 -26 -26 -26 -26 -26 -27 -27 -27 -28 -27 -27 -27 -27 -27 -27 -27 -26 -26 -26 -27 -27 -27 -28 -28 -28 -28 -28 -28 -28
-27 -27 -27 -27 -27 -27 -27 -27 -27 -27 -27 -27 -27 -26 -26 -26 -26 -26 -26 -27 -27 -28 -28 -27 -27 -27 -27 -27 -27 -27 -27 -27 -27 -27 -27 -28 -28 -29 -29 -29 -29 -29 -29 -29
-27 -27 -27 -27 -27 -27 -27 -27 -27 -27 -27 -27 -26 -26 -26 -26 -26 -27 -27 -28 -28 -28 -28 -28 -28 -27 -27 -27 -27 -27 -28 -28 -28 -28 -29 -29 -29 -29 -29 -29 -29 -29 -30 -30
-27 -27 -27 -27 -27 -27 -27 -27 -27 -27 -27 -27 -27 -27 -27 -27 -27 -27 -28 -28 -28 -28 -28 -28 -28 -28 -28 -28 -28 -28 -28 -29 -29 -29 -29 -29 -29 -29 -29 -30 -30 -30 -31 -32
-28 -28 -28 -27 -27 -27 -27 -27 -27 -27 -27 -27 -27 -28 -28 -28 -28 -28 -28 -28 -28 -28 -28 -28 -28 -28 -28 -28 -29 -29 -29 -30 -30 -30 -30 -30 -30 -30 -30 -31 -31 -32 -33 -34

GFSNGP_500_temp_132.txt.gz
Temp
-22 -22 -23 -22 -21 -22 -22 -22 -22 -21 -21 -22 -22 -22 -22 -23 -23 -23 -23 -23 -23 -23 -23 -22 -22 -22 -22 -21 -21 -21 -21 -21 -20 -20 -19 -19 -19 -18 -18 -18 -18 -18 -18 -18
-22 -22 -22 -21 -21 -22 -22 -22 -21 -21 -21 -23 -22 -23 -23 -23 -23 -22 -23 -23 -23 -23 -22 -22 -22 -22 -21 -22 -21 -21 -21 -21 -21 -20 -20 -20 -20 -20 -19 -19 -18 -18 -18 -18
-22 -22 -23 -22 -22 -22 -22 -22 -22 -22 -22 -22 -23 -23 -23 -23 -22 -22 -22 -22 -22 -23 -22 -22 -22 -22 -22 -23 -23 -23 -23 -23 -23 -23 -22 -22 -21 -20 -21 -20 -19 -19 -19 -18
-23 -23 -22 -22 -22 -22 -22 -22 -22 -22 -23 -23 -23 -23 -22 -22 -22 -22 -22 -22 -22 -22 -22 -22 -22 -23 -24 -24 -23 -23 -22 -22 -22 -22 -22 -21 -21 -21 -21 -21 -21 -21 -21 -20
-23 -23 -22 -22 -23 -22 -22 -23 -23 -23 -23 -23 -23 -23 -22 -22 -22 -22 -22 -22 -22 -22 -22 -23 -22 -23 -23 -24 -23 -23 -22 -23 -23 -22 -22 -22 -22 -22 -22 -21 -21 -21 -21 -21
-23 -23 -22 -23 -23 -22 -22 -23 -24 -23 -24 -23 -23 -23 -22 -22 -22 -22 -23 -22 -22 -22 -22 -22 -23 -24 -23 -23 -23 -23 -23 -23 -23 -23 -23 -23 -23 -22 -22 -22 -22 -22 -22 -22
-24 -24 -23 -23 -23 -23 -23 -23 -23 -24 -24 -23 -23 -23 -22 -23 -23 -23 -23 -23 -23 -23 -23 -23 -24 -24 -23 -23 -23 -24 -24 -24 -23 -23 -23 -23 -23 -23 -23 -23 -22 -22 -22 -23
-24 -24 -23 -24 -24 -24 -24 -24 -24 -24 -24 -23 -23 -23 -23 -23 -23 -23 -23 -23 -23 -23 -23 -23 -24 -23 -23 -23 -24 -24 -24 -24 -24 -23 -23 -23 -23 -23 -23 -23 -23 -23 -23 -23
-24 -23 -23 -23 -24 -24 -24 -24 -24 -24 -24 -24 -23 -23 -23 -23 -23 -23 -23 -23 -23 -23 -23 -24 -23 -23 -24 -24 -24 -24 -24 -24 -24 -23 -23 -23 -23 -23 -23 -23 -23 -23 -23 -23
-24 -23 -23 -24 -24 -24 -24 -24 -24 -24 -24 -24 -24 -23 -23 -23 -23 -23 -23 -23 -23 -23 -23 -24 -23 -24 -24 -24 -24 -24 -24 -24 -24 -24 -24 -24 -24 -24 -24 -24 -24 -24 -24 -24
-23 -24 -24 -24 -24 -25 -25 -25 -25 -24 -24 -24 -24 -24 -24 -24 -24 -24 -23 -23 -23 -23 -24 -24 -24 -24 -24 -24 -24 -24 -24 -24 -24 -24 -24 -24 -24 -24 -24 -24 -24 -24 -24 -24
-24 -24 -24 -25 -24 -24 -24 -25 -25 -24 -24 -24 -24 -24 -24 -24 -24 -24 -24 -23 -23 -23 -24 -24 -24 -24 -24 -24 -24 -24 -24 -24 -24 -24 -25 -25 -24 -24 -24 -24 -24 -24 -24 -24
-24 -25 -25 -25 -25 -25 -25 -24 -24 -24 -24 -24 -24 -24 -24 -24 -24 -24 -24 -24 -24 -24 -24 -24 -24 -24 -24 -24 -24 -24 -24 -25 -25 -25 -25 -25 -25 -25 -24 -24 -24 -24 -24 -24
-24 -25 -25 -25 -25 -25 -24 -24 -25 -25 -25 -24 -24 -25 -24 -24 -24 -24 -24 -24 -24 -24 -24 -24 -25 -24 -24 -24 -24 -25 -25 -25 -25 -25 -25 -25 -25 -25 -24 -24 -24 -24 -24 -24
-24 -24 -24 -24 -24 -24 -25 -25 -25 -25 -25 -25 -25 -25 -25 -24 -24 -24 -24 -24 -24 -24 -24 -24 -25 -25 -25 -25 -25 -25 -25 -25 -25 -25 -25 -25 -25 -25 -25 -24 -24 -24 -25 -25
-24 -24 -24 -25 -25 -26 -26 -27 -27 -27 -26 -26 -26 -26 -25 -25 -25 -25 -25 -24 -24 -24 -24 -25 -25 -25 -25 -25 -25 -25 -25 -25 -25 -25 -25 -25 -25 -25 -25 -25 -25 -25 -25 -25
-24 -24 -25 -25 -26 -27 -27 -27 -28 -28 -28 -27 -27 -26 -26 -25 -25 -25 -25 -25 -25 -25 -25 -25 -25 -25 -25 -25 -25 -25 -25 -26 -26 -26 -26 -25 -25 -25 -25 -25 -25 -26 -26 -26
-24 -25 -26 -26 -27 -27 -27 -28 -28 -28 -28 -28 -27 -26 -25 -25 -25 -25 -25 -25 -25 -25 -25 -25 -25 -25 -25 -25 -25 -26 -26 -26 -26 -26 -26 -26 -26 -26 -26 -26 -26 -26 -26 -26
-25 -26 -26 -26 -27 -27 -28 -28 -28 -28 -27 -27 -26 -26 -26 -26 -26 -25 -25 -25 -26 -26 -26 -26 -26 -26 -25 -25 -26 -26 -26 -26 -26 -26 -26 -26 -26 -26 -26 -27 -27 -27 -27 -27
-26 -26 -26 -26 -27 -27 -28 -28 -28 -27 -27 -27 -26 -26 -26 -26 -26 -26 -26 -26 -26 -26 -26 -26 -26 -26 -26 -26 -26 -26 -27 -27 -27 -27 -27 -27 -27 -27 -27 -27 -27 -27 -27 -27
-26 -26 -26 -26 -27 -28 -28 -27 -28 -27 -27 -27 -26 -26 -26 -26 -26 -26 -26 -26 -26 -26 -26 -26 -26 -26 -26 -26 -27 -27 -27 -27 -27 -27 -28 -28 -28 -28 -27 -27 -28 -28 -28 -28
-26 -26 -26 -27 -27 -28 -28 -27 -27 -27 -27 -27 -27 -26 -26 -26 -26 -26 -27 -27 -26 -26 -27 -27 -26 -26 -26 -27 -27 -27 -28 -28 -28 -28 -28 -28 -28 -28 -28 -28 -28 -28 -28 -29
-26 -26 -27 -27 -27 -27 -27 -27 -27 -27 -27 -27 -27 -27 -27 -26 -27 -27 -27 -27 -27 -27 -27 -27 -27 -27 -27 -28 -28 -28 -28 -28 -28 -28 -28 -28 -28 -28 -28 -28 -28 -29 -29 -30
-26 -26 -27 -27 -27 -27 -28 -27 -27 -27 -27 -27 -27 -27 -27 -27 -27 -27 -27 -27 -27 -27 -27 -27 -27 -28 -28 -28 -28 -28 -29 -29 -29 -29 -28 -28 -28 -28 -29 -29 -30 -30 -30 -30
-26 -26 -27 -28 -27 -27 -27 -27 -27 -27 -27 -27 -27 -27 -27 -27 -27 -27 -27 -27 -27 -27 -28 -28 -28 -28 -28 -29 -29 -29 -29 -29 -29 -29 -29 -29 -29 -29 -30 -30 -30 -30 -30 -30
-26 -26 -27 -28 -28 -28 -28 -28 -28 -28 -28 -28 -27 -27 -27 -27 -27 -27 -27 -27 -28 -28 -28 -28 -29 -29 -29 -29 -29 -29 -29 -29 -29 -29 -29 -29 -29 -30 -30 -31 -31 -30 -31 -31
-26 -27 -28 -28 -28 -28 -28 -28 -28 -28 -28 -28 -28 -28 -28 -28 -28 -28 -28 -28 -29 -29 -29 -29 -29 -29 -29 -29 -29 -29 -29 -29 -29 -29 -29 -30 -30 -31 -31 -31 -31 -31 -31 -32

GFSNGP_500_temp_135.txt.gz
Temp
-22 -22 -22 -22 -22 -22 -22 -22 -23 -21 -21 -22 -22 -21 -22 -22 -22 -22 -22 -23 -23 -23 -23 -23 -23 -23 -23 -22 -22 -22 -21 -21 -21 -21 -20 -20 -20 -20 -19 -19 -18 -18 -18 -18
-23 -23 -23 -22 -22 -22 -22 -23 -23 -22 -21 -22 -22 -22 -22 -22 -23 -23 -23 -22 -22 -23 -23 -23 -22 -23 -22 -23 -23 -23 -24 -24 -24 -24 -23 -23 -22 -22 -21 -20 -20 -20 -19 -19
-23 -23 -23 -22 -22 -23 -23 -23 -22 -22 -22 -22 -22 -22 -23 -23 -23 -23 -22 -22 -22 -22 -23 -22 -23 -23 -23 -24 -24 -24 -24 -24 -23 -23 -23 -23 -22 -22 -22 -22 -22 -22 -22 -21
-23 -23 -23 -23 -23 -23 -23 -22 -22 -22 -22 -22 -22 -23 -23 -23 -23 -22 -22 -22 -22 -22 -22 -22 -23 -23 -24 -24 -24 -24 -24 -23 -23 -23 -23 -23 -22 -22 -22 -22 -22 -22 -22 -22
-24 -24 -23 -23 -23 -23 -23 -22 -22 -22 -22 -22 -23 -23 -23 -23 -23 -22 -22 -22 -23 -22 -22 -22 -23 -23 -24 -24 -24 -24 -23 -23 -23 -23 -23 -23 -23 -23 -23 -23 -22 -22 -22 -22
-24 -24 -23 -23 -23 -23 -22 -22 -23 -23 -23 -23 -23 -23 -23 -23 -23 -22 -23 -23 -23 -23 -23 -23 -23 -23 -24 -24 -24 -24 -23 -24 -24 -24 -23 -23 -23 -23 -23 -23 -23 -23 -23 -23
-24 -24 -23 -23 -24 -23 -23 -23 -23 -23 -24 -24 -23 -23 -23 -23 -23 -23 -23 -23 -23 -23 -23 -23 -23 -23 -24 -24 -24 -24 -24 -24 -24 -24 -23 -23 -23 -23 -23 -23 -23 -23 -23 -23
-24 -24 -23 -24 -24 -24 -24 -23 -24 -24 -24 -24 -24 -24 -23 -23 -23 -23 -23 -23 -23 -23 -23 -23 -24 -24 -24 -24 -24 -24 -24 -24 -24 -24 -24 -24 -24 -23 -23 -23 -23 -23 -23 -23
-24 -24 -24 -24 -24 -23 -24 -24 -24 -24 -24 -24 -24 -24 -24 -24 -23 -23 -23 -23 -23 -23 -23 -24 -24 -25 -24 -24 -24 -24 -24 -24 -24 -24 -24 -24 -24 -24 -24 -24 -24 -24 -24 -23
-24 -24 -24 -24 -23 -23 -23 -24 -24 -24 -24 -24 -24 -24 -24 -24 -24 -23 -23 -23 -23 -23 -23 -24 -24 -25 -24 -24 -24 -24 -24 -24 -24 -24 -24 -24 -24 -24 -24 -24 -24 -24 -24 -24
-24 -24 -24 -24 -23 -23 -24 -24 -25 -24 -24 -24 -24 -24 -24 -24 -24 -24 -24 -24 -23 -23 -24 -24 -25 -25 -24 -24 -24 -24 -24 -24 -24 -24 -24 -24 -24 -24 -25 -24 -24 -24 -24 -24
-24 -24 -24 -24 -23 -24 -25 -25 -25 -25 -25 -24 -24 -24 -24 -24 -24 -24 -24 -24 -24 -24 -24 -24 -25 -25 -25 -24 -24 -24 -24 -24 -24 -24 -24 -24 -24 -25 -25 -25 -24 -24 -24 -24
-24 -24 -24 -24 -24 -25 -25 -25 -25 -25 -24 -24 -24 -24 -24 -24 -24 -24 -24 -24 -24 -24 -24 -24 -24 -26 -26 -25 -25 -24 -24 -24 -24 -24 -25 -25 -25 -25 -25 -25 -25 -24 -24 -24
-24 -24 -24 -24 -24 -25 -25 -25 -25 -25 -24 -24 -24 -24 -24 -24 -25 -25 -24 -24 -24 -24 -24 -24 -24 -25 -26 -25 -25 -25 -25 -25 -25 -25 -25 -25 -25 -25 -25 -25 -24 -24 -24 -24
-24 -24 -24 -24 -24 -24 -25 -25 -25 -25 -25 -25 -25 -25 -25 -25 -26 -26 -25 -25 -25 -25 -24 -24 -24 -25 -25 -26 -26 -25 -25 -25 -25 -25 -25 -25 -25 -25 -25 -25 -25 -25 -24 -24
-24 -24 -24 -24 -24 -25 -25 -26 -26 -26 -27 -27 -27 -27 -26 -26 -27 -26 -26 -25 -25 -25 -25 -25 -25 -25 -25 -25 -25 -25 -25 -25 -25 -25 -25 -25 -25 -25 -25 -25 -25 -25 -25 -25
-24 -24 -24 -25 -25 -25 -26 -26 -26 -27 -27 -27 -28 -28 -28 -28 -27 -27 -26 -26 -25 -25 -25 -25 -25 -25 -25 -25 -25 -25 -25 -25 -25 -25 -25 -25 -26 -25 -25 -25 -25 -25 -26 -26
-24 -24 -24 -24 -25 -26 -26 -27 -27 -27 -28 -28 -28 -29 -28 -28 -27 -27 -26 -26 -26 -26 -25 -25 -25 -25 -25 -25 -25 -26 -26 -25 -25 -25 -25 -26 -26 -26 -26 -26 -26 -26 -26 -26
-24 -24 -24 -25 -26 -26 -26 -27 -27 -28 -28 -28 -28 -28 -28 -27 -27 -26 -26 -26 -26 -26 -26 -26 -26 -26 -26 -26 -26 -26 -26 -26 -26 -26 -26 -26 -26 -26 -27 -27 -27 -27 -27 -27
-24 -24 -25 -26 -26 -26 -26 -27 -27 -28 -28 -28 -27 -27 -27 -26 -26 -26 -26 -26 -26 -26 -26 -26 -26 -26 -26 -26 -26 -26 -26 -26 -26 -26 -26 -27 -27 -27 -27 -27 -28 -27 -28 -28
-24 -25 -25 -26 -26 -26 -27 -27 -28 -28 -28 -27 -27 -27 -27 -27 -27 -27 -27 -27 -26 -26 -26 -26 -26 -27 -27 -27 -27 -27 -27 -27 -27 -27 -27 -28 -28 -28 -28 -28 -28 -28 -28 -28
-24 -25 -25 -25 -26 -26 -27 -27 -27 -27 -27 -27 -27 -27 -27 -27 -27 -27 -27 -27 -27 -27 -27 -27 -27 -27 -27 -27 -27 -27 -27 -28 -28 -28 -28 -28 -28 -28 -28 -28 -28 -28 -28 -28
-25 -25 -25 -25 -26 -26 -27 -27 -27 -27 -27 -27 -27 -27 -27 -27 -27 -27 -27 -27 -27 -27 -27 -27 -27 -27 -27 -28 -28 -28 -28 -28 -28 -28 -29 -29 -29 -29 -29 -29 -29 -29 -29 -29
-25 -25 -25 -26 -26 -27 -27 -27 -27 -27 -27 -27 -27 -27 -27 -27 -27 -27 -27 -27 -27 -27 -27 -27 -27 -28 -28 -28 -28 -28 -29 -29 -29 -29 -29 -29 -29 -29 -29 -29 -29 -29 -30 -29
-25 -25 -26 -26 -26 -27 -28 -27 -27 -27 -28 -28 -27 -27 -27 -27 -27 -27 -27 -27 -27 -28 -28 -28 -28 -28 -28 -28 -29 -29 -29 -29 -29 -29 -29 -29 -29 -29 -29 -30 -30 -30 -30 -30
-26 -26 -26 -26 -26 -27 -28 -28 -28 -28 -28 -28 -28 -28 -28 -28 -28 -28 -28 -28 -28 -28 -28 -28 -29 -29 -29 -29 -29 -29 -29 -29 -29 -29 -29 -30 -30 -30 -30 -30 -30 -30 -30 -31
-26 -26 -27 -27 -27 -28 -28 -28 -28 -28 -28 -28 -28 -28 -28 -28 -28 -28 -28 -28 -28 -29 -29 -29 -29 -29 -29 -29 -29 -30 -30 -30 -30 -30 -30 -30 -30 -31 -31 -31 -31 -31 -31 -32

GFSNGP_500_temp_138.txt.gz
Temp
-22 -22 -22 -22 -22 -22 -22 -22 -23 -21 -22 -22 -22 -21 -21 -21 -21 -22 -22 -23 -23 -22 -22 -22 -22 -22 -22 -23 -23 -22 -22 -23 -23 -23 -23 -23 -22 -22 -21 -20 -20 -19 -19 -19
-22 -22 -22 -22 -22 -22 -22 -22 -22 -22 -21 -23 -22 -21 -21 -22 -22 -22 -23 -23 -22 -22 -22 -22 -22 -22 -22 -22 -23 -23 -24 -25 -25 -24 -24 -23 -23 -23 -22 -22 -22 -22 -22 -21
-23 -23 -23 -22 -22 -23 -23 -23 -23 -22 -22 -22 -22 -22 -22 -22 -23 -23 -23 -22 -22 -22 -22 -22 -23 -22 -23 -23 -23 -24 -25 -25 -24 -24 -23 -23 -23 -23 -23 -23 -22 -22 -23 -22
-23 -23 -23 -22 -23 -23 -23 -23 -23 -22 -22 -22 -22 -22 -23 -23 -23 -23 -23 -22 -22 -22 -22 -22 -23 -22 -23 -23 -24 -24 -25 -24 -24 -23 -23 -23 -23 -23 -23 -23 -23 -23 -23 -23
-23 -23 -23 -23 -23 -23 -23 -23 -23 -23 -23 -22 -22 -23 -23 -23 -23 -23 -23 -22 -22 -22 -23 -23 -23 -22 -23 -23 -24 -24 -24 -24 -24 -24 -24 -24 -23 -23 -23 -23 -23 -23 -23 -23
-23 -24 -23 -23 -23 -23 -23 -23 -23 -23 -23 -23 -23 -23 -24 -23 -23 -23 -23 -23 -23 -23 -23 -23 -23 -23 -23 -24 -24 -24 -24 -24 -24 -24 -24 -24 -24 -24 -23 -23 -23 -23 -23 -23
-24 -24 -23 -23 -24 -23 -23 -23 -23 -23 -23 -23 -23 -24 -24 -24 -24 -23 -23 -23 -23 -23 -23 -23 -23 -23 -23 -24 -25 -24 -24 -24 -24 -24 -24 -24 -24 -24 -24 -23 -23 -23 -23 -23
-24 -24 -23 -23 -23 -24 -23 -23 -23 -23 -23 -24 -24 -24 -24 -24 -24 -23 -23 -23 -23 -23 -23 -23 -23 -23 -24 -24 -25 -24 -24 -24 -24 -24 -24 -24 -24 -24 -24 -24 -24 -24 -23 -23
-24 -24 -24 -24 -23 -23 -23 -23 -23 -23 -23 -24 -24 -24 -24 -24 -24 -24 -24 -23 -23 -23 -23 -23 -23 -24 -24 -25 -25 -24 -24 -24 -24 -24 -24 -24 -24 -24 -24 -24 -24 -24 -23 -23
-24 -24 -24 -24 -24 -24 -23 -24 -23 -23 -23 -24 -24 -24 -24 -24 -24 -24 -24 -24 -23 -23 -23 -23 -23 -24 -24 -25 -25 -25 -25 -25 -25 -24 -24 -24 -24 -24 -24 -24 -24 -24 -24 -24
-24 -24 -24 -24 -24 -24 -24 -23 -23 -23 -24 -24 -24 -24 -24 -24 -24 -24 -24 -24 -24 -24 -23 -24 -23 -24 -24 -25 -25 -25 -25 -25 -25 -25 -25 -24 -24 -24 -24 -24 -24 -24 -24 -24
-24 -24 -24 -24 -24 -24 -24 -23 -24 -24 -25 -25 -25 -25 -25 -24 -24 -24 -25 -24 -24 -24 -24 -24 -24 -24 -24 -25 -26 -25 -25 -25 -25 -25 -25 -24 -24 -24 -25 -25 -25 -25 -24 -24
-24 -24 -24 -24 -24 -24 -24 -24 -25 -25 -25 -25 -25 -25 -25 -24 -24 -24 -25 -25 -25 -25 -24 -24 -24 -24 -25 -25 -26 -26 -26 -25 -25 -25 -25 -25 -25 -25 -25 -25 -25 -25 -24 -24
-24 -24 -24 -24 -24 -24 -24 -24 -24 -25 -25 -25 -25 -25 -25 -25 -25 -25 -25 -25 -25 -25 -25 -25 -25 -25 -25 -25 -25 -26 -26 -26 -25 -26 -26 -25 -25 -25 -25 -25 -25 -25 -25 -25
-24 -24 -24 -24 -24 -24 -24 -24 -24 -24 -25 -25 -25 -26 -26 -26 -26 -26 -26 -26 -26 -26 -25 -25 -25 -25 -25 -25 -25 -25 -26 -27 -27 -27 -27 -26 -25 -25 -25 -25 -25 -25 -25 -25
-24 -24 -24 -24 -24 -24 -24 -24 -25 -25 -26 -26 -26 -26 -27 -27 -27 -27 -27 -27 -27 -27 -26 -25 -25 -25 -25 -25 -25 -25 -26 -26 -26 -26 -26 -26 -26 -26 -26 -25 -25 -25 -25 -25
-24 -24 -24 -24 -24 -24 -25 -25 -25 -26 -26 -26 -27 -27 -27 -28 -28 -28 -28 -28 -28 -27 -26 -26 -26 -26 -25 -25 -25 -25 -25 -26 -26 -26 -26 -26 -26 -26 -26 -26 -26 -26 -26 -26
-25 -24 -24 -24 -24 -25 -25 -25 -26 -26 -26 -27 -27 -28 -28 -28 -29 -29 -29 -29 -28 -27 -26 -26 -26 -26 -26 -26 -25 -25 -26 -26 -26 -26 -26 -26 -26 -26 -26 -26 -26 -26 -27 -26
-24 -24 -24 -25 -24 -24 -25 -26 -26 -26 -27 -27 -28 -28 -28 -28 -28 -28 -28 -28 -28 -27 -26 -26 -26 -26 -26 -26 -26 -26 -26 -26 -26 -26 -27 -27 -26 -27 -27 -27 -27 -27 -27 -27
-24 -24 -25 -24 -24 -25 -25 -26 -26 -27 -27 -28 -28 -28 -27 -27 -27 -27 -28 -28 -27 -27 -27 -26 -26 -26 -26 -26 -26 -26 -27 -27 -27 -27 -27 -27 -27 -28 -28 -27 -27 -28 -28 -28
-24 -24 -24 -24 -24 -25 -25 -26 -26 -27 -27 -27 -27 -27 -27 -27 -27 -27 -27 -27 -27 -27 -27 -27 -27 -27 -27 -27 -27 -27 -27 -27 -27 -27 -28 -28 -28 -28 -28 -28 -28 -28 -28 -28
-24 -24 -24 -24 -25 -25 -25 -26 -26 -27 -27 -27 -27 -27 -27 -27 -27 -27 -27 -27 -27 -27 -27 -27 -27 -27 -27 -27 -27 -27 -27 -28 -28 -28 -28 -28 -28 -28 -28 -29 -29 -29 -29 -29
-24 -24 -25 -25 -25 -25 -25 -26 -26 -27 -27 -27 -27 -27 -27 -27 -27 -27 -27 -27 -27 -27 -27 -27 -27 -27 -27 -27 -27 -28 -28 -28 -28 -28 -28 -29 -29 -29 -29 -29 -29 -29 -29 -29
-25 -25 -25 -25 -25 -25 -25 -25 -26 -27 -27 -27 -27 -27 -27 -27 -27 -27 -27 -27 -27 -27 -27 -27 -27 -28 -28 -28 -28 -28 -28 -28 -29 -29 -29 -29 -29 -29 -29 -29 -29 -30 -30 -30
-25 -25 -25 -25 -25 -26 -26 -26 -26 -27 -27 -27 -27 -27 -27 -27 -27 -27 -27 -27 -28 -28 -28 -28 -28 -28 -28 -28 -28 -29 -29 -29 -29 -30 -30 -30 -30 -30 -30 -30 -30 -30 -30 -31
-25 -25 -26 -26 -26 -26 -26 -26 -27 -28 -28 -28 -28 -28 -28 -28 -28 -28 -28 -28 -28 -28 -28 -28 -28 -29 -29 -29 -29 -29 -30 -30 -30 -30 -30 -30 -30 -30 -30 -31 -31 -31 -31 -31
-26 -26 -26 -26 -27 -27 -27 -27 -27 -28 -28 -29 -29 -29 -29 -28 -28 -29 -29 -29 -29 -29 -29 -29 -29 -29 -29 -30 -30 -30 -30 -30 -30 -30 -30 -30 -31 -31 -31 -31 -31 -32 -32 -32

GFSNGP_500_temp_141.txt.gz
Temp
-21 -21 -21 -21 -21 -21 -21 -21 -22 -21 -22 -21 -21 -22 -21 -21 -21 -21 -21 -21 -21 -22 -22 -22 -22 -22 -22 -22 -22 -22 -22 -22 -23 -25 -24 -24 -24 -23 -23 -23 -23 -22 -21 -21
-21 -22 -22 -21 -21 -22 -22 -22 -23 -22 -21 -22 -22 -22 -22 -22 -21 -21 -21 -22 -22 -22 -22 -22 -22 -22 -22 -22 -22 -23 -23 -24 -25 -25 -24 -23 -23 -23 -23 -23 -23 -23 -23 -22
-22 -22 -22 -22 -21 -22 -22 -22 -23 -22 -22 -22 -22 -22 -22 -22 -22 -22 -22 -22 -23 -23 -22 -22 -22 -22 -22 -22 -22 -23 -23 -24 -25 -24 -24 -24 -23 -23 -23 -23 -23 -23 -23 -23
-23 -22 -22 -22 -22 -22 -23 -23 -23 -23 -23 -23 -22 -22 -22 -22 -22 -22 -23 -23 -23 -23 -22 -22 -22 -22 -22 -23 -23 -23 -24 -24 -24 -24 -24 -24 -24 -23 -23 -23 -23 -23 -23 -23
-23 -23 -23 -22 -22 -22 -23 -22 -23 -23 -23 -23 -23 -23 -22 -22 -23 -23 -23 -23 -23 -23 -22 -22 -22 -23 -23 -22 -23 -23 -24 -24 -24 -24 -24 -24 -24 -24 -24 -23 -23 -23 -23 -23
-23 -23 -23 -23 -23 -23 -23 -22 -23 -23 -23 -23 -23 -23 -22 -23 -23 -23 -24 -23 -23 -23 -23 -23 -23 -23 -23 -23 -23 -24 -24 -24 -25 -24 -24 -24 -24 -24 -24 -24 -24 -23 -23 -23
-24 -23 -23 -23 -23 -23 -23 -23 -23 -23 -23 -23 -23 -23 -23 -23 -23 -24 -24 -24 -23 -23 -23 -23 -23 -23 -23 -23 -23 -24 -24 -24 -24 -24 -24 -24 -24 -24 -24 -24 -24 -24 -24 -23
-24 -24 -23 -24 -23 -24 -24 -23 -23 -23 -23 -23 -23 -23 -23 -24 -24 -24 -24 -24 -23 -23 -23 -23 -23 -23 -23 -23 -24 -24 -24 -25 -24 -24 -24 -24 -24 -24 -24 -24 -24 -24 -24 -23
-24 -24 -24 -23 -24 -23 -23 -23 -23 -23 -23 -23 -23 -23 -23 -24 -24 -24 -24 -24 -24 -23 -23 -23 -23 -23 -23 -23 -24 -25 -25 -25 -24 -25 -24 -24 -24 -24 -24 -24 -24 -24 -24 -24
-24 -24 -24 -24 -24 -24 -23 -23 -24 -23 -23 -23 -23 -23 -24 -24 -24 -24 -24 -24 -24 -24 -24 -23 -24 -23 -23 -24 -24 -24 -25 -25 -25 -24 -25 -25 -24 -24 -24 -24 -24 -24 -24 -24
-24 -24 -24 -24 -24 -24 -24 -24 -24 -23 -24 -23 -23 -24 -24 -24 -24 -24 -24 -24 -24 -24 -24 -24 -24 -24 -24 -24 -24 -25 -25 -25 -25 -25 -25 -25 -24 -24 -24 -24 -24 -24 -24 -24
-24 -24 -24 -24 -24 -24 -24 -24 -23 -24 -24 -24 -24 -24 -24 -24 -24 -25 -25 -24 -24 -25 -25 -24 -24 -24 -24 -24 -24 -25 -25 -26 -25 -25 -25 -25 -25 -25 -25 -24 -24 -24 -24 -24
-24 -24 -24 -24 -24 -24 -24 -24 -24 -24 -24 -24 -25 -25 -25 -25 -25 -25 -25 -25 -25 -25 -25 -25 -25 -25 -25 -24 -25 -25 -25 -26 -26 -26 -25 -25 -25 -25 -25 -25 -25 -25 -25 -25
-24 -24 -24 -24 -24 -24 -24 -24 -24 -24 -24 -24 -24 -25 -25 -25 -25 -25 -25 -25 -25 -25 -25 -26 -25 -25 -25 -25 -25 -25 -25 -25 -26 -26 -26 -26 -26 -26 -26 -26 -26 -26 -25 -25
-24 -24 -24 -24 -24 -24 -24 -24 -24 -24 -24 -24 -24 -25 -25 -25 -26 -26 -26 -26 -26 -26 -26 -27 -26 -26 -26 -25 -25 -25 -25 -25 -25 -26 -26 -27 -26 -26 -26 -26 -26 -26 -26 -25
-24 -24 -24 -24 -24 -24 -24 -24 -24 -24 -24 -25 -25 -26 -26 -26 -26 -27 -27 -27 -27 -27 -27 -27 -27 -27 -26 -26 -26 -26 -26 -26 -26 -26 -26 -26 -26 -26 -26 -26 -26 -26 -26 -26
-24 -24 -24 -24 -24 -24 -24 -24 -24 -24 -25 -25 -25 -26 -26 -27 -27 -28 -28 -28 -28 -28 -28 -28 -28 -28 -27 -26 -26 -26 -26 -26 -26 -26 -26 -26 -26 -26 -26 -26 -26 -26 -26 -26
-24 -24 -24 -24 -24 -24 -24 -24 -24 -24 -25 -25 -26 -26 -26 -27 -28 -28 -28 -28 -28 -28 -29 -28 -28 -27 -27 -27 -26 -26 -26 -26 -26 -26 -26 -26 -26 -26 -27 -27 -27 -27 -27 -27
-25 -25 -24 -24 -24 -24 -24 -24 -24 -25 -25 -26 -26 -26 -27 -27 -27 -27 -27 -27 -28 -28 -28 -28 -28 -28 -27 -27 -27 -27 -26 -26 -27 -27 -27 -27 -27 -27 -27 -27 -27 -27 -27 -28
-25 -25 -24 -24 -24 -24 -24 -24 -25 -25 -25 -25 -26 -27 -27 -27 -27 -27 -27 -27 -27 -28 -28 -28 -28 -27 -27 -27 -27 -27 -27 -27 -27 -27 -27 -27 -27 -27 -28 -28 -28 -28 -28 -28
-25 -25 -25 -24 -24 -24 -24 -25 -25 -25 -25 -25 -26 -27 -27 -27 -27 -27 -27 -27 -27 -27 -27 -28 -27 -27 -27 -27 -27 -27 -27 -27 -27 -27 -27 -28 -28 -28 -28 -28 -28 -28 -28 -29
-25 -24 -24 -24 -24 -25 -25 -25 -25 -25 -25 -25 -26 -26 -27 -27 -27 -27 -27 -27 -27 -27 -27 -27 -27 -27 -27 -27 -27 -27 -27 -28 -28 -28 -28 -28 -28 -28 -28 -29 -29 -29 -29 -29
-24 -24 -24 -24 -25 -25 -25 -25 -25 -25 -25 -26 -26 -27 -27 -27 -27 -27 -27 -27 -27 -27 -27 -27 -27 -27 -27 -27 -27 -27 -28 -28 -28 -28 -28 -28 -29 -29 -29 -29 -30 -30 -30 -30
-24 -24 -25 -25 -25 -25 -25 -25 -25 -26 -26 -26 -27 -27 -27 -27 -27 -27 -27 -27 -27 -27 -27 -27 -27 -28 -28 -28 -28 -28 -28 -28 -28 -28 -29 -29 -29 -29 -30 -30 -30 -30 -30 -30
-25 -25 -25 -25 -25 -25 -25 -26 -26 -26 -26 -26 -27 -27 -28 -28 -28 -28 -28 -28 -28 -28 -28 -28 -28 -28 -28 -28 -28 -28 -28 -29 -29 -29 -29 -30 -30 -30 -30 -30 -30 -30 -30 -31
-25 -25 -25 -25 -26 -26 -26 -26 -26 -26 -27 -27 -27 -28 -28 -28 -28 -28 -28 -28 -28 -28 -28 -28 -28 -29 -29 -29 -29 -29 -29 -29 -30 -30 -30 -30 -30 -30 -30 -30 -31 -31 -31 -32
-26 -26 -26 -26 -26 -27 -27 -27 -27 -27 -27 -28 -28 -28 -28 -29 -29 -29 -29 -29 -29 -29 -29 -29 -29 -29 -29 -30 -30 -30 -30 -30 -30 -30 -30 -30 -31 -31 -31 -32 -32 -32 -32 -32

GFSNGP_500_temp_144.txt.gz
Temp
-21 -21 -20 -20 -20 -20 -21 -20 -21 -19 -21 -20 -21 -21 -21 -21 -21 -22 -22 -22 -22 -21 -21 -21 -22 -22 -22 -22 -22 -22 -22 -23 -23 -23 -24 -24 -24 -24 -24 -24 -24 -23 -23 -23
-21 -22 -22 -21 -20 -21 -21 -21 -21 -22 -21 -21 -22 -22 -22 -22 -22 -22 -22 -22 -22 -22 -22 -22 -22 -22 -22 -22 -22 -22 -22 -23 -23 -24 -24 -24 -24 -24 -23 -23 -23 -23 -23 -23
-21 -22 -22 -22 -20 -21 -21 -22 -22 -22 -21 -21 -22 -22 -22 -22 -22 -22 -22 -22 -22 -22 -22 -23 -23 -22 -22 -22 -22 -22 -23 -24 -23 -25 -24 -24 -24 -24 -24 -23 -23 -23 -23 -23
-22 -22 -22 -21 -22 -22 -22 -22 -22 -23 -22 -22 -22 -22 -23 -22 -22 -22 -22 -22 -22 -22 -23 -23 -23 -22 -22 -22 -23 -23 -23 -23 -24 -24 -24 -24 -24 -24 -24 -24 -23 -23 -23 -23
-22 -22 -22 -21 -22 -22 -22 -21 -22 -22 -22 -23 -22 -23 -23 -23 -23 -23 -23 -22 -23 -23 -23 -23 -23 -22 -23 -23 -23 -23 -23 -24 -24 -24 -24 -24 -24 -24 -24 -24 -24 -24 -23 -23
-22 -22 -22 -21 -23 -23 -22 -21 -22 -22 -23 -23 -23 -23 -23 -23 -23 -23 -23 -23 -23 -23 -23 -23 -23 -23 -23 -23 -23 -23 -23 -24 -24 -25 -24 -24 -24 -24 -24 -24 -24 -24 -24 -24
-23 -23 -22 -22 -23 -23 -23 -22 -22 -22 -23 -23 -23 -23 -23 -23 -23 -23 -23 -23 -24 -24 -24 -23 -23 -23 -23 -23 -23 -23 -23 -24 -24 -25 -25 -25 -24 -24 -24 -24 -24 -24 -24 -24
-23 -23 -23 -23 -23 -23 -23 -23 -23 -23 -23 -23 -24 -23 -23 -23 -23 -23 -23 -24 -24 -24 -24 -24 -23 -23 -23 -24 -23 -23 -23 -24 -25 -25 -25 -25 -24 -24 -24 -24 -24 -24 -24 -24
-24 -24 -24 -23 -24 -23 -23 -23 -23 -23 -23 -23 -24 -23 -23 -23 -23 -23 -23 -24 -24 -24 -24 -24 -24 -24 -23 -23 -23 -23 -24 -24 -25 -25 -25 -25 -25 -25 -24 -24 -24 -24 -24 -24
-24 -23 -24 -24 -23 -24 -24 -23 -23 -24 -23 -23 -24 -23 -23 -23 -23 -23 -24 -24 -24 -24 -24 -24 -24 -24 -24 -24 -24 -23 -24 -24 -25 -25 -26 -25 -25 -25 -25 -25 -25 -25 -24 -24
-24 -24 -24 -24 -24 -24 -23 -23 -23 -23 -24 -24 -23 -23 -23 -23 -23 -24 -24 -24 -24 -25 -25 -24 -24 -24 -24 -24 -24 -24 -24 -25 -25 -25 -26 -26 -26 -25 -25 -25 -25 -25 -25 -25
-24 -25 -25 -24 -24 -23 -24 -24 -24 -24 -24 -24 -23 -24 -24 -24 -24 -25 -24 -25 -25 -25 -25 -24 -24 -25 -25 -25 -25 -25 -24 -25 -25 -25 -26 -26 -26 -26 -25 -25 -25 -25 -25 -25
-24 -24 -24 -24 -24 -24 -24 -24 -24 -24 -24 -24 -24 -24 -24 -24 -24 -25 -25 -25 -25 -25 -25 -25 -25 -25 -25 -25 -25 -25 -25 -25 -25 -26 -26 -26 -26 -26 -26 -26 -26 -26 -26 -26
-25 -25 -24 -24 -24 -24 -24 -24 -24 -24 -24 -24 -24 -24 -24 -24 -24 -25 -25 -25 -25 -25 -26 -26 -26 -26 -26 -26 -26 -26 -26 -26 -26 -26 -26 -26 -26 -26 -27 -27 -26 -26 -26 -26
-25 -25 -25 -24 -24 -24 -24 -24 -24 -24 -24 -24 -24 -24 -24 -24 -24 -25 -25 -26 -26 -26 -26 -27 -27 -27 -27 -27 -27 -27 -26 -26 -26 -26 -26 -26 -26 -26 -26 -26 -26 -26 -26 -26
-25 -25 -25 -24 -24 -24 -24 -24 -24 -24 -24 -24 -24 -24 -24 -25 -25 -26 -26 -26 -27 -27 -28 -28 -28 -28 -28 -28 -28 -28 -27 -27 -27 -26 -26 -26 -26 -27 -27 -26 -26 -26 -26 -27
-25 -25 -25 -24 -24 -24 -24 -24 -24 -24 -24 -24 -24 -24 -25 -25 -25 -26 -26 -27 -27 -28 -28 -28 -28 -28 -28 -28 -28 -28 -28 -27 -27 -27 -27 -27 -27 -27 -27 -27 -27 -27 -27 -27
-25 -25 -25 -24 -24 -24 -24 -24 -24 -24 -24 -24 -24 -25 -25 -25 -25 -26 -27 -27 -27 -27 -27 -28 -28 -28 -28 -29 -29 -28 -28 -27 -27 -27 -27 -27 -27 -27 -27 -27 -27 -27 -27 -27
-25 -25 -25 -25 -25 -24 -24 -24 -24 -24 -24 -24 -24 -25 -25 -25 -25 -26 -27 -27 -27 -27 -27 -27 -27 -28 -28 -28 -29 -28 -28 -28 -27 -27 -27 -27 -28 -28 -28 -28 -28 -28 -27 -27
-25 -25 -25 -25 -25 -25 -24 -24 -24 -24 -24 -24 -25 -25 -25 -25 -26 -26 -27 -27 -27 -27 -27 -27 -27 -28 -28 -28 -28 -28 -28 -28 -28 -28 -28 -28 -28 -28 -28 -28 -28 -28 -28 -28
-25 -25 -25 -25 -25 -25 -24 -24 -24 -24 -25 -25 -25 -25 -25 -25 -26 -26 -27 -27 -27 -27 -27 -27 -27 -28 -28 -28 -28 -28 -28 -28 -28 -28 -28 -28 -28 -28 -28 -28 -28 -28 -28 -28
-25 -25 -25 -25 -25 -25 -25 -24 -24 -24 -25 -25 -25 -25 -25 -25 -26 -26 -27 -27 -27 -27 -27 -27 -27 -27 -27 -27 -28 -28 -28 -28 -28 -28 -28 -28 -28 -29 -29 -29 -29 -29 -29 -29
-25 -25 -25 -25 -25 -25 -24 -24 -24 -25 -25 -25 -25 -25 -25 -26 -26 -27 -27 -27 -27 -27 -27 -27 -27 -27 -27 -28 -28 -28 -28 -28 -28 -28 -28 -29 -29 -29 -29 -29 -29 -29 -30 -30
-25 -25 -25 -25 -25 -24 -24 -25 -25 -25 -25 -25 -25 -26 -26 -26 -27 -27 -27 -27 -27 -27 -28 -28 -28 -28 -28 -28 -28 -28 -28 -28 -28 -29 -29 -29 -29 -29 -29 -30 -30 -30 -30 -30
-25 -25 -25 -25 -25 -25 -25 -25 -25 -25 -26 -26 -26 -26 -26 -27 -27 -27 -28 -28 -28 -28 -28 -28 -28 -28 -28 -28 -29 -29 -29 -29 -29 -29 -29 -30 -30 -30 -30 -30 -30 -31 -31 -31
-25 -25 -25 -25 -25 -25 -26 -26 -26 -26 -27 -27 -27 -27 -27 -27 -28 -28 -28 -28 -29 -29 -29 -29 -29 -29 -29 -29 -29 -30 -30 -30 -30 -30 -30 -30 -30 -31 -31 -31 -31 -31 -31 -32
-26 -26 -26 -26 -26 -26 -26 -27 -27 -27 -27 -27 -28 -28 -28 -28 -28 -29 -29 -29 -29 -29 -30 -30 -30 -30 -30 -30 -30 -30 -30 -30 -31 -31 -31 -31 -31 -31 -31 -32 -32 -32 -32 -32

GFSNGP_500_temp_147.txt.gz
Temp
-20 -20 -19 -19 -19 -19 -21 -21 -21 -19 -19 -19 -21 -21 -22 -22 -21 -21 -21 -22 -22 -22 -22 -22 -22 -22 -22 -22 -22 -22 -22 -22 -22 -23 -24 -24 -24 -24 -24 -24 -24 -24 -24 -23
-21 -21 -21 -21 -19 -20 -20 -21 -21 -21 -19 -20 -21 -21 -22 -21 -21 -21 -22 -22 -22 -22 -22 -22 -22 -22 -23 -23 -23 -22 -22 -23 -23 -23 -24 -24 -24 -24 -24 -24 -23 -23 -23 -23
-21 -22 -22 -22 -19 -20 -21 -21 -21 -22 -20 -22 -21 -21 -21 -21 -22 -22 -22 -22 -22 -22 -22 -23 -22 -23 -23 -23 -23 -23 -22 -23 -23 -24 -24 -24 -24 -24 -24 -24 -24 -24 -24 -23
-22 -22 -22 -19 -20 -21 -22 -20 -22 -22 -21 -22 -22 -21 -21 -22 -22 -22 -22 -22 -22 -22 -23 -23 -23 -23 -23 -23 -23 -23 -23 -23 -23 -24 -24 -24 -24 -24 -24 -24 -24 -24 -24 -24
-23 -22 -22 -21 -21 -21 -22 -21 -22 -22 -22 -22 -21 -22 -22 -22 -23 -23 -23 -23 -23 -23 -23 -23 -23 -23 -23 -23 -23 -23 -23 -23 -23 -24 -24 -25 -24 -24 -24 -24 -24 -24 -24 -24
-23 -23 -22 -21 -23 -22 -22 -21 -22 -22 -22 -22 -23 -22 -23 -23 -23 -23 -23 -23 -23 -23 -23 -23 -24 -24 -24 -23 -23 -23 -23 -23 -23 -24 -24 -25 -25 -25 -24 -24 -24 -24 -24 -24
-22 -23 -22 -22 -22 -22 -22 -22 -22 -22 -22 -23 -23 -23 -23 -23 -23 -23 -23 -23 -23 -23 -23 -24 -24 -24 -24 -24 -24 -24 -24 -24 -24 -24 -24 -25 -25 -25 -25 -24 -24 -24 -24 -24
-23 -23 -22 -23 -23 -23 -23 -23 -23 -23 -23 -23 -23 -23 -23 -23 -23 -23 -23 -23 -23 -23 -24 -24 -24 -24 -24 -24 -24 -24 -24 -24 -24 -24 -24 -25 -25 -25 -25 -25 -25 -25 -25 -24
-23 -23 -23 -23 -23 -23 -23 -23 -23 -23 -23 -23 -23 -23 -23 -23 -23 -23 -23 -23 -23 -23 -24 -24 -24 -24 -24 -24 -24 -24 -24 -24 -24 -24 -25 -25 -26 -25 -25 -25 -25 -25 -25 -24
-24 -23 -24 -24 -24 -23 -23 -23 -23 -23 -23 -23 -23 -23 -23 -23 -23 -23 -23 -24 -24 -24 -25 -25 -25 -25 -25 -25 -24 -24 -24 -24 -24 -24 -25 -25 -25 -25 -26 -26 -25 -25 -25 -25
-24 -24 -24 -24 -24 -24 -23 -23 -24 -23 -23 -23 -23 -23 -23 -23 -23 -24 -24 -24 -24 -25 -25 -25 -25 -25 -25 -25 -25 -25 -25 -25 -25 -24 -25 -25 -25 -26 -26 -26 -26 -26 -26 -25
-24 -24 -24 -24 -25 -24 -24 -23 -24 -24 -23 -23 -23 -24 -24 -24 -23 -24 -24 -24 -25 -25 -25 -25 -25 -25 -25 -25 -25 -25 -25 -25 -25 -25 -25 -26 -26 -26 -26 -26 -26 -26 -26 -26
-25 -26 -25 -25 -24 -25 -24 -24 -24 -24 -24 -23 -23 -23 -24 -24 -24 -24 -24 -24 -25 -25 -25 -25 -25 -25 -26 -26 -26 -26 -26 -26 -26 -26 -26 -26 -26 -26 -26 -26 -26 -26 -26 -26
-26 -26 -25 -25 -24 -24 -24 -24 -24 -24 -24 -24 -24 -24 -24 -24 -24 -24 -24 -24 -24 -25 -25 -25 -26 -26 -27 -27 -27 -27 -27 -27 -27 -27 -27 -27 -27 -27 -27 -27 -26 -26 -26 -26
-26 -26 -25 -25 -25 -24 -25 -24 -24 -24 -24 -24 -24 -24 -24 -24 -24 -24 -24 -24 -24 -25 -26 -26 -27 -27 -27 -28 -28 -28 -28 -28 -28 -28 -27 -27 -27 -27 -27 -27 -27 -27 -27 -27
-26 -26 -25 -25 -25 -25 -25 -25 -24 -24 -24 -24 -24 -24 -24 -24 -24 -24 -24 -25 -25 -25 -26 -27 -27 -27 -27 -28 -28 -28 -28 -28 -28 -29 -28 -28 -28 -27 -27 -27 -27 -27 -27 -27
-26 -26 -25 -25 -25 -25 -25 -24 -24 -24 -24 -24 -24 -24 -24 -24 -24 -24 -25 -25 -25 -25 -26 -27 -27 -27 -27 -27 -27 -28 -28 -29 -29 -29 -29 -29 -28 -28 -27 -27 -28 -28 -28 -28
-25 -25 -26 -25 -25 -25 -25 -25 -24 -24 -24 -24 -25 -24 -24 -24 -24 -24 -25 -25 -25 -26 -27 -27 -27 -27 -27 -27 -28 -28 -28 -29 -29 -29 -29 -29 -28 -28 -28 -28 -28 -28 -28 -29
-25 -25 -26 -26 -26 -25 -25 -25 -25 -24 -24 -24 -24 -24 -24 -24 -25 -24 -25 -25 -25 -26 -27 -27 -27 -26 -27 -27 -27 -28 -28 -28 -29 -29 -29 -29 -28 -28 -28 -28 -28 -28 -29 -29
-26 -26 -26 -26 -25 -25 -25 -25 -25 -25 -25 -24 -24 -24 -24 -25 -25 -25 -25 -25 -26 -26 -27 -27 -27 -27 -27 -27 -27 -28 -28 -28 -28 -29 -28 -28 -28 -28 -28 -28 -28 -29 -29 -29
-26 -26 -26 -26 -26 -25 -25 -25 -25 -25 -25 -24 -25 -24 -25 -25 -25 -25 -25 -25 -26 -26 -27 -27 -27 -27 -27 -27 -27 -27 -28 -28 -28 -28 -28 -28 -29 -29 -29 -29 -29 -29 -29 -29
-26 -26 -25 -25 -25 -25 -25 -25 -25 -25 -25 -25 -25 -25 -25 -25 -25 -25 -25 -26 -26 -26 -27 -27 -27 -27 -27 -27 -27 -28 -28 -28 -28 -28 -28 -29 -29 -29 -29 -29 -29 -29 -29 -29
-25 -26 -26 -26 -25 -25 -25 -25 -25 -25 -25 -25 -25 -25 -25 -25 -25 -26 -26 -26 -26 -27 -27 -27 -28 -28 -28 -28 -28 -28 -28 -28 -29 -29 -29 -29 -29 -29 -29 -29 -30 -30 -30 -30
-26 -26 -26 -26 -25 -25 -25 -25 -25 -25 -25 -25 -25 -25 -26 -26 -26 -26 -26 -27 -27 -27 -27 -28 -28 -28 -28 -28 -28 -29 -29 -29 -29 -29 -29 -29 -29 -30 -30 -30 -30 -31 -31 -31
-26 -26 -26 -26 -25 -25 -25 -25 -25 -25 -25 -25 -26 -26 -26 -27 -27 -27 -27 -27 -27 -28 -28 -28 -29 -29 -29 -29 -29 -30 -30 -30 -30 -30 -30 -30 -30 -31 -31 -31 -31 -31 -31 -31
-26 -26 -26 -26 -26 -25 -25 -25 -26 -26 -26 -26 -27 -27 -27 -27 -27 -28 -28 -28 -28 -28 -29 -29 -29 -30 -30 -30 -30 -30 -30 -30 -31 -31 -31 -31 -31 -31 -31 -31 -32 -32 -32 -32
-26 -26 -26 -26 -26 -26 -26 -27 -27 -27 -27 -27 -28 -28 -28 -28 -28 -29 -29 -29 -29 -29 -30 -30 -30 -30 -30 -30 -30 -31 -31 -31 -31 -32 -32 -32 -32 -32 -32 -33 -33 -33 -33 -33

GFSNGP_500_temp_150.txt.gz
Temp
-19 -19 -18 -18 -19 -18 -18 -19 -19 -18 -19 -20 -21 -21 -21 -20 -20 -21 -21 -21 -22 -22 -22 -22 -22 -22 -22 -22 -22 -22 -23 -23 -23 -23 -23 -23 -24 -24 -24 -24 -24 -24 -24 -23
-19 -19 -19 -19 -19 -20 -20 -20 -20 -20 -19 -20 -21 -22 -21 -21 -21 -21 -22 -22 -22 -22 -22 -23 -22 -22 -22 -23 -22 -23 -23 -23 -23 -23 -23 -23 -24 -24 -24 -24 -24 -23 -23 -23
-20 -20 -20 -20 -18 -20 -20 -20 -20 -21 -19 -21 -21 -22 -21 -21 -21 -21 -22 -22 -22 -22 -23 -23 -23 -23 -23 -23 -23 -23 -23 -23 -23 -23 -23 -24 -24 -24 -24 -24 -24 -24 -24 -23
-21 -21 -21 -19 -20 -21 -21 -20 -20 -20 -20 -21 -21 -21 -21 -21 -22 -22 -22 -22 -22 -22 -23 -23 -23 -23 -23 -23 -23 -24 -24 -23 -23 -24 -24 -24 -25 -25 -25 -24 -24 -24 -24 -24
-22 -22 -21 -20 -20 -21 -21 -20 -21 -21 -21 -21 -21 -21 -21 -22 -22 -22 -22 -22 -22 -23 -23 -23 -23 -23 -23 -23 -24 -24 -24 -24 -24 -24 -24 -24 -25 -25 -25 -25 -24 -24 -24 -24
-22 -22 -22 -21 -22 -21 -21 -20 -21 -21 -22 -22 -22 -22 -23 -23 -23 -22 -22 -23 -23 -23 -23 -23 -23 -23 -23 -24 -24 -24 -24 -24 -24 -24 -24 -24 -25 -25 -25 -25 -25 -25 -24 -25
-23 -23 -22 -22 -21 -22 -23 -21 -22 -22 -22 -22 -22 -23 -23 -23 -23 -23 -23 -23 -23 -23 -23 -23 -23 -23 -23 -24 -24 -24 -24 -24 -24 -24 -24 -24 -25 -25 -26 -25 -25 -25 -25 -25
-23 -23 -23 -22 -23 -22 -22 -22 -22 -22 -23 -23 -23 -23 -23 -23 -23 -23 -23 -24 -23 -23 -23 -23 -23 -24 -24 -25 -25 -24 -25 -25 -24 -24 -24 -24 -24 -25 -25 -26 -25 -25 -25 -25
-24 -24 -23 -23 -23 -23 -23 -23 -22 -22 -22 -23 -23 -24 -24 -23 -23 -23 -24 -24 -24 -23 -23 -23 -24 -24 -25 -25 -25 -25 -25 -25 -25 -25 -24 -24 -24 -25 -25 -25 -25 -26 -26 -25
-24 -24 -24 -23 -23 -23 -23 -23 -23 -23 -22 -23 -23 -24 -24 -24 -24 -24 -24 -24 -23 -23 -23 -24 -24 -25 -25 -25 -25 -25 -25 -25 -25 -25 -25 -25 -25 -25 -25 -26 -26 -26 -26 -26
-24 -24 -24 -24 -24 -23 -24 -24 -23 -23 -23 -23 -24 -23 -24 -24 -24 -24 -24 -23 -23 -24 -24 -24 -25 -25 -25 -25 -25 -25 -25 -25 -25 -25 -25 -25 -25 -25 -26 -26 -26 -26 -26 -26
-24 -25 -25 -25 -24 -25 -24 -24 -24 -23 -23 -23 -23 -24 -24 -24 -24 -24 -24 -24 -24 -24 -24 -25 -25 -25 -25 -25 -25 -25 -26 -26 -26 -26 -26 -26 -26 -26 -26 -26 -27 -27 -27 -26
-25 -25 -25 -25 -25 -25 -24 -24 -24 -24 -24 -24 -24 -24 -24 -24 -24 -24 -24 -24 -24 -24 -24 -25 -25 -25 -25 -25 -26 -26 -27 -27 -27 -27 -27 -27 -27 -27 -27 -27 -27 -27 -27 -27
-26 -26 -25 -25 -25 -25 -25 -25 -24 -24 -24 -24 -24 -24 -24 -24 -24 -24 -24 -24 -24 -24 -24 -25 -25 -25 -25 -25 -26 -27 -27 -28 -28 -28 -28 -28 -28 -28 -27 -27 -28 -28 -28 -28
-26 -26 -26 -26 -25 -25 -25 -25 -25 -25 -24 -24 -24 -24 -24 -24 -24 -24 -24 -24 -24 -25 -25 -25 -25 -25 -25 -26 -27 -27 -27 -27 -28 -29 -29 -28 -29 -29 -29 -28 -28 -28 -28 -28
-27 -26 -27 -26 -25 -25 -25 -25 -25 -25 -25 -25 -24 -24 -24 -24 -24 -25 -24 -24 -24 -25 -25 -25 -25 -25 -26 -27 -27 -27 -27 -27 -27 -28 -28 -29 -29 -29 -29 -29 -29 -28 -28 -28
-27 -26 -26 -25 -26 -26 -26 -25 -25 -25 -25 -25 -24 -24 -24 -24 -24 -24 -24 -24 -24 -25 -25 -25 -25 -26 -27 -27 -27 -27 -27 -27 -28 -28 -29 -29 -29 -29 -29 -29 -29 -29 -28 -28
-27 -26 -26 -26 -26 -26 -26 -26 -26 -25 -25 -25 -25 -24 -24 -24 -24 -24 -24 -24 -24 -24 -25 -25 -25 -26 -27 -27 -27 -27 -27 -27 -27 -28 -29 -29 -29 -29 -30 -29 -29 -29 -29 -29
-26 -26 -26 -26 -26 -26 -26 -26 -26 -25 -25 -25 -25 -24 -24 -24 -24 -24 -24 -24 -24 -24 -24 -25 -25 -26 -27 -27 -27 -27 -27 -27 -27 -28 -28 -28 -29 -29 -29 -29 -29 -29 -29 -29
-26 -26 -26 -26 -26 -26 -26 -26 -26 -25 -25 -25 -25 -25 -25 -25 -25 -25 -24 -24 -25 -25 -25 -25 -25 -26 -26 -27 -27 -27 -27 -27 -27 -27 -28 -28 -29 -29 -29 -29 -29 -29 -29 -29
-26 -26 -26 -26 -26 -26 -26 -26 -26 -26 -25 -25 -25 -25 -25 -25 -25 -25 -25 -25 -25 -25 -25 -25 -25 -26 -27 -27 -27 -27 -27 -27 -27 -28 -28 -28 -29 -29 -29 -29 -29 -29 -30 -30
-26 -26 -26 -26 -26 -26 -26 -26 -26 -25 -25 -25 -25 -25 -25 -25 -25 -25 -25 -25 -25 -25 -26 -26 -26 -26 -27 -27 -28 -28 -28 -28 -28 -28 -28 -29 -29 -29 -29 -29 -30 -30 -30 -30
-26 -26 -26 -26 -26 -26 -26 -25 -25 -25 -25 -25 -25 -25 -25 -25 -25 -25 -25 -26 -26 -26 -26 -26 -27 -27 -28 -28 -28 -29 -29 -29 -29 -29 -29 -29 -30 -30 -30 -30 -30 -30 -30 -30
-26 -26 -26 -26 -26 -26 -26 -26 -26 -25 -25 -25 -25 -25 -25 -25 -25 -26 -26 -26 -27 -27 -27 -27 -27 -28 -28 -28 -29 -29 -29 -30 -30 -30 -30 -30 -30 -30 -30 -30 -31 -31 -31 -31
-26 -26 -26 -26 -26 -26 -26 -26 -26 -26 -25 -25 -25 -26 -26 -26 -26 -27 -27 -27 -27 -28 -28 -28 -28 -28 -29 -29 -29 -30 -30 -30 -30 -31 -31 -31 -31 -31 -31 -31 -32 -32 -32 -32
-26 -26 -26 -26 -26 -26 -26 -26 -26 -26 -26 -26 -26 -27 -27 -27 -27 -28 -28 -28 -28 -29 -29 -29 -29 -29 -30 -30 -30 -30 -31 -31 -31 -31 -31 -31 -31 -32 -32 -32 -33 -33 -33 -33
-26 -26 -26 -26 -26 -26 -26 -26 -27 -27 -27 -27 -27 -27 -28 -28 -28 -28 -29 -29 -29 -29 -29 -30 -30 -30 -31 -31 -31 -31 -31 -31 -31 -32 -32 -32 -32 -33 -33 -33 -33 -33 -33 -33

GFSNGP_500_temp_153.txt.gz
Temp
-19 -19 -19 -18 -18 -18 -18 -17 -18 -18 -18 -18 -18 -19 -19 -20 -19 -20 -20 -20 -21 -21 -21 -21 -21 -21 -22 -22 -22 -22 -22 -22 -22 -22 -23 -23 -23 -23 -24 -24 -24 -24 -24 -24
-19 -19 -19 -19 -19 -19 -19 -18 -18 -18 -18 -19 -20 -20 -20 -20 -20 -21 -21 -21 -21 -21 -21 -22 -22 -22 -22 -22 -23 -23 -23 -23 -23 -23 -23 -23 -23 -24 -24 -24 -24 -24 -24 -24
-20 -20 -20 -20 -18 -20 -19 -19 -19 -19 -19 -20 -20 -21 -21 -21 -21 -21 -21 -22 -22 -21 -21 -22 -22 -22 -23 -23 -23 -23 -23 -23 -23 -23 -24 -24 -24 -24 -24 -24 -24 -24 -24 -24
-21 -20 -21 -19 -19 -20 -20 -20 -20 -20 -19 -20 -20 -21 -21 -22 -22 -22 -22 -22 -22 -22 -22 -23 -23 -23 -23 -23 -23 -23 -23 -23 -23 -24 -24 -24 -24 -24 -24 -25 -25 -25 -25 -24
-22 -22 -21 -20 -19 -20 -21 -21 -20 -20 -19 -20 -20 -20 -21 -22 -22 -22 -22 -22 -22 -22 -23 -23 -23 -23 -23 -23 -23 -23 -23 -23 -24 -24 -24 -24 -24 -24 -24 -25 -25 -25 -25 -24
-23 -22 -22 -20 -21 -21 -21 -20 -20 -22 -21 -21 -21 -21 -21 -22 -22 -22 -22 -22 -22 -23 -23 -23 -23 -24 -23 -23 -23 -23 -23 -24 -24 -25 -24 -24 -24 -24 -24 -25 -25 -25 -25 -25
-23 -23 -23 -21 -21 -22 -22 -20 -21 -22 -22 -21 -21 -22 -22 -22 -22 -22 -22 -22 -23 -23 -23 -23 -24 -24 -23 -23 -23 -24 -24 -24 -24 -25 -25 -25 -25 -24 -24 -24 -25 -25 -26 -25
-23 -23 -23 -22 -23 -22 -22 -22 -22 -22 -22 -22 -22 -22 -22 -22 -22 -22 -23 -23 -23 -23 -23 -23 -23 -23 -23 -23 -24 -24 -24 -25 -25 -25 -25 -25 -25 -25 -25 -25 -25 -25 -26 -26
-23 -24 -23 -22 -23 -23 -23 -22 -22 -22 -23 -23 -23 -23 -23 -23 -23 -23 -23 -23 -23 -23 -23 -23 -24 -24 -23 -24 -24 -25 -25 -25 -25 -25 -25 -25 -25 -25 -25 -25 -25 -25 -26 -26
-23 -23 -24 -24 -23 -23 -23 -23 -23 -23 -23 -23 -23 -23 -23 -23 -23 -23 -23 -24 -23 -23 -23 -24 -24 -24 -24 -24 -25 -25 -25 -25 -25 -25 -25 -25 -25 -25 -26 -25 -25 -25 -26 -26
-24 -24 -24 -24 -24 -24 -24 -23 -23 -23 -23 -23 -23 -23 -23 -23 -23 -23 -24 -24 -24 -24 -24 -24 -24 -24 -24 -24 -25 -25 -25 -26 -25 -25 -26 -26 -26 -26 -26 -26 -26 -26 -26 -26
-24 -24 -24 -24 -24 -24 -24 -24 -24 -23 -23 -23 -23 -24 -23 -24 -24 -24 -24 -24 -24 -24 -24 -24 -24 -24 -24 -24 -25 -25 -25 -26 -26 -26 -27 -27 -27 -27 -27 -27 -27 -27 -27 -27
-25 -24 -25 -25 -24 -24 -24 -24 -24 -24 -24 -23 -23 -24 -24 -24 -24 -25 -24 -24 -24 -24 -24 -24 -24 -24 -24 -24 -25 -25 -25 -25 -26 -27 -27 -27 -28 -28 -28 -28 -28 -28 -28 -28
-26 -26 -26 -26 -25 -25 -25 -25 -24 -24 -24 -24 -24 -24 -24 -24 -24 -24 -24 -24 -24 -24 -24 -24 -24 -24 -24 -24 -25 -25 -25 -27 -27 -27 -27 -27 -27 -28 -29 -29 -29 -29 -29 -29
-26 -26 -26 -26 -26 -25 -25 -25 -25 -25 -25 -25 -25 -24 -24 -24 -24 -24 -24 -24 -24 -24 -24 -24 -24 -24 -25 -25 -25 -25 -26 -27 -27 -27 -27 -27 -28 -28 -28 -29 -29 -29 -29 -29
-26 -27 -26 -25 -25 -26 -26 -26 -25 -25 -25 -25 -25 -25 -24 -25 -25 -25 -24 -24 -24 -24 -24 -24 -24 -25 -25 -25 -25 -26 -27 -27 -27 -27 -27 -27 -28 -28 -29 -29 -29 -29 -29 -29
-26 -26 -27 -27 -27 -26 -26 -26 -26 -26 -25 -25 -26 -25 -25 -25 -25 -25 -25 -24 -24 -25 -25 -25 -25 -25 -25 -25 -25 -26 -27 -27 -27 -27 -27 -27 -27 -28 -29 -29 -29 -29 -29 -30
-26 -27 -27 -27 -27 -27 -27 -26 -26 -26 -26 -26 -26 -25 -25 -25 -25 -25 -25 -25 -25 -25 -25 -25 -25 -25 -25 -25 -25 -26 -27 -27 -27 -27 -27 -27 -27 -28 -28 -29 -29 -29 -29 -30
-27 -27 -27 -27 -27 -27 -27 -26 -26 -26 -26 -26 -26 -26 -25 -25 -25 -25 -25 -25 -25 -25 -25 -25 -25 -25 -25 -25 -26 -26 -27 -27 -27 -27 -27 -27 -27 -28 -28 -29 -29 -29 -29 -30
-27 -27 -27 -27 -26 -26 -26 -26 -26 -26 -26 -26 -26 -26 -25 -25 -25 -25 -25 -25 -25 -25 -25 -25 -25 -25 -25 -26 -26 -26 -27 -27 -27 -27 -28 -28 -28 -28 -28 -29 -29 -29 -30 -30
-26 -27 -27 -26 -26 -26 -26 -26 -26 -26 -26 -26 -26 -26 -26 -26 -25 -25 -25 -25 -25 -25 -25 -25 -25 -26 -26 -26 -26 -26 -27 -27 -27 -28 -28 -28 -29 -29 -29 -29 -29 -29 -30 -30
-26 -26 -26 -26 -26 -26 -26 -26 -26 -26 -26 -26 -26 -26 -26 -26 -26 -25 -25 -25 -25 -25 -25 -26 -26 -26 -26 -26 -27 -27 -27 -27 -28 -28 -29 -29 -29 -29 -29 -30 -30 -30 -30 -30
-26 -26 -26 -26 -26 -26 -26 -26 -26 -26 -26 -26 -26 -26 -26 -26 -25 -25 -25 -25 -25 -26 -26 -26 -27 -27 -27 -27 -27 -28 -28 -28 -28 -29 -29 -30 -30 -30 -30 -30 -31 -31 -31 -31
-26 -27 -26 -26 -26 -26 -26 -26 -26 -26 -26 -26 -26 -26 -26 -26 -25 -25 -26 -26 -26 -26 -27 -27 -27 -28 -28 -28 -28 -28 -29 -29 -29 -30 -30 -30 -31 -31 -31 -31 -31 -32 -32 -32
-26 -26 -26 -26 -26 -26 -26 -26 -26 -26 -26 -26 -26 -26 -26 -26 -26 -26 -27 -27 -27 -27 -28 -28 -28 -29 -29 -29 -29 -29 -30 -30 -30 -31 -31 -31 -31 -31 -31 -32 -32 -32 -32 -33
-26 -26 -27 -26 -26 -26 -26 -26 -26 -26 -26 -26 -26 -26 -27 -27 -27 -27 -27 -28 -28 -28 -29 -29 -29 -29 -30 -30 -30 -30 -31 -31 -31 -31 -32 -32 -32 -32 -32 -32 -33 -33 -33 -33
-26 -27 -27 -27 -27 -27 -27 -27 -27 -27 -27 -27 -27 -27 -27 -28 -28 -28 -28 -28 -29 -29 -29 -30 -30 -30 -30 -31 -31 -31 -31 -32 -32 -32 -32 -32 -33 -33 -33 -33 -33 -33 -34 -34